[[{"header":{"parameterUnit":"m.s-1","parameterCategory":1,"la1":31.0,"la2":29.5877,"lo1":-88.7671,"lo2":-86.6584,"dx":0.0162,"dy":0.0185,"nx":115,"ny":88,"refTime":"2022-12-10T06:00:00:Z","depth":0,"parameterNumber":2,"parameterNumberName":"U-component_of_WINDS"},"data":[0.0,0.0,0.0,0.0,0.0,0.0,0.0,0.0,0.0,0.0,0.0,0.0,0.0,0.0,0.0,0.0,0.0,0.0,0.0,0.0,0.0,0.0,0.0,0.0,0.0,0.0,0.0,0.0,0.0,0.0,0.0,0.0,0.0,0.0,0.0,0.0,0.0,0.0,0.0,0.0,0.0,0.0,0.0,0.0,0.0,0.0,0.0,0.0,0.0,0.0,0.0,0.0,0.0,0.0,0.0,0.0,0.0,0.0,0.0,0.0,0.0,0.0,0.0,0.0,0.0,0.0,0.0,0.0,0.0,0.0,0.0,0.0,0.0,0.0,0.0,0.0,0.0,0.0,0.0,0.0,0.0,0.0,0.0,0.0,0.0,0.0,0.0,0.0,0.0,0.0,0.0,0.0,0.0,0.0,0.0,0.0,0.0,0.0,0.0,0.0,0.0,0.0,0.0,0.0,0.0,0.0,0.0,0.0,0.0,0.0,0.0,0.0,0.0,0.0,0.0,0.0,0.0,0.0,0.0,0.0,0.0,0.0,0.0,0.0,0.0,0.0,0.0,0.0,0.0,0.0,0.0,0.0,0.0,0.0,0.0,0.0,0.0,0.0,0.0,0.0,0.0,0.0,0.0,0.0,0.0,0.0,0.0,0.0,0.0,0.0,0.0,0.0,0.0,0.0,0.0,0.0,0.0,0.0,0.0,0.0,0.0,0.0,0.0,0.0,0.0,0.0,0.0,0.0,0.0,0.0,0.0,0.0,0.0,0.0,0.0,0.0,0.0,0.0,0.0,0.0,0.0,0.0,0.0,0.0,0.0,0.0,0.0,0.0,0.0,0.0,0.0,0.0,0.0,0.0,0.0,0.0,0.0,0.0,0.0,0.0,0.0,0.0,0.0,0.0,0.0,0.0,0.0,0.0,0.0,0.0,0.0,0.0,0.0,0.0,0.0,0.0,0.0,0.0,0.0,0.0,0.0,0.0,0.0,0.0,0.0,0.0,0.0,0.0,0.0,0.0,0.0,0.0,0.0,0.0,0.0,0.0,0.0,0.0,0.0,0.0,0.0,0.0,0.0,0.0,0.0,0.0,0.0,0.0,0.0,0.0,0.0,0.0,0.0,0.0,0.0,0.0,0.0,0.0,0.0,0.0,0.0,0.0,0.0,0.0,0.0,0.0,0.0,0.0,0.0,0.0,0.0,0.0,0.0,0.0,0.0,0.0,0.0,0.0,0.0,0.0,0.0,0.0,0.0,0.0,0.0,0.0,0.0,0.0,0.0,0.0,0.0,0.0,0.0,0.0,0.0,0.0,0.0,0.0,0.0,0.0,0.0,0.0,0.0,0.0,0.0,0.0,0.0,0.0,0.0,0.0,0.0,0.0,0.0,0.0,0.0,0.0,0.0,0.0,0.0,0.0,0.0,0.0,0.0,0.0,0.0,0.0,0.0,0.0,0.0,0.0,0.0,0.0,0.0,0.0,0.0,0.0,0.0,0.0,0.0,0.0,0.0,0.0,0.0,0.0,0.0,0.0,0.0,0.0,0.0,0.0,0.0,0.0,0.0,0.0,0.0,0.0,0.0,0.0,0.0,0.0,0.0,0.0,0.0,0.0,0.0,0.0,0.0,0.0,0.0,0.0,0.0,0.0,0.0,0.0,0.0,0.0,0.0,0.0,0.0,0.0,0.0,0.0,0.0,0.0,0.0,0.0,0.0,0.0,0.0,0.0,0.0,0.0,0.0,0.0,0.0,0.0,0.0,0.0,0.0,0.0,0.0,0.0,0.0,0.0,0.0,0.0,0.0,0.0,0.0,0.0,0.0,0.0,0.0,0.0,0.0,0.0,0.0,0.0,0.0,0.0,0.0,0.0,0.0,0.0,0.0,0.0,0.0,0.0,0.0,0.0,0.0,0.0,0.0,0.0,0.0,0.0,0.0,0.0,0.0,0.0,0.0,0.0,0.0,0.0,0.0,0.0,0.0,0.0,0.0,0.0,0.0,0.0,0.0,0.0,0.0,0.0,0.0,0.0,0.0,0.0,0.0,0.0,0.0,0.0,0.0,0.0,0.0,0.0,0.0,0.0,0.0,0.0,0.0,0.0,0.0,0.0,0.0,0.0,0.0,0.0,0.0,0.0,0.0,0.0,0.0,0.0,0.0,0.0,0.0,0.0,0.0,0.0,0.0,0.0,0.0,0.0,0.0,0.0,0.0,0.0,0.0,0.0,0.0,0.0,0.0,0.0,0.0,0.0,0.0,0.0,0.0,0.0,0.0,0.0,0.0,0.0,0.0,0.0,0.0,0.0,0.0,0.0,0.0,0.0,0.0,0.0,0.0,0.0,0.0,0.0,0.0,0.0,0.0,0.0,0.0,0.0,0.0,0.0,0.0,0.0,0.0,0.0,0.0,0.0,0.0,0.0,0.0,0.0,0.0,0.0,0.0,0.0,0.0,0.0,0.0,0.0,0.0,0.0,0.0,0.0,0.0,0.0,0.0,0.0,0.0,0.0,0.0,0.0,0.0,0.0,0.0,0.0,0.0,0.0,0.0,0.0,0.0,0.0,0.0,0.0,0.0,0.0,0.0,0.0,0.0,0.0,0.0,0.0,0.0,0.0,0.0,0.0,0.0,0.0,0.0,0.0,0.0,0.0,0.0,0.0,0.0,0.0,0.0,0.0,0.0,0.0,0.0,0.0,0.0,0.0,0.0,0.0,0.0,0.0,0.0,0.0,0.0,0.0,0.0,0.0,0.0,0.0,0.0,0.0,0.0,0.0,0.0,0.0,0.0,0.0,0.0,0.0,0.0,0.0,0.0,0.0,0.0,0.0,0.0,0.0,0.0,0.0,0.0,0.0,0.0,0.0,0.0,0.0,0.0,0.0,0.0,0.0,0.0,0.0,0.0,0.0,0.0,0.0,0.0,0.0,0.0,0.0,0.0,0.0,0.0,0.0,0.0,0.0,0.0,0.0,0.0,0.0,0.0,0.0,0.0,0.0,0.0,0.0,0.0,0.0,0.0,0.0,0.0,0.0,0.0,0.0,0.0,0.0,0.0,0.0,0.0,0.0,0.0,0.0,0.0,0.0,0.0,0.0,0.0,0.0,0.0,0.0,0.0,0.0,0.0,0.0,0.0,0.0,0.0,0.0,0.0,0.0,0.0,0.0,0.0,0.0,0.0,0.0,0.0,0.0,0.0,0.0,0.0,0.0,0.0,0.0,0.0,0.0,0.0,0.0,0.0,0.0,0.0,0.0,0.0,0.0,0.0,0.0,0.0,0.0,0.0,0.0,0.0,0.0,0.0,0.0,0.0,0.0,0.0,0.0,0.0,0.0,0.0,0.0,0.0,0.0,0.0,0.0,0.0,0.0,0.0,0.0,0.0,0.0,0.0,0.0,0.0,0.0,0.0,0.0,0.0,0.0,0.0,0.0,0.0,0.0,0.0,0.0,0.0,0.0,0.0,0.0,0.0,0.0,0.0,0.0,0.0,0.0,0.0,0.0,0.0,0.0,0.0,0.0,0.0,0.0,0.0,0.0,0.0,0.0,0.0,0.0,0.0,0.0,0.0,0.0,0.0,0.0,0.0,0.0,0.0,0.0,0.0,0.0,0.0,0.0,0.0,0.0,0.0,0.0,0.0,0.0,0.0,0.0,0.0,0.0,0.0,0.0,0.0,0.0,0.0,0.0,0.0,0.0,0.0,0.0,0.0,0.0,0.0,0.0,0.0,0.0,0.0,0.0,0.0,0.0,0.0,0.0,0.0,0.0,0.0,0.0,0.0,0.0,0.0,0.0,0.0,0.0,0.0,0.0,0.0,0.0,0.0,0.0,0.0,0.0,0.0,0.0,0.0,0.0,0.0,0.0,0.0,0.0,0.0,0.0,0.0,0.0,0.0,0.0,0.0,0.0,0.0,0.0,0.0,0.0,0.0,0.0,0.0,0.0,0.0,0.0,0.0,0.0,0.0,0.0,0.0,0.0,0.0,0.0,0.0,0.0,0.0,0.0,0.0,0.0,0.0,0.0,0.0,0.0,0.0,0.0,0.0,0.0,0.0,0.0,0.0,0.0,0.0,0.0,0.0,0.0,0.0,0.0,0.0,0.0,0.0,0.0,0.0,0.0,0.0,0.0,0.0,0.0,0.0,0.0,0.0,0.0,0.0,0.0,0.0,0.0,0.0,0.0,0.0,0.0,0.0,0.0,0.0,0.0,0.0,0.0,0.0,0.0,0.0,0.0,0.0,0.0,0.0,0.0,0.0,0.0,-0.2235,0.0,0.0,0.0,-0.4906,0.0,0.0,0.0,0.0,0.0,0.0,0.0,0.0,0.0,0.0,0.0,0.0,0.0,0.0,0.0,0.0,0.0,0.0,0.0,0.0,0.0,0.0,0.0,0.0,0.0,0.0,0.0,0.0,0.0,0.0,0.0,0.0,0.0,0.0,0.0,0.0,0.0,0.0,0.0,0.0,0.0,0.0,0.0,0.0,0.0,0.0,0.0,0.0,0.0,0.0,0.0,0.0,0.0,0.0,0.0,0.0,0.0,0.0,0.0,0.0,0.0,0.0,0.0,0.0,0.0,0.0,0.0,0.0,0.0,0.0,0.0,0.0,0.0,0.0,0.0,0.0,0.0,0.0,0.0,0.0,0.0,0.0,0.0,0.0,0.0,0.0,0.0,0.0,0.0,0.0,0.0,0.0,0.0,0.0,0.0,0.0,0.0,0.0,0.0,0.0,0.0,0.0,0.0,0.0,0.0,0.0,0.0,0.0,0.0,0.0,-0.2607,-0.3599,-0.3046,-0.3459,-0.4943,0.0,0.0,0.0,0.0,0.0,0.0,0.0,0.0,0.0,0.0,0.0,0.0,0.0,0.0,0.0,0.0,0.0,0.0,0.0,0.0,0.0,0.0,0.0,0.0,0.0,0.0,0.0,0.0,0.0,0.0,0.0,0.0,0.0,0.0,0.0,0.0,0.0,0.0,0.0,0.0,0.0,0.0,0.0,0.0,0.0,0.0,0.0,0.0,0.0,0.0,0.0,0.0,0.0,0.0,0.0,0.0,0.0,0.0,0.0,0.0,0.0,0.0,0.0,0.0,0.0,0.0,0.0,0.0,0.0,0.0,0.0,0.0,0.0,0.0,0.0,0.0,0.0,0.0,0.0,0.0,0.0,0.0,0.0,0.0,0.0,0.0,0.0,0.0,0.0,0.0,0.0,0.0,0.0,0.0,0.0,0.0,0.0,0.0,0.0,0.0,0.0,0.0,0.0,0.0,0.0,0.0,0.0,0.0,0.0,0.0,0.0,0.0,-0.2959,-0.3147,-0.4429,0.0,0.0,0.0,0.0,0.0,0.0,0.0,0.0,0.0,0.0,0.0,0.0,0.0,0.0,0.0,0.0,0.0,0.0,0.0,0.0,0.0,0.0,0.0,0.0,0.0,0.0,0.0,0.0,0.0,0.0,0.0,0.0,0.0,0.0,0.0,0.0,0.0,0.0,0.0,0.0,0.0,0.0,0.0,0.0,0.0,0.0,0.0,0.0,0.0,0.0,0.0,0.0,0.0,0.0,0.0,0.0,0.0,0.0,0.0,0.0,0.0,0.0,0.0,0.0,0.0,0.0,0.0,0.0,0.0,0.0,0.0,0.0,0.0,0.0,0.0,0.0,0.0,0.0,0.0,0.0,0.0,0.0,0.0,0.0,0.0,0.0,0.0,0.0,0.0,0.0,0.0,0.0,0.0,0.0,0.0,0.0,0.0,0.0,0.0,0.0,0.0,0.0,0.0,0.0,0.0,0.0,0.0,0.0,0.0,0.0,-0.3585,-0.3027,-0.2675,0.0,-0.2999,0.0,0.0,0.0,0.0,0.0,0.0,0.0,0.0,0.0,0.0,0.0,0.0,0.0,0.0,0.0,0.0,0.0,0.0,0.0,0.0,0.0,0.0,0.0,0.0,0.0,0.0,0.0,0.0,0.0,0.0,0.0,0.0,0.0,0.0,0.0,0.0,0.0,0.0,0.0,0.0,0.0,0.0,0.0,0.0,0.0,0.0,0.0,0.0,0.0,0.0,0.0,0.0,0.0,0.0,0.0,0.0,0.0,0.0,0.0,0.0,0.0,0.0,0.0,0.0,0.0,0.0,0.0,0.0,0.0,0.0,0.0,0.0,0.0,0.0,0.0,0.0,0.0,0.0,0.0,0.0,0.0,0.0,0.0,0.0,0.0,0.0,0.0,0.0,0.0,0.0,0.0,0.0,0.0,0.0,0.0,0.0,0.0,0.0,0.0,0.0,0.0,0.0,0.0,0.0,0.0,0.0,0.0,0.0,0.0,0.0,-0.2599,-0.2898,-0.2446,-0.2419,0.0,0.0,0.0,0.0,0.0,0.0,0.0,0.0,0.0,0.0,0.0,0.0,0.0,0.0,0.0,0.0,0.0,0.0,0.0,0.0,0.0,0.0,0.0,0.0,0.0,0.0,0.0,0.0,0.0,0.0,0.0,0.0,0.0,0.0,0.0,0.0,0.0,0.0,0.0,0.0,0.0,0.0,0.0,0.0,0.0,0.0,0.0,0.0,0.0,0.0,0.0,0.0,0.0,0.0,0.0,0.0,0.0,0.0,0.0,0.0,0.0,0.0,0.0,0.0,0.0,0.0,0.0,0.0,0.0,0.0,0.0,0.0,0.0,0.0,0.0,0.0,0.0,0.0,0.0,0.0,0.0,0.0,0.0,0.0,0.0,0.0,0.0,0.0,0.0,0.0,0.0,0.0,0.0,0.0,0.0,0.0,0.0,0.0,0.0,0.0,0.0,0.0,0.0,0.0,0.0,0.0,0.0,0.0,0.0,0.0,-0.1708,-0.17,-0.2311,-0.1903,-0.1702,-0.1797,0.0,0.0,0.0,0.0,0.0,0.0,0.0,0.0,0.0,0.0,0.0,0.0,0.0,0.0,0.0,0.0,0.0,0.0,0.0,0.0,0.0,0.0,0.0,0.0,0.0,0.0,0.0,0.0,0.0,0.0,0.0,0.0,0.0,0.0,0.0,0.0,0.0,0.0,0.0,0.0,0.0,0.0,0.0,0.0,0.0,0.0,0.0,0.0,0.0,0.0,0.0,0.0,0.0,0.0,0.0,0.0,0.0,0.0,0.0,0.0,0.0,0.0,0.0,0.0,0.0,0.0,0.0,0.0,0.0,0.0,0.0,0.0,0.0,0.0,0.0,0.0,0.0,0.0,0.0,0.0,0.0,0.0,0.0,0.0,0.0,0.0,0.0,0.0,0.0,0.0,0.0,0.0,0.0,0.0,0.0,0.0,0.0,0.0,0.0,0.0,0.0,0.0,0.0,0.0,0.0,0.0,0.0,0.0,-0.1306,-0.1298,-0.1232,-0.1082,-0.0879,-0.0225,0.0,0.0,0.0,0.0,0.0,0.0,0.0,0.0,0.0,0.0,0.0,0.0,0.0,0.0,0.0,0.0,0.0,0.0,0.0,0.0,0.0,0.0,0.0,0.0,0.0,0.0,0.0,0.0,0.0,0.0,0.0,0.0,0.0,0.0,0.0,0.0,0.0,0.0,0.0,0.0,0.0,0.0,0.0,0.0,0.0,0.0,0.0,0.0,0.0,0.0,0.0,0.0,0.0,0.0,0.0,0.0,0.0,0.0,0.0,0.0,0.0,0.0,0.0,0.0,0.0,0.0,0.0,0.0,0.0,0.0,0.0,0.0,0.0,0.0,0.0,0.0,0.0,0.0,0.0,0.0,0.0,0.0,0.0,0.0,0.0,0.0,0.0,0.0,0.0,0.0,0.0,0.0,0.0,0.0,0.0,0.0,0.0,0.0,0.0,0.0,0.0,0.0,0.0,0.0,0.0,0.0,0.0,0.0,0.0,0.0236,0.0225,0.0215,0.0169,0.0473,0.0846,0.0,0.0,0.0,0.0,0.0,0.0,0.0,0.0,0.0,0.0,0.0,0.0,0.0,0.0,0.0,0.0,0.0,0.0,0.0,0.0,0.0,0.0,0.0,0.0,0.0,0.0,0.0,0.0,0.0,0.0,0.0,0.0,0.0,0.0,0.0,0.0,0.0,0.0,0.0,0.0,0.0,0.0,0.0,0.0,0.0,0.0,0.0,0.0,0.0,0.0,0.0,0.0,0.0,0.0,0.0,0.0,0.0,0.0,0.0,0.0,0.0,0.0,0.0,0.0,0.0,0.0,0.0,0.0,0.0,0.0,0.0,0.0,0.0,0.0,0.0,0.0,0.0,0.0,0.0,0.0,0.0,0.0,0.0,0.0,0.0,0.0,0.0,0.0,0.0,0.0,0.0,0.0,0.0,0.0,0.0,0.0,0.0,0.0,0.0,0.0,0.0,0.0,0.0,0.0,0.0,0.0,0.0,0.0,0.0,0.1163,0.1187,0.1017,0.0734,0.1349,0.1465,0.0,0.0,0.0,0.0,0.0,0.0,0.0,0.0,0.0,0.0,0.0,0.0,0.0,0.0,0.0,0.0,0.0,0.0,0.0,0.0,0.0,0.0,0.0,0.0,0.0,0.0,0.0,0.0,0.0,0.0,0.0,0.0,0.0,0.0,0.0,0.0,0.0,0.0,0.0,0.0,0.0,0.0,0.0,0.0,0.0,0.0,0.0,0.0,0.0,0.0,0.0,0.0,0.0,0.0,0.0,0.0,0.0,0.0,0.0,0.0,0.0,0.0,0.0,0.0,0.0,0.0,0.0,0.0,0.0,0.0,0.0,0.0,0.0,0.0,0.0,0.0,0.0,0.0,0.0,0.0,0.0,0.0,0.0,0.0,0.0,0.0,0.0,0.0,0.0,0.0,0.0,0.0,0.0,0.0,0.0,0.0,0.0,0.0,0.0,0.0,0.0,0.0,0.0,0.0,0.0,0.0,0.0,0.0,0.1539,0.141,0.1355,0.1125,0.059,0.1626,0.153,0.0,0.0,0.0,0.0,0.0,0.0,0.0,0.0,0.0,0.0,0.0,0.0,0.0,0.0,0.0,0.0,0.0,0.0,0.0,0.0,0.0,0.0,0.0,0.0,0.0,0.0,0.0,0.0,0.0,0.0,0.0,0.0,0.0,0.0,0.0,0.0,0.0,0.0,0.0,0.0,0.0,0.0,0.0,0.0,0.0,0.0,0.0,0.0,0.0,0.0,0.0,0.0,0.0,0.0,0.0,0.0,0.0,0.0,0.0,0.0,0.0,0.0,0.0,0.0,0.0,0.0,0.0,0.0,0.0,0.0,0.0,0.0,0.0,0.0,0.0,0.0,0.0,0.0,0.0,0.0,0.0,0.0,0.0,0.0,0.0,0.0,0.0,0.0,0.0,0.0,0.0,0.0,0.0,0.0,0.0,0.0,0.0,0.0,0.0,0.0,0.0,0.0,0.0,0.0,0.0,0.0,0.0,0.0,0.0,0.2025,0.2316,0.2284,0.188,0.113,0.0651,0.0,0.0,0.0,0.0,0.0,0.0,0.0,0.0,0.0,0.0,0.0,0.0,0.0,0.0,0.0,0.0,0.0,0.0,0.0,0.0,0.0,0.0,0.0,0.0,0.0,0.0,0.0,0.0,0.0,0.0,0.0,0.0,0.0,0.0,0.0,0.0,0.0,0.0,0.0,0.0,0.0,0.0,0.0,0.0,0.0,0.0,0.0,0.0,0.0,0.0,0.0,0.0,0.0,0.0,0.0,0.0,0.0,0.0,0.0,0.0,0.0,0.0,0.0,0.0,0.0,0.0,0.0,0.0,0.0,0.0,0.0,0.0,0.0,0.0,0.0,0.0,0.0,0.0,0.0,0.0,0.0,0.0,0.0,0.0,0.0,0.0,0.0,0.0,0.0,0.0,0.0,0.0,0.0,0.0,0.0,0.0,0.0,0.0,0.0,0.0,0.0,0.0,0.0,0.0,0.0,0.0,0.0,0.0,0.0,0.2895,0.3182,0.3184,0.2863,0.1678,0.0844,0.044,0.0,0.0,0.0,0.0,0.0,0.0,0.0,0.0,0.0,0.0,0.0,0.0,0.0,0.0,0.0,0.0,0.0,0.0,0.0,0.0,0.0,0.0,0.0,0.0,0.0,0.0,0.0,0.0,0.0,0.0,0.0,0.0,0.0,0.0,0.0,0.0,0.0,0.0,0.0,0.0,0.0,0.0,0.0,0.0,0.0,0.0,0.0,0.0,0.0,0.0,0.0,0.0,0.0,0.0,0.0,0.0,0.0,0.0,0.0,0.0,0.0,0.0,0.0,0.0,0.0,0.0,0.0,0.0,0.0,0.0,0.0,0.0,0.0,0.0,0.0,0.0,0.0,0.0,0.0,0.0,0.0,0.0,0.0,0.0,0.0,0.0,0.0,0.0,0.0,0.0,0.0,0.0,0.0,0.0,0.0,0.0,0.0,0.0,0.0,0.0,0.0,0.0,0.0,0.0,0.0,0.0,0.0,0.0,0.3915,0.3941,0.3841,0.352,0.3057,0.1989,0.0,0.0,0.0,0.0,0.0,0.0,0.0,0.0,0.0,0.0,0.0,0.0,0.0,0.0,0.0,0.0,0.0,0.0,0.0,0.0,0.0,0.0,0.0,0.0,0.0,0.0,0.0,0.0,0.0,0.0,0.0,0.0,0.0,0.0,0.0,0.0,0.0,0.0,0.0,0.0,0.0,0.0,0.0,0.0,0.0,0.0,0.0,0.0,0.0,0.0,0.0,0.0,0.0,0.0,0.0,0.0,0.0,0.0,0.0,0.0,0.0,0.0,0.0,0.0,0.0,0.0,0.0,0.0,0.0,0.0,0.0,0.0,0.0,0.0,0.0,0.0,0.0,0.0,0.0,0.0,0.0,0.0,0.0,0.0,0.0,0.0,0.0,0.0,0.0,0.0,0.0,0.0,0.0,0.0,0.0,0.0,0.0,0.0,0.0,0.0,0.0,0.0,0.0,0.0,0.0,0.0,0.0,0.0,0.0,0.503,0.5082,0.4684,0.3901,0.346,0.2802,0.0,0.0,0.0,0.0,0.0,0.0,0.0,0.0,0.0,0.0,0.0,0.0,0.0,0.0,0.0,0.0,0.0,0.0,0.0,0.0,0.0,0.0,0.0,0.0,0.0,0.0,0.0,0.0,0.0,0.0,0.0,0.0,0.0,0.0,0.0,0.0,0.0,0.0,0.0,0.0,0.0,0.0,0.0,0.0,0.0,0.0,0.0,0.0,0.0,0.0,0.0,0.0,0.0,0.0,0.0,0.0,0.0,0.0,0.0,0.0,0.0,0.0,0.0,0.0,0.0,0.0,0.0,0.0,0.0,0.0,0.0,0.0,0.0,0.0,0.0,0.0,0.0,0.0,0.0,0.0,0.0,0.0,0.0,0.0,0.0,0.0,0.0,0.0,0.0,0.0,0.0,0.0,0.0,0.0,0.0,0.0,0.0,0.0,0.0,0.0,0.0,0.0,0.0,0.0,0.0,0.0,0.0,0.0,0.4939,0.5495,0.593,0.5712,0.4867,0.4322,0.3602,0.0,0.0,0.0,0.0,0.0,0.0,0.0,0.0,0.0,0.0,0.0,0.0,0.0,0.0,0.0,0.0,0.0,0.0,0.0,0.0,0.0,0.0,0.0,0.0,0.0,0.0,0.0,0.0,0.0,0.0,0.0,0.0,0.0,0.0,0.0,0.0,0.0,0.0,0.0,0.0,0.0,0.0,0.0,0.0,0.0,0.0,0.0,0.0,0.0,0.0,0.0,0.0,0.0,0.0,0.0,0.0,0.0,0.0,0.0,0.0,0.0,0.0,0.0,0.0,0.0,0.0,0.0,0.0,0.0,0.0,0.0,0.0,0.0,0.0,0.0,0.0,0.0,0.0,0.0,0.0,0.0,0.0,0.0,0.0,0.0,0.0,0.0,0.0,0.0,0.0,0.0,0.0,0.0,0.0,0.0,0.0,0.0,0.0,0.0,0.0,0.0,0.0,0.0,0.0,0.0,0.0,0.0,0.0,0.5087,0.5573,0.6479,0.6676,0.6052,0.5325,0.4389,0.0,0.0,0.0,0.0,0.0,0.0,0.0,0.0,0.0,0.0,0.0,0.0,0.0,0.0,0.0,0.0,0.0,0.0,0.0,0.0,0.0,0.0,0.0,0.0,0.0,0.0,0.0,0.0,0.0,0.0,0.0,0.0,0.0,0.0,0.0,0.0,0.0,0.0,0.0,0.0,0.0,0.0,0.0,0.0,0.0,0.0,0.0,0.0,0.0,0.0,0.0,0.0,0.0,0.0,0.0,0.0,0.0,0.0,0.0,0.0,0.0,0.0,0.0,0.0,0.0,0.0,0.0,0.0,0.0,0.0,0.0,0.0,0.0,0.0,0.0,0.0,0.0,0.0,0.0,0.0,0.0,0.0,0.0,0.0,0.0,0.0,0.0,0.0,0.0,0.0,0.0,0.0,0.0,0.0,0.0,0.0,0.0,0.0,0.0,0.0,0.0,0.0,0.0,0.0,0.0,0.0,0.0,0.0,0.5438,0.6015,0.6465,0.6562,0.6245,0.5611,0.4835,0.0,0.0,0.0,0.0,0.0,0.0,0.0,0.0,0.0,0.0,0.0,0.0,0.0,0.0,0.0,0.0,0.0,0.0,0.0,0.0,0.0,0.0,0.0,0.0,0.0,0.0,0.0,0.0,0.0,0.0,0.0,0.0,0.0,0.0,0.0,0.0,0.0,0.0,0.0,0.0,0.0,0.0,0.0,0.0,0.0,0.0,0.0,0.0,0.3617,0.0,0.0,0.0,0.0,0.0,0.0,0.0,0.0,0.0,0.0,0.0,0.0,0.0,0.0,0.0,0.0,0.0,0.0,0.0,0.0,0.0,0.0,0.0,0.0,0.0,0.0,0.0,0.0,0.0,0.0,0.0,0.0,0.0,0.0,0.0,0.0,0.0,0.0,0.0,0.0,0.0,0.0,0.0,0.0,0.0,0.0,0.0,0.0,0.0,0.0,0.0,0.0,0.0,0.0,0.0,0.0,0.0,0.0,0.0,0.5548,0.6317,0.6585,0.6732,0.67,0.5948,0.5097,0.0,0.0,0.0,0.0,0.0,0.0,0.0,0.0,0.0,0.0,0.0,0.0,0.0,0.0,0.0,0.0,0.0,0.0,0.0,0.0,0.0,0.0,0.0,0.0,0.0,0.0,0.0,0.0,0.0,0.0,0.0,0.0,0.0,0.0,0.0,0.0,0.0,0.0,0.0,0.0,0.0,0.0,0.0,0.0,0.0,0.0,0.0,0.0,0.0,0.0,0.0,0.0,0.0,0.0,0.0,0.0,0.0,0.0,0.0,0.0,0.0,0.0,0.0,0.0,0.0,0.0,0.0,0.0,0.0,0.0,0.0,0.0,0.0,0.0,0.0,0.0,0.0,0.0,0.0,0.0,0.0,0.0,0.0,0.0,0.0,0.0,0.0,0.0,0.0,0.0,0.0,0.0,0.0,0.0,0.0,0.0,0.0,0.0,0.0,0.0,0.0,0.0,0.0,0.0,0.0,0.0,0.0,0.4952,0.5655,0.6527,0.6864,0.7045,0.7041,0.6172,0.5294,0.4482,0.0,0.0,0.0,0.0,0.0,0.0,0.0,0.0,0.0,0.0,0.0,0.0,0.0,0.0,0.0,0.0,0.0,0.0,0.0,0.0,0.0,0.0,0.0,0.0,0.0,0.0,0.0,0.0,0.0,0.0,0.0,0.0,0.0,0.0,0.0,0.0,0.0,0.0,0.5727,0.6253,0.0,0.0,0.0,0.0,0.0,0.0,0.0,0.0,0.676,0.0,0.0,0.0,0.0,0.0,0.0,0.0,0.0,0.0,0.0,0.0,0.0,0.0,0.0,0.0,0.0,0.0,0.0,0.0,0.0,0.0,0.0,0.0,0.0,0.0,0.0,0.0,0.0,0.0,0.0,0.0,0.0,0.0,0.0,0.0,0.0,0.0,0.0,0.0,0.0,0.0,0.0,0.0,0.0,0.0,0.0,0.0,0.0,0.0,0.0,0.0,0.0,0.0,0.0,0.0,0.0,0.5119,0.5491,0.6065,0.6789,0.7321,0.7187,0.6398,0.6194,0.5483,0.4265,0.0,0.0,0.0,0.0,0.0,0.0,0.0,0.0,0.0,0.0,0.0,0.0,0.0,0.0,0.0,0.0,0.0,0.0,0.0,0.0,0.0,0.0,0.0,0.0,0.0,0.0,0.0,0.0,0.0,0.0,0.0,0.0,0.0,0.0,0.0,0.0,0.0,0.0,0.0,1.0085,1.0846,0.0,0.0,0.0,0.0,0.0,0.0,0.0,0.0,0.7569,0.0,0.0,0.0,0.0,0.0,0.0,0.0,0.0,0.0,0.0,0.0,0.0,0.0,0.0,0.0,0.0,0.0,0.0,0.0,0.0,0.0,0.0,0.0,0.0,0.0,0.0,0.0,0.0,0.0,0.0,0.0,0.0,0.0,0.0,0.0,0.0,0.0,0.0,0.0,0.0,0.0,0.0,0.0,0.0,0.0,0.0,0.0,0.0,0.0,0.0,0.0,0.0,0.0,0.0,0.0,0.4862,0.5976,0.6859,0.7537,0.7641,0.7595,0.7385,0.6459,0.5529,0.0,0.0,0.0,0.0,0.0,0.0,0.0,0.0,0.0,0.0,0.0,0.0,0.0,0.0,0.0,0.0,0.0,0.0,0.0,0.0,0.0,0.0,0.0,0.0,0.0,0.0,0.0,0.0,0.0,0.0,0.0,0.0,0.0,0.0,0.0,0.0,0.0,0.0,0.0,0.0,1.1121,1.2095,1.203,0.0,0.0,0.0,0.0,0.0,0.0,0.8771,0.8944,0.0,0.0,0.0,0.0,0.0,0.0,0.0,0.0,0.0,0.0,0.0,0.0,0.0,0.0,0.0,0.0,0.0,0.0,0.0,0.0,0.0,0.0,0.0,0.0,0.0,0.0,0.0,0.0,0.0,0.0,0.0,0.0,0.0,0.0,0.0,0.0,0.0,0.0,0.0,0.0,0.0,0.0,0.0,0.0,0.0,0.0,0.0,0.0,0.0,0.0,0.0,0.0,0.0,0.0,0.0,0.4513,0.6233,0.7458,0.8118,0.8126,0.818,0.8414,0.7082,0.5965,0.0,0.0,0.0,0.0,0.0,0.0,0.0,0.0,0.0,0.0,0.0,0.0,0.0,0.0,0.0,0.0,0.0,0.0,0.0,0.0,0.0,0.0,0.0,0.0,0.0,0.0,0.0,0.0,0.0,0.0,0.0,0.0,0.0,0.0,0.0,0.0,0.0,0.0,0.0,0.0,0.0,1.2935,1.3513,1.0166,0.0,0.0,0.0,0.0,1.0779,1.1036,0.0,0.0,0.0,0.0,0.0,0.0,0.0,0.0,0.0,0.0,0.0,0.0,0.0,0.0,0.0,0.0,0.0,0.0,0.0,0.0,0.0,0.0,0.0,0.0,0.0,0.0,0.0,0.0,0.0,0.0,0.0,0.0,0.0,0.0,0.0,0.0,0.0,0.0,0.0,0.0,0.0,0.0,0.0,0.0,0.0,0.0,0.0,0.0,0.0,0.0,0.0,0.0,0.0,0.0,0.0,0.0,0.4423,0.6072,0.7291,0.8031,0.8888,0.9041,0.8287,0.8289,0.7296,0.0,0.0,0.0,0.0,0.0,0.0,0.0,0.0,0.0,0.0,0.0,0.0,0.0,0.0,0.0,0.0,0.0,0.0,0.0,0.0,0.0,0.0,0.0,0.0,0.0,0.0,0.0,0.0,0.0,0.0,0.0,0.0,0.0,0.0,0.0,0.0,0.0,0.0,0.0,0.0,0.0,1.4585,1.3207,1.1212,1.0388,0.0,0.0,1.1431,1.4279,1.127,0.0,0.0,0.0,0.0,0.0,0.0,0.0,0.0,0.0,0.0,0.0,0.0,0.0,0.0,0.0,0.0,0.0,0.0,0.0,0.0,0.0,0.0,0.0,0.0,0.0,0.0,0.0,0.0,0.0,0.0,0.0,0.0,0.0,0.0,0.0,0.0,0.0,0.0,0.0,0.0,0.0,0.0,0.0,0.0,0.0,0.0,0.0,0.0,0.0,0.0,0.0,0.0,0.0,0.0,0.0,0.4057,0.5044,0.6803,0.8143,0.8891,0.9358,0.9423,0.8998,0.8799,0.7687,0.0,0.0,0.0,0.0,0.0,0.0,0.0,0.0,0.0,0.0,0.0,0.0,0.0,0.0,0.0,0.0,0.0,0.0,0.0,0.0,0.0,0.0,0.0,0.0,0.0,0.0,0.0,0.0,0.0,0.0,0.0,0.0,0.0,0.0,0.0,0.0,0.0,0.0,0.0,0.0,0.0,0.0,1.3141,1.1939,0.0,0.0,0.0,1.3197,1.4256,0.0,0.0,0.0,0.0,0.0,0.0,0.0,0.0,0.0,0.0,0.0,0.0,0.0,0.0,0.0,0.0,0.0,0.0,0.0,0.0,0.0,0.0,0.0,0.0,0.0,0.0,0.0,0.0,0.0,0.0,0.0,0.0,0.0,0.0,0.0,0.0,0.0,0.0,0.0,0.0,0.0,0.0,0.0,0.0,0.0,0.0,0.0,0.0,0.0,0.0,0.0,0.0,0.0,0.0,0.0,0.0,0.0,0.5208,0.7321,0.8679,0.9256,0.951,0.9614,0.9599,0.9074,0.0,0.0,0.0,0.0,0.0,0.0,0.0,0.0,0.0,0.0,0.0,0.0,0.0,0.0,0.0,0.0,0.0,0.0,0.0,0.0,0.0,0.0,0.0,0.0,0.0,0.0,0.0,0.2657,0.0,0.0,0.0,0.0,0.0,0.0,0.0,0.0,0.0,0.0,0.0,0.0,0.0,0.0,1.2193,1.3339,1.3064,1.3127,0.0,0.0,1.5018,1.4967,1.7705,1.8095,0.0,0.0,0.0,0.0,0.0,0.0,0.0,0.0,0.0,0.0,0.0,0.0,0.0,0.0,0.0,0.0,0.0,0.0,0.0,0.0,0.0,0.0,0.0,0.0,0.0,0.0,0.0,0.0,0.0,0.0,0.0,0.0,0.0,0.0,0.0,0.0,0.0,0.0,0.0,0.0,0.0,0.0,0.0,0.0,0.0,0.0,0.0,0.0,0.0,0.0,0.0,0.0,0.0,0.0,0.3288,0.4416,0.704,0.8421,0.8527,0.9197,0.9614,0.9607,0.922,0.8005,0.0,0.0,0.0,0.0,0.0,0.0,0.0,0.0,0.0,0.0,0.0,0.0,0.0,0.0,0.0,0.0,0.0,0.0,0.0,0.0,0.0,0.0,0.0,0.0,0.0,0.0,0.0,0.0,0.0,0.0,0.0,0.0,0.0,0.0,0.0,0.0,0.0,0.0,0.0,0.0,0.0,1.3377,1.3728,1.5095,1.6023,0.0,1.6072,1.6693,1.814,1.9847,1.8912,1.2678,0.0,0.0,0.0,0.0,0.0,0.0,0.0,0.0,0.0,0.0,0.0,0.0,0.0,0.0,0.0,0.0,0.0,0.0,0.0,0.0,0.0,0.0,0.0,0.0,0.0,0.0,0.0,0.0,0.0,0.0,0.0,0.0,0.0,0.0,0.0,0.0,0.0,0.0,0.0,0.0,0.0,0.0,0.0,0.0,0.0,0.0,0.0,0.0,0.0,0.0,0.0,0.0,0.0,0.3933,0.5049,0.704,0.8408,0.9099,0.9458,0.9614,0.9614,0.9213,0.828,0.0,0.0,0.0,0.0,0.0,0.0,0.0,0.0,0.0,0.0,0.0,0.0,0.0,0.0,0.0,0.0,0.0,0.0,0.0,0.0,0.0,0.0,0.0,0.0,0.0,0.0,0.0,0.0,0.7205,0.8001,0.95,0.0,0.0,0.0,0.0,0.0,0.0,0.0,0.0,0.0,0.0,1.3533,1.1265,1.4134,0.0,0.0,1.7599,1.7918,1.9283,2.0918,2.0438,1.5851,1.2395,0.0,0.0,0.0,0.0,0.0,0.0,0.0,0.0,0.0,0.0,0.0,0.0,0.0,0.0,0.0,0.0,0.0,0.0,0.0,0.0,0.0,0.0,0.0,0.0,0.0,0.0,0.0,0.0,0.0,0.0,0.0,0.0,0.0,0.0,0.0,0.0,0.0,0.0,0.0,0.0,0.0,0.0,0.0,0.0,0.0,0.0,0.0,0.0,0.0,0.0,0.0,0.0,0.431,0.5385,0.7152,0.853,0.9549,0.9802,0.9907,0.9899,0.9642,0.8929,0.0,0.0,0.0,0.0,0.0,0.0,0.0,0.0,0.0,0.0,0.0,0.0,0.0,0.0,0.0,0.0,0.0,0.0,0.0,0.0,0.0,0.0,0.0,0.0,0.0,0.0,0.0,0.0,0.6245,0.6521,1.0525,0.0,0.0,0.0,0.0,0.0,0.0,0.0,0.0,0.0,0.0,1.3974,1.1306,1.4272,1.7055,1.7751,1.7276,1.7341,1.8932,2.0678,2.0741,1.7646,0.0,0.0,0.0,0.0,0.0,0.0,0.0,0.0,0.0,0.0,0.0,0.0,0.0,0.0,0.0,0.0,0.0,0.0,0.0,0.0,0.0,0.0,0.0,0.0,0.0,0.0,0.0,0.0,0.0,0.0,0.0,0.0,0.0,0.0,0.0,0.0,0.0,0.0,0.0,0.0,0.0,0.0,0.0,0.0,0.0,0.0,0.0,0.0,0.0,0.0,0.0,0.0,0.0,0.4029,0.5219,0.734,0.8775,0.9515,1.0243,1.0543,1.0543,1.055,0.9958,0.8699,0.0,0.0,0.0,0.0,0.0,0.0,0.0,0.0,0.0,0.0,0.0,0.0,0.0,0.0,0.0,0.0,0.0,0.0,0.0,0.0,0.0,0.0,0.0,0.0,0.0,0.0,0.3687,0.4929,0.644,0.0,0.0,0.0,0.0,0.0,0.0,0.0,0.0,0.0,1.4224,1.4879,1.4929,1.4921,1.6219,1.6809,1.5774,1.4696,1.4751,1.6952,1.8917,1.9461,0.0,0.0,0.0,0.0,0.0,0.0,0.0,0.0,0.0,0.0,0.0,0.0,0.0,0.0,0.0,0.0,0.0,0.0,0.0,0.0,0.0,0.0,0.0,0.0,0.0,0.0,0.0,0.0289,0.0,0.0,0.0,0.0,0.0,0.0,0.0,0.0,0.0,0.0,0.0,0.0,0.4088,0.5529,0.0,0.0,0.0,0.0,0.0,0.0,0.0,0.0,0.0,0.0,0.0,0.0,0.4784,0.6158,0.8117,0.9512,1.0208,1.0479,1.058,1.058,1.058,1.0463,1.0163,0.0,0.0,0.0,0.0,0.0,0.0,0.0,0.0,0.0,0.0,0.0,0.0,0.0,0.0,0.0,0.0,0.0,0.0,0.0,0.0,0.0,0.0,0.0,0.0,0.0,0.4624,0.0,0.0,0.0,0.0,0.0,0.0,0.0,0.0,0.0,0.0,0.0,1.2766,1.6573,1.6286,1.5533,1.5142,1.6164,1.7086,0.0,0.0,0.0,0.0,0.0,0.0,0.0,0.0,0.0,0.0,0.0,0.0,0.0,0.0,1.6354,1.3431,1.0945,0.9532,1.0362,0.0,0.0,0.0,0.0,0.0,0.0,0.0,0.0,0.0,0.0,0.0,0.0,0.0,0.0,0.0463,0.0,0.008,0.0,0.0,0.0,0.0,0.0,0.0,0.0,0.0,0.5159,0.5305,0.4518,0.6174,0.6173,0.0,0.5717,0.5213,0.0,0.0,0.0,0.0,0.0,0.0,0.0,0.0,0.5253,0.6725,0.8336,0.9505,1.0224,1.0616,1.0805,1.0865,1.0924,1.0938,1.0967,0.9994,0.932,0.0,0.0,0.0,0.0,0.0,0.0,0.0,0.0,0.0,0.0,0.0,0.0,0.0,0.0,0.0,0.0,0.0,0.0,0.0,0.0,0.0,0.0,0.0,0.5244,0.0,0.0,0.0,0.0,0.0,0.0,0.0,0.0,0.0,1.0313,1.2066,1.4316,1.6761,1.6573,1.6003,1.5223,0.0,0.0,0.0,0.0,0.0,0.0,0.0,1.3828,1.5721,1.8057,1.8576,1.5269,1.4854,1.6269,2.0302,0.0,0.0,1.936,1.7211,1.5726,1.6135,1.5511,1.4907,1.4656,1.5426,1.6227,0.0,0.0,0.0,0.0,0.0,0.0,0.0,0.0,0.0343,0.0519,0.0,0.0232,0.0,0.0,0.0,0.0,0.0,0.4147,0.0,0.0,0.6493,0.6677,0.5993,0.6406,0.6482,0.6269,0.5869,0.5471,0.5075,0.5287,0.0,0.0,0.0,0.0,0.0,0.0,0.541,0.6912,0.804,0.8868,0.9614,1.0622,1.1226,1.1288,1.1483,1.1468,1.113,1.0043,1.0202,1.1882,0.6265,0.0,0.0,0.0,0.0,0.0,0.0,0.0,0.0,0.0,0.0,0.0,0.0,0.0,0.0,0.0,0.0,0.0,0.0,0.0,0.0,0.7148,0.0,0.0,0.0,0.0,0.0,0.0,0.0,0.0,0.0,0.0,1.7363,1.5808,1.458,1.4959,0.0,0.0,0.0,0.0,1.5043,1.4643,1.3468,1.3302,1.4878,1.3494,1.3973,1.9039,0.0,0.0,2.1741,2.2072,2.1959,2.2203,2.171,2.1161,2.0555,2.0358,2.0611,2.1664,2.1707,2.1046,1.8616,1.9051,2.0175,-0.0041,0.0,0.0,0.0,0.0,0.0636,0.0689,0.0555,0.0646,0.0621,0.0549,0.0405,0.0,0.0,0.0,0.0,0.0,0.0,0.3621,0.4696,0.5453,0.5759,0.5739,0.6889,0.7021,0.6292,0.7169,0.6791,0.5359,0.6583,0.5354,0.1767,0.0,0.0,0.0,0.0,0.6439,0.7719,0.8936,0.9901,1.0608,1.094,1.1178,1.1303,1.149,1.1578,1.1483,1.113,1.0654,1.0148,1.0325,0.0,0.0,0.0,0.0,0.0,0.0,0.0,0.0,0.0,0.0,0.0,0.0,0.0,0.0,0.0,0.0,0.0,0.0,0.0,0.4961,0.6337,0.7627,0.0,0.0,0.0,0.0,0.0,0.0,0.0,0.0,0.0,1.5326,1.5487,1.4844,0.0,0.0,1.4901,1.3191,1.5314,1.689,1.6332,1.669,0.0,1.8226,1.6898,1.652,1.8864,1.949,1.9857,2.0319,2.1397,2.217,2.2184,2.2044,2.1861,2.1721,2.1678,2.1777,2.21,2.217,2.1945,2.1173,2.1678,2.2283,-0.0,-0.0,-0.0,0.008,0.0258,0.0755,0.0906,0.0876,0.0857,0.083,0.0714,0.0705,0.0657,0.0668,0.1036,0.0,0.0,0.0,0.3624,0.4622,0.511,0.5475,0.577,0.6696,0.688,0.6318,0.7103,0.6885,0.5756,0.6741,0.5987,0.3637,0.0,0.0,0.4685,0.5472,0.6509,0.7648,0.8819,0.9646,1.0028,1.0415,1.0793,1.1233,1.1178,1.1233,1.156,1.1622,1.1294,1.0592,1.1964,1.1234,0.0,0.0,0.0,0.0,0.0,0.0,0.0,0.0,0.0,0.0,0.0,0.783,0.9999,0.0,0.0,0.0,0.6273,0.8723,0.8309,0.8797,0.0,0.0,0.0,0.0,0.0,0.0,0.0,1.5303,1.4915,1.4529,1.4994,1.5854,1.5831,1.4362,1.4017,1.3845,1.3707,0.0,1.7376,1.74,1.8022,1.8571,1.8845,1.8345,1.8257,1.942,2.0014,2.0351,2.0438,2.1805,2.2887,2.2929,2.2818,2.2616,2.2283,2.217,2.217,2.2198,2.2653,2.2845,2.2606,2.3041,2.3477,-0.0,-0.0,-0.0,-0.0,-0.0,0.0701,0.1024,0.111,0.1049,0.1033,0.1008,0.1037,0.0913,0.0882,0.1682,0.0,0.2995,0.3738,0.4454,0.5145,0.5283,0.5549,0.5885,0.6083,0.6284,0.6412,0.6083,0.6091,0.6367,0.622,0.6196,0.6375,0.6076,0.5863,0.5741,0.5482,0.5918,0.7005,0.7963,0.8404,0.8484,0.9326,1.0218,1.1101,1.0654,1.0787,1.156,1.1622,1.1856,1.2397,1.1926,1.265,1.4876,0.0,0.0,0.0,0.0,0.0,0.0,0.0,0.0,0.0,0.0,0.0,0.0,0.0,0.0,0.5062,0.7852,0.0,1.4366,1.2931,0.0,0.0,0.0,0.9971,1.2181,1.2905,1.4115,1.6344,0.0,0.0,1.621,1.6738,1.7209,1.7404,1.4612,1.3317,1.5602,1.6397,1.7105,1.7876,1.8007,1.7944,1.8069,1.8605,1.9577,2.0646,2.1099,2.1299,2.1599,2.2967,2.4007,2.4193,2.3868,2.3312,2.244,2.2362,2.2414,2.2564,2.3322,2.3906,2.335,2.3737,2.4174,-0.0,-0.0,-0.0,-0.0,-0.0,0.0418,0.0786,0.1049,0.0988,0.0984,0.0978,0.0986,0.0982,0.097,0.122,0.1978,0.3153,0.3364,0.4134,0.5301,0.5373,0.5592,0.5888,0.5954,0.6086,0.6346,0.6335,0.6335,0.6408,0.6351,0.6237,0.6021,0.6083,0.5819,0.5147,0.5559,0.6194,0.7135,0.7375,0.7858,0.8484,0.9326,0.9964,1.0275,1.0787,1.124,1.156,1.1622,1.1685,1.1802,1.1677,1.1864,1.2435,0.9826,0.0,0.0,0.0,0.0,0.0,0.0,0.0,0.0,0.0,1.0327,1.4592,0.0,0.9327,0.0,0.7128,1.0922,1.1768,1.2337,0.0,0.0,1.0661,1.1371,1.467,1.4435,1.4622,1.6375,1.648,1.653,1.6837,1.6985,1.7294,1.784,1.6795,1.5521,1.4522,1.6691,1.8324,1.823,1.8946,1.951,1.9384,2.0309,2.1302,2.189,2.1417,2.1302,2.2463,2.3824,2.4915,2.528,2.441,2.3537,2.3026,2.3289,2.3983,2.4713,2.4582,2.4075,2.392,2.4371,2.4769,-0.0135,-0.0,-0.0,0.0199,0.0514,0.0514,0.0707,0.1029,0.1029,0.1028,0.1091,0.1347,0.1295,0.1118,0.1734,0.248,0.3218,0.3551,0.4287,0.5359,0.5425,0.5624,0.5892,0.602,0.6152,0.642,0.642,0.642,0.642,0.642,0.6298,0.6133,0.6201,0.6039,0.5497,0.5726,0.6073,0.6504,0.6979,0.7613,0.8479,0.9,0.9283,0.9185,1.0134,1.0583,1.0528,1.0909,1.099,1.0593,1.1233,1.1747,1.1958,1.0305,1.0177,0.0,0.0,0.0,0.0,0.0,0.0,0.0,0.0,0.0,0.0,0.0,1.2773,0.6639,1.0505,1.2803,1.1447,1.2741,1.3684,1.3668,1.3189,1.396,1.6671,1.6232,1.6165,1.7128,1.7251,1.7311,1.7535,1.7535,1.7661,1.8038,1.8024,1.7369,1.613,1.7653,1.8978,1.8884,1.9551,2.0196,2.0271,2.172,2.257,2.1888,2.1174,2.116,2.2565,2.3777,2.4892,2.5632,2.5171,2.4498,2.4163,2.4271,2.4815,2.5488,2.5359,2.4826,2.4582,2.5005,2.5388,-0.0337,-0.0,-0.0,0.0405,0.0945,0.0674,0.0742,0.108,0.108,0.1078,0.1143,0.1745,0.1678,0.121,0.248,0.3149,0.3215,0.3951,0.4688,0.5428,0.5554,0.5686,0.5954,0.6148,0.6284,0.642,0.642,0.642,0.642,0.642,0.6404,0.6384,0.6379,0.6282,0.6145,0.5949,0.5807,0.5653,0.6531,0.7394,0.8095,0.8381,0.8383,0.811,0.9234,0.9738,0.9438,1.0148,1.0262,0.9533,1.0561,1.1361,1.1886,1.2247,1.2171,0.0,1.0163,0.0,0.0,0.0,0.0,0.0,0.0,0.0,0.0,1.4238,1.4892,1.315,1.5079,1.5287,1.2627,1.3838,1.5091,1.5956,1.6138,1.6677,1.7841,1.7867,1.7923,1.8221,1.8221,1.8244,1.8347,1.8347,1.8324,1.8187,1.8621,1.8816,1.8609,1.8896,1.9425,1.9792,1.9889,2.0148,2.0846,2.2414,2.3007,2.1463,2.1354,2.1445,2.2321,2.323,2.4274,2.5439,2.5783,2.5728,2.5453,2.5147,2.5203,2.577,2.5837,2.564,2.5275,2.5472,2.5865,-0.0337,-0.0,-0.0,0.0067,0.027,0.0742,0.1012,0.108,0.108,0.1078,0.1076,0.121,0.121,0.1143,0.1946,0.2614,0.3215,0.3951,0.4752,0.555,0.5617,0.5815,0.6148,0.6148,0.6284,0.642,0.642,0.642,0.642,0.642,0.6343,0.6197,0.6197,0.6034,0.5738,0.0,0.0,0.0,0.5868,0.5956,0.6162,0.7203,0.7741,0.7824,0.9329,0.0,1.0346,1.0499,1.0514,1.035,0.9305,0.0,0.0,0.0,0.0,0.0,0.0,0.0,0.0,0.0,0.0,0.0,0.974,0.9083,1.1041,1.3579,1.495,1.4569,1.5652,1.6146,1.5587,1.5815,1.613,1.629,1.6849,1.7291,1.7434,1.8002,1.8521,1.892,1.8988,1.9183,1.9631,1.9828,1.9333,1.837,1.8954,1.9803,2.0458,1.9975,1.9941,2.0692,2.028,2.018,2.0981,2.1518,2.1961,2.1872,2.2847,2.3106,2.2621,2.2492,2.3185,2.4878,2.555,2.5879,2.5784,2.5384,2.523,2.5784,2.5893,2.5851,2.5753,2.5809,2.5893,-0.0472,-0.0,-0.0,-0.0,0.0,0.0607,0.0877,0.0809,0.1012,0.1078,0.1144,0.1813,0.1746,0.1143,0.2547,0.3215,0.3218,0.3954,0.4755,0.5488,0.555,0.5749,0.6083,0.6148,0.6284,0.642,0.642,0.642,0.642,0.642,0.6371,0.6282,0.6278,0.6189,0.6018,0.6103,0.6103,0.6076,0.5925,0.5921,0.6059,0.7465,0.7932,0.7473,0.9543,0.0,0.0,0.0,0.0,0.0,0.0,0.0,0.0,0.0,0.0,1.342,1.1408,1.0659,1.1714,1.103,1.1403,1.3288,1.1799,1.119,1.2113,1.3889,1.4885,1.4718,1.4883,1.5362,1.6316,1.6374,1.6613,1.7059,1.7763,1.8151,1.8231,1.8722,1.9273,1.9597,1.9539,1.962,2.0151,2.007,1.9688,1.9069,1.9551,2.0308,2.0928,2.0527,2.0354,2.1032,2.0864,2.0607,2.1095,2.1233,2.1273,2.1788,2.2282,2.2454,2.2247,2.1913,2.2506,2.4808,2.5729,2.5893,2.5893,2.5619,2.5564,2.5839,2.5893,2.5893,2.5893,2.5893,2.5893,-0.0674,-0.0,-0.0,-0.0,0.0067,0.0472,0.0674,0.0607,0.0,0.0,0.0,0.235,0.2214,0.1277,0.3215,0.3751,0.3284,0.4087,0.4824,0.5425,0.555,0.5752,0.5954,0.6148,0.6284,0.642,0.642,0.642,0.642,0.642,0.642,0.642,0.642,0.642,0.642,0.642,0.6343,0.626,0.6162,0.6186,0.6459,0.7876,0.8212,0.7391,0.963,1.0442,0.949,1.017,1.0276,0.957,0.9732,0.9207,0.7952,1.1264,1.3321,1.3485,1.2879,1.2538,1.2595,1.2894,1.3194,1.3494,1.3579,1.3579,1.3519,1.4231,1.4712,1.4782,1.4012,1.4258,1.6035,1.6311,1.6838,1.7818,1.8488,1.8905,1.8961,1.946,1.9787,2.0064,2.0067,2.0044,2.0369,2.0171,1.9953,1.9998,2.0285,2.0664,2.106,2.0814,2.0687,2.1066,2.1129,2.1198,2.1233,2.1233,2.1285,2.1514,2.1498,2.1446,2.1572,2.1486,2.2592,2.53,2.5893,2.5893,2.5893,2.5893,2.5893,2.5893,2.5893,2.5893,2.5907,2.5978,2.6034,-0.0674,-0.0,-0.0,-0.0,-0.0,0.0405,0.0742,0.1011,0.1076,0.1076,0.1143,0.1277,0.1276,0.121,0.2681,0.3282,0.3282,0.4619,0.5355,0.555,0.5617,0.5815,0.6148,0.6214,0.6284,0.642,0.642,0.642,0.642,0.642,0.642,0.642,0.642,0.642,0.642,0.642,0.6408,0.6371,0.5921,0.5989,0.6648,0.7038,0.7586,0.8487,0.9455,1.0128,1.0404,1.0521,1.0528,1.0397,1.0602,1.0514,1.0181,1.1572,1.2712,1.339,1.3124,1.3065,1.3288,1.3399,1.3451,1.3519,1.3819,1.387,1.3536,1.3631,1.438,1.5745,1.4594,1.4066,1.5373,1.6128,1.6981,1.802,1.8666,1.8847,1.8516,1.9265,1.9941,1.9997,2.0597,2.0991,2.1003,2.0991,2.0871,2.1003,2.0968,2.1078,2.1112,2.1101,2.1078,2.121,2.1233,2.1233,2.1233,2.1233,2.1348,2.1765,2.1945,2.1906,2.1773,2.1886,2.2919,2.5425,2.5893,2.5893,2.5893,2.5893,2.5893,2.5893,2.5893,2.5907,2.595,2.6315,2.6483,-0.0337,-0.0,-0.0,0.0202,0.0607,0.054,0.0742,0.1079,0.1078,0.1076,0.1143,0.1478,0.1411,0.1277,0.2813,0.3416,0.3284,0.4755,0.5428,0.5491,0.5491,0.5617,0.5881,0.5881,0.5947,0.6086,0.6218,0.6284,0.6284,0.6354,0.642,0.642,0.642,0.642,0.642,0.642,0.642,0.6412,0.6552,0.6599,0.6538,0.7411,0.8184,0.8834,0.964,1.0437,1.1121,1.1121,1.1121,1.1174,1.1202,1.1216,1.1196,1.1821,1.229,1.2474,1.2605,1.2972,1.3442,1.3459,1.3633,1.3893,1.4022,1.4317,1.4744,1.3982,1.4311,1.6078,1.6383,1.6437,1.6355,1.7264,1.7968,1.8247,1.8754,1.9031,1.9094,1.9712,2.0288,2.031,2.0819,2.1233,2.1233,2.1233,2.1233,2.1233,2.1233,2.1233,2.1233,2.1233,2.1233,2.1233,2.1233,2.1233,2.1233,2.1233,2.136,2.1726,2.2135,2.2221,2.2011,2.2123,2.3233,2.5314,2.5893,2.5893,2.5893,2.5893,2.5893,2.5893,2.5893,2.5978,2.6315,2.6722,2.6835,-0.0,-0.0,-0.0,0.0405,0.108,0.0742,0.0809,0.1079,0.1078,0.1077,0.1143,0.1679,0.1611,0.1276,0.288,0.3416,0.3418,0.4755,0.5428,0.5428,0.5428,0.5491,0.5617,0.5617,0.5686,0.5888,0.6086,0.6148,0.6218,0.6354,0.6354,0.642,0.642,0.642,0.642,0.642,0.642,0.642,0.7134,0.7199,0.6745,0.7902,0.8737,0.9244,0.9945,1.073,1.156,1.1622,1.1622,1.1622,1.1622,1.1622,1.1622,1.1856,1.1926,1.1685,1.2112,1.2715,1.3277,1.3429,1.3741,1.4227,1.4255,1.4663,1.5521,1.4726,1.4746,1.6539,1.8087,1.8527,1.7789,1.8393,1.892,1.8599,1.8837,1.9177,1.9594,2.0129,2.0453,2.0582,2.0967,2.1233,2.1233,2.1233,2.1233,2.1233,2.1233,2.1233,2.1233,2.1233,2.1233,2.1233,2.1233,2.1233,2.1233,2.1296,2.1537,2.1862,2.2211,2.2347,2.242,2.2714,2.3649,2.555,2.5893,2.5893,2.5893,2.5893,2.5893,2.5893,2.5893,2.6104,2.6708,2.7088,2.7312,-0.0,-0.0,-0.0,0.0405,0.1012,0.1012,0.108,0.1079,0.1077,0.1076,0.1143,0.1143,0.121,0.1209,0.2143,0.2811,0.3284,0.4755,0.5428,0.5428,0.5428,0.5488,0.555,0.5617,0.5686,0.5892,0.5954,0.6086,0.6284,0.6284,0.6284,0.642,0.642,0.642,0.642,0.642,0.642,0.6416,0.7134,0.7456,0.7461,0.7852,0.8689,0.9888,1.0281,1.087,1.156,1.1622,1.1622,1.1622,1.1622,1.1622,1.1622,1.1622,1.1622,1.1622,1.1996,1.2461,1.2897,1.3297,1.3774,1.4242,1.4484,1.4861,1.5675,1.566,1.6198,1.7562,1.8516,1.8992,1.8951,1.9023,1.91,1.8971,1.9079,1.9198,1.9539,1.9736,2.0074,2.0582,2.0967,2.1233,2.1233,2.1233,2.1233,2.1233,2.1233,2.1233,2.1233,2.1233,2.1233,2.1233,2.1233,2.1233,2.1233,2.1498,2.1975,2.2616,2.2285,2.2347,2.3005,2.4279,2.5729,2.5605,2.5893,2.5893,2.5893,2.5893,2.5893,2.5936,2.6006,2.6202,2.6891,2.7481,2.786,-0.0,-0.0,-0.0,0.0135,0.0472,0.0877,0.108,0.1078,0.1078,0.1077,0.1076,0.1076,0.1076,0.1143,0.1539,0.2207,0.3284,0.4758,0.5428,0.5428,0.5428,0.5428,0.5488,0.5488,0.5491,0.5624,0.569,0.5815,0.5947,0.6079,0.6284,0.642,0.642,0.642,0.642,0.642,0.642,0.6416,0.7134,0.7526,0.7591,0.8042,0.8812,0.9888,1.0148,1.0667,1.149,1.1622,1.1622,1.1622,1.1622,1.1622,1.1622,1.1622,1.1622,1.1652,1.2173,1.2654,1.2841,1.3259,1.3727,1.4144,1.4473,1.4852,1.5409,1.5655,1.6202,1.7079,1.8307,1.9131,1.9065,1.9131,1.9131,1.9131,1.9131,1.9274,1.955,1.9802,2.0118,2.0571,2.0967,2.1233,2.1233,2.1233,2.1233,2.1233,2.1233,2.1233,2.1233,2.1233,2.1233,2.1233,2.1233,2.1233,2.1296,2.1827,2.2372,2.2725,2.2847,2.3027,2.3682,2.4851,2.5893,2.5893,2.5978,2.5978,2.5893,2.5893,2.5907,2.602,2.6666,2.7074,2.7116,2.8057,2.8788,-0.0,-0.0,-0.0,0.0067,0.0202,0.0674,0.1011,0.1078,0.1078,0.1078,0.1076,0.1076,0.1076,0.1075,0.1071,0.1872,0.3282,0.4755,0.5428,0.5428,0.5428,0.5428,0.5428,0.5428,0.5428,0.5425,0.5488,0.562,0.5686,0.6083,0.6284,0.6354,0.642,0.642,0.642,0.642,0.642,0.6486,0.7134,0.7587,0.7847,0.8355,0.9122,0.9894,1.0218,1.073,1.1498,1.1553,1.1622,1.1622,1.1622,1.1622,1.1622,1.1622,1.1622,1.1689,1.2306,1.2764,1.3009,1.3316,1.3637,1.392,1.4281,1.4705,1.5133,1.5576,1.5991,1.6603,1.7569,1.8259,1.8865,1.9008,1.9131,1.9131,1.9131,1.9264,1.966,1.9977,2.0366,2.07,2.1031,2.1233,2.1233,2.1233,2.1233,2.1233,2.1233,2.1233,2.1233,2.1233,2.1233,2.1233,2.1233,2.1221,2.1336,2.2125,2.2652,2.3015,2.3314,2.3774,2.431,2.5425,2.5893,2.5921,2.6132,2.6273,2.6231,2.616,2.5994,2.6218,2.6916,2.7715,2.7435,2.8531,2.9223,-0.0,-0.0,-0.0,0.0135,0.0472,0.054,0.0741,0.1076,0.1076,0.1076,0.1076,0.1076,0.1076,0.1075,0.1071,0.1872,0.3282,0.4688,0.5359,0.5362,0.5428,0.5428,0.5428,0.5428,0.5428,0.5428,0.5428,0.5557,0.5888,0.6218,0.642,0.642,0.642,0.642,0.642,0.642,0.642,0.6486,0.7199,0.7777,0.8361,0.886,0.9372,0.9837,1.0681,1.1129,1.131,1.1498,1.1622,1.1622,1.1622,1.1622,1.1622,1.1622,1.1622,1.1689,1.2175,1.2819,1.3345,1.3477,1.3492,1.3564,1.3985,1.4418,1.4982,1.5505,1.6,1.6533,1.6272,1.676,1.7998,1.8731,1.9065,1.9131,1.9131,1.9396,1.9977,2.0248,2.0646,2.1031,2.1158,2.1233,2.1233,2.1233,2.1233,2.1233,2.1233,2.1233,2.1233,2.1233,2.1233,2.1233,2.1233,2.1221,2.1451,2.2359,2.3148,2.3623,2.3962,2.4368,2.5189,2.5893,2.5921,2.6188,2.6877,2.7088,2.6764,2.6484,2.6286,2.6618,2.7488,2.8005,2.8033,2.8376,2.897,-0.162,-0.0,-0.0,0.0067,0.0202,0.0674,0.0944,0.1078,0.1078,0.1078,0.1078,0.1078,0.1077,0.1076,0.1072,0.1874,0.3213,0.4084,0.4755,0.5359,0.5428,0.5428,0.5428,0.5428,0.5428,0.5428,0.5428,0.5561,0.5888,0.6152,0.635,0.642,0.642,0.642,0.642,0.642,0.642,0.6548,0.7517,0.8042,0.8037,0.932,0.9964,0.9646,1.0408,1.0989,1.1303,1.1365,1.1498,1.156,1.1622,1.1622,1.1622,1.1622,1.1622,1.1681,1.2167,1.2804,1.3382,1.3492,1.3492,1.3564,1.392,1.4137,1.4281,1.5078,1.5718,1.563,1.5788,1.614,1.676,1.8114,1.9131,1.9131,1.9142,1.9274,1.9726,2.0053,2.0366,2.0764,2.1031,2.1233,2.1233,2.1233,2.1233,2.1233,2.1233,2.1233,2.1233,2.1233,2.1233,2.1296,2.1463,2.1577,2.1486,2.2543,2.3539,2.4137,2.4654,2.5133,2.5839,2.616,2.6245,2.7088,2.779,2.7846,2.7495,2.7481,2.7179,2.7931,2.8775,2.8649,2.8904,2.8993,2.9251,-0.3177,-0.1415,-0.0403,-0.0,-0.0,0.054,0.0809,0.0877,0.0877,0.0945,0.1012,0.1079,0.1078,0.1076,0.1074,0.1877,0.3149,0.3682,0.4417,0.5359,0.5428,0.5428,0.5428,0.5428,0.5428,0.5428,0.5495,0.569,0.5888,0.6152,0.6284,0.642,0.642,0.642,0.642,0.642,0.642,0.6679,0.7777,0.8172,0.7782,0.9052,0.9824,0.9646,1.0238,1.0814,1.1247,1.131,1.1365,1.156,1.1622,1.1622,1.1622,1.1622,1.1622,1.1689,1.216,1.2804,1.3382,1.3492,1.3492,1.3492,1.3775,1.3848,1.3637,1.4425,1.4927,1.5133,1.6254,1.6691,1.6421,1.7774,1.8998,1.8931,1.9008,1.9208,1.9539,1.9922,2.0313,2.0764,2.1031,2.1158,2.1233,2.1233,2.1233,2.1233,2.1233,2.1233,2.1233,2.1233,2.1285,2.14,2.1702,2.1877,2.2063,2.3015,2.3846,2.4425,2.5063,2.566,2.616,2.6427,2.7116,2.7973,2.8338,2.8366,2.8366,2.8352,2.8774,2.9434,2.9372,2.9128,2.9316,2.9518,2.9574,-0.4258,-0.3713,-0.0,-0.0,-0.0,-0.0,0.0202,0.0472,0.0472,0.054,0.0674,0.0945,0.1078,0.1076,0.1076,0.1812,0.2882,0.3613,0.4417,0.5359,0.5428,0.5428,0.5428,0.5428,0.5428,0.5428,0.576,0.5892,0.5888,0.6222,0.642,0.642,0.642,0.642,0.642,0.642,0.642,0.6679,0.7712,0.8102,0.7647,0.8318,0.8954,0.9518,1.0213,1.0735,1.1059,1.1247,1.1365,1.156,1.1622,1.1622,1.1622,1.1622,1.1622,1.1648,1.216,1.2811,1.3389,1.3492,1.3492,1.3492,1.3492,1.3564,1.3564,1.3637,1.4137,1.5259,1.7207,1.8192,1.6691,1.7706,1.8731,1.8472,1.8731,1.9208,1.9539,1.9922,2.0366,2.0967,2.1169,2.1233,2.1233,2.1233,2.1233,2.1233,2.1233,2.1233,2.1233,2.1233,2.14,2.1765,2.2013,2.2187,2.2847,2.3492,2.4137,2.4724,2.537,2.595,2.6512,2.6933,2.8183,2.9069,2.904,2.9055,2.904,2.904,2.9139,2.9588,2.9518,2.9476,2.9546,2.9602,2.9602,-0.4311,-0.4113,-0.2284,-0.0873,-0.0,-0.0,0.0067,-0.0,-0.0,-0.0,0.0337,0.0809,0.1078,0.1078,0.1078,0.1344,0.1877,0.3213,0.4422,0.5226,0.5362,0.5428,0.5428,0.5428,0.5428,0.5428,0.5756,0.5892,0.5954,0.6218,0.642,0.642,0.642,0.642,0.642,0.642,0.642,0.6486,0.7326,0.7717,0.7582,0.8184,0.882,0.9512,1.0187,1.0701,1.0863,1.1059,1.1247,1.1365,1.1498,1.1622,1.1622,1.1622,1.1622,1.1689,1.216,1.2811,1.3375,1.3492,1.3492,1.3492,1.3492,1.3492,1.3492,1.3492,1.4209,1.5675,1.7755,1.8529,1.7696,1.7569,1.7988,1.8114,1.8654,1.9142,1.9341,1.9781,2.0366,2.1031,2.1233,2.1233,2.1233,2.1233,2.1233,2.1233,2.1233,2.1233,2.1233,2.1296,2.1526,2.1939,2.2249,2.2738,2.3399,2.4034,2.4624,2.509,2.5605,2.5893,2.6497,2.72,2.8591,2.9448,2.9462,2.9574,2.9588,2.9602,2.9602,2.9602,2.9574,2.9574,2.9602,2.9665,2.9727,-0.4303,-0.4175,-0.3291,-0.1744,-0.0,-0.0,-0.0,-0.0,-0.0,-0.0,-0.0,0.0472,0.0742,0.0944,0.1213,0.1211,0.1139,0.2817,0.4092,0.4957,0.5292,0.5362,0.5428,0.5428,0.5425,0.5488,0.5756,0.5954,0.602,0.6288,0.642,0.642,0.642,0.642,0.642,0.642,0.642,0.6482,0.7134,0.7526,0.7847,0.8689,0.9332,0.9588,1.0193,1.0581,1.0751,1.087,1.1115,1.1303,1.1498,1.1622,1.1622,1.1622,1.1622,1.1684,1.2167,1.2811,1.3382,1.3492,1.3492,1.3492,1.3492,1.3492,1.3564,1.371,1.4697,1.6298,1.8027,1.8798,1.8104,1.8114,1.7978,1.7774,1.8596,1.9131,1.9462,1.9911,2.0506,2.1031,2.1233,2.1233,2.1233,2.1233,2.1233,2.1233,2.1233,2.1233,2.1233,2.1371,2.1776,2.2237,2.2725,2.328,2.4002,2.4593,2.5118,2.5508,2.5839,2.5893,2.616,2.6694,2.772,2.8535,2.8816,2.9321,2.942,2.956,2.9602,2.9602,2.9602,2.9602,2.9602,2.9851,2.996,-0.43,-0.4303,-0.4303,-0.2751,-0.0,-0.0,-0.0,-0.0,-0.0,-0.0,-0.0,-0.0,0.0202,0.0607,0.1279,0.1479,0.134,0.2281,0.3556,0.4356,0.4957,0.5292,0.5359,0.5428,0.5428,0.5554,0.5822,0.602,0.628,0.635,0.642,0.6552,0.6552,0.642,0.6486,0.642,0.6548,0.6679,0.7199,0.7647,0.7977,0.9344,1.0142,0.9652,1.0219,1.0615,1.0631,1.0807,1.0989,1.124,1.1498,1.1622,1.1622,1.1622,1.1622,1.1589,1.2153,1.2782,1.3309,1.3426,1.3448,1.3492,1.3492,1.3492,1.3564,1.4201,1.5188,1.6594,1.8172,1.8798,1.8375,1.8586,1.8529,1.792,1.8721,1.9452,2.0042,2.0366,2.07,2.1106,2.1233,2.1233,2.1233,2.1233,2.1233,2.1233,2.1233,2.1233,2.1474,2.1776,2.2149,2.2677,2.328,2.3754,2.4421,2.465,2.523,2.5619,2.5893,2.5893,2.6118,2.6666,2.7116,2.7846,2.8549,2.9012,2.935,2.9518,2.9602,2.9602,2.9602,2.9602,2.9727,2.996,3.0144,-0.4431,-0.4303,-0.4303,-0.3899,-0.2891,-0.1008,-0.0,-0.0,-0.0,-0.0,-0.0,-0.0,-0.0,0.0202,0.0943,0.2087,0.3094,0.2956,0.3286,0.422,0.4486,0.4957,0.5292,0.5428,0.5428,0.5491,0.5756,0.6214,0.6666,0.6548,0.6675,0.7199,0.7134,0.6942,0.6548,0.6937,0.7199,0.7195,0.7391,0.8102,0.8935,0.8994,0.9518,1.0308,1.0511,1.0575,1.0618,1.0877,1.1059,1.1303,1.1498,1.1622,1.1622,1.1622,1.1622,1.1696,1.1955,1.2562,1.3221,1.3272,1.325,1.3462,1.3557,1.3492,1.3557,1.4697,1.5675,1.6655,1.7842,1.8808,1.8798,1.8998,1.9008,1.9274,1.9584,1.9911,2.0107,2.0366,2.0775,2.1094,2.1169,2.1233,2.1233,2.1233,2.1233,2.1233,2.1233,2.1639,2.2187,2.2384,2.2871,2.3424,2.3969,2.4305,2.4664,2.4892,2.523,2.5729,2.5893,2.5893,2.6371,2.7045,2.7453,2.7959,2.8675,2.9209,2.9406,2.9574,2.9588,2.9602,2.9727,2.9713,2.9775,2.996,3.0251,-0.4431,-0.4303,-0.4303,-0.4306,-0.4038,-0.1879,-0.0537,-0.0,-0.0,-0.0,-0.0,-0.0,-0.0,-0.0,0.0472,0.1817,0.3639,0.3567,0.3761,0.4092,0.4625,0.5024,0.5359,0.5428,0.5425,0.5488,0.576,0.6148,0.6605,0.6741,0.6942,0.7134,0.7647,0.7391,0.6482,0.7456,0.7847,0.7712,0.7847,0.8549,0.9773,0.9296,0.9558,1.0358,1.0618,1.0618,1.0618,1.094,1.1122,1.1247,1.1435,1.1622,1.1622,1.1622,1.1622,1.1645,1.186,1.2372,1.2899,1.3016,1.3383,1.3909,1.4057,1.4122,1.4482,1.533,1.5956,1.6862,1.7842,1.8529,1.9075,1.9274,1.9539,1.9857,2.0313,2.0506,2.0377,2.0646,2.0903,2.1169,2.1233,2.1233,2.1233,2.1233,2.1233,2.1233,2.1233,2.2359,2.3539,2.3564,2.3649,2.4189,2.4492,2.4778,2.5104,2.5342,2.5397,2.5839,2.5893,2.5893,2.6315,2.7116,2.7832,2.8268,2.8872,2.9237,2.9265,2.9392,2.9602,2.9665,2.9775,2.9884,2.9946,3.0312,3.0553,-0.43,-0.4303,-0.4303,-0.4303,-0.4097,-0.2887,-0.141,-0.0,-0.0,-0.0,-0.0,-0.0,-0.0,-0.0,-0.0,0.1076,0.2896,0.3773,0.4105,0.4364,0.4827,0.5359,0.5359,0.5428,0.5425,0.555,0.5756,0.6017,0.6408,0.6999,0.7003,0.7064,0.7907,0.7712,0.7134,0.7907,0.8296,0.8231,0.8425,0.9198,1.0168,0.9964,1.0028,1.0421,1.0618,1.0624,1.0688,1.0933,1.1129,1.1122,1.1435,1.156,1.1622,1.1622,1.1622,1.1652,1.1809,1.2204,1.2743,1.3231,1.3761,1.468,1.4832,1.4966,1.5463,1.5816,1.6306,1.7198,1.7823,1.8519,1.9131,1.955,1.9933,2.0248,2.0828,2.0903,2.0839,2.0978,2.1233,2.1233,2.1233,2.1233,2.1233,2.1221,2.1221,2.1561,2.1549,2.2187,2.3657,2.4381,2.4509,2.4865,2.5048,2.523,2.5508,2.5784,2.5784,2.5893,2.5893,2.5921,2.6048,2.6807,2.7917,2.8591,2.8605,2.8661,2.8759,2.8984,2.9321,2.9775,2.9946,3.0068,3.0297,3.0851,3.1204,-0.4428,-0.4303,-0.4303,-0.4303,-0.4233,-0.3894,-0.2348,-0.0,-0.0,-0.0,-0.0,-0.0,-0.0,-0.0,-0.0,0.1144,0.2891,0.3502,0.3634,0.4161,0.4964,0.5362,0.5428,0.5428,0.5425,0.5488,0.562,0.6009,0.6465,0.6601,0.6666,0.712,0.7902,0.8102,0.7587,0.8549,0.9262,0.9134,0.9262,0.9716,1.0364,1.0428,1.0358,1.0618,1.0618,1.0688,1.0807,1.0996,1.1122,1.131,1.1498,1.1622,1.1622,1.1622,1.1622,1.1637,1.1696,1.2372,1.3605,1.3978,1.4502,1.5354,1.5517,1.5534,1.5675,1.6167,1.6645,1.7413,1.8046,1.8808,1.9483,1.9615,2.0064,2.0635,2.0828,2.0903,2.1031,2.1169,2.1169,2.1233,2.1233,2.1233,2.1233,2.1273,2.1474,2.1737,2.1913,2.2075,2.3255,2.4794,2.509,2.5216,2.5397,2.5453,2.5564,2.5784,2.5893,2.5893,2.5893,2.5907,2.6034,2.616,2.713,2.7692,2.7987,2.8113,2.8366,2.8535,2.8858,2.944,3.0068,3.0176,3.0478,3.1204,3.1724,-0.4498,-0.4303,-0.4303,-0.4303,-0.4303,-0.4306,-0.3429,-0.1882,-0.0471,-0.0,-0.0,-0.0,-0.0,-0.0,-0.0,0.101,0.2555,0.3567,0.4105,0.4498,0.5096,0.5362,0.5428,0.5428,0.5428,0.5428,0.5554,0.5877,0.6141,0.6531,0.6728,0.6994,0.8226,0.8361,0.7912,0.9134,0.9716,0.9582,0.9843,1.0238,1.0555,1.0618,1.0618,1.0618,1.0618,1.0688,1.08,1.0996,1.1185,1.131,1.1498,1.1622,1.1622,1.1622,1.1622,1.1622,1.1934,1.2436,1.3493,1.4222,1.4875,1.5859,1.6113,1.6428,1.6664,1.7079,1.7364,1.7842,1.8462,1.9142,1.9681,1.9868,2.0313,2.0892,2.1031,2.0967,2.1169,2.1233,2.1233,2.1233,2.1233,2.1233,2.1233,2.1336,2.1663,2.1937,2.1824,2.2037,2.3135,2.4496,2.4964,2.5216,2.5508,2.5688,2.5674,2.5784,2.5893,2.5893,2.5893,2.5893,2.595,2.602,2.6188,2.6708,2.727,2.7888,2.8155,2.8296,2.8521,2.9407,2.9946,3.0176,3.0598,3.1248,3.1724,-0.4561,-0.4303,-0.4303,-0.43,-0.4367,-0.4308,-0.4041,-0.3433,-0.1413,-0.0,-0.0,-0.0,-0.0,-0.0,-0.0,-0.0,0.2285,0.3832,0.464,0.4764,0.5163,0.5362,0.5428,0.5428,0.5428,0.5428,0.5488,0.5617,0.5877,0.6465,0.6601,0.6736,0.8291,0.8619,0.8296,0.946,1.0301,0.9907,1.0231,1.0491,1.0618,1.0618,1.0618,1.0618,1.0618,1.0688,1.0807,1.0996,1.1185,1.1303,1.1498,1.156,1.1622,1.1622,1.1622,1.1622,1.2166,1.2805,1.3531,1.4354,1.54,1.6278,1.6686,1.722,1.7696,1.7862,1.8008,1.8347,1.8818,1.9218,1.9615,1.9922,2.0366,2.0892,2.1169,2.1233,2.1233,2.1233,2.1233,2.1233,2.1233,2.1233,2.1221,2.1336,2.1726,2.2061,2.1949,2.2173,2.3267,2.431,2.4964,2.5203,2.5508,2.5743,2.5784,2.5784,2.5893,2.5893,2.5893,2.5893,2.5893,2.595,2.6034,2.6146,2.6666,2.7228,2.7495,2.7397,2.7989,2.9223,3.0068,3.0539,3.0955,3.1306,3.1709,-0.5024,-0.4303,-0.4303,-0.4431,-0.4564,-0.4367,-0.3694,-0.2551,-0.1946,-0.1076,-0.0,-0.0,-0.0,-0.0,-0.0,0.0807,0.2351,0.3897,0.477,0.4897,0.5229,0.5428,0.5428,0.5428,0.5428,0.5428,0.5425,0.5488,0.5547,0.5877,0.621,0.6539,0.7902,0.8425,0.8748,0.9786,1.0555,1.0295,1.0498,1.0555,1.0618,1.0618,1.0618,1.0618,1.0618,1.0681,1.0807,1.0996,1.1185,1.131,1.1498,1.156,1.1622,1.1622,1.1615,1.1779,1.2405,1.3104,1.3831,1.5149,1.6246,1.6992,1.7167,1.7446,1.7784,1.7998,1.8154,1.8482,1.8808,1.9142,1.9208,1.9715,2.0237,2.0635,2.1031,2.1233,2.1233,2.1233,2.1233,2.1233,2.1233,2.1233,2.1285,2.1463,2.1851,2.2235,2.2297,2.2469,2.3207,2.431,2.537,2.5439,2.5439,2.5674,2.5893,2.5893,2.5893,2.5893,2.5893,2.5893,2.5893,2.5893,2.5964,2.6062,2.6076,2.6329,2.6469,2.6596,2.8097,2.9822,3.0409,3.094,3.1248,3.1537,3.1781,-0.5219,-0.43,-0.4431,-0.4564,-0.4697,-0.4706,-0.4102,-0.3092,-0.1676,-0.0671,-0.0,-0.0,-0.0,-0.0,0.1755,0.2291,0.2619,0.4033,0.4773,0.49,0.516,0.5428,0.5359,0.5359,0.5428,0.5428,0.5428,0.5422,0.5411,0.5752,0.6017,0.6605,0.7772,0.849,0.8812,0.9849,1.0491,1.0555,1.0561,1.0618,1.0618,1.0618,1.0618,1.0618,1.0618,1.0688,1.0807,1.0996,1.1185,1.1303,1.1498,1.156,1.1622,1.1615,1.164,1.182,1.2602,1.3432,1.4197,1.5392,1.6286,1.6621,1.6894,1.7119,1.7412,1.7676,1.8133,1.8633,1.8875,1.9131,1.9131,1.9704,2.0302,2.0828,2.1094,2.1169,2.1233,2.1233,2.1233,2.1233,2.1233,2.1233,2.1296,2.1537,2.1975,2.2285,2.2531,2.2932,2.3327,2.4439,2.566,2.566,2.5605,2.5729,2.5893,2.5893,2.5893,2.5893,2.5893,2.5893,2.5948,2.6002,2.5948,2.5936,2.5907,2.6056,2.6245,2.6722,2.8555,3.0221,3.0949,3.1429,3.1549,3.1709,3.1814,-0.5411,-0.4289,-0.4492,-0.4694,-0.49,-0.4976,-0.4782,-0.3971,-0.1676,-0.0336,-0.0,-0.0,-0.0,-0.0,0.1957,0.29,0.2552,0.4372,0.484,0.4831,0.4957,0.516,0.5156,0.5156,0.5093,0.5093,0.5359,0.5422,0.5415,0.5686,0.6017,0.6474,0.7582,0.8226,0.842,0.946,1.0104,1.0428,1.0561,1.0618,1.0618,1.0618,1.0618,1.0618,1.0618,1.0688,1.0744,1.0933,1.1122,1.1247,1.1435,1.1622,1.1622,1.1622,1.1873,1.2393,1.302,1.3451,1.4258,1.4999,1.5785,1.6211,1.6426,1.6611,1.6811,1.735,1.7863,1.8489,1.8971,1.8878,1.8885,1.9597,2.0279,2.0839,2.1106,2.1233,2.1233,2.1233,2.1233,2.1233,2.1233,2.1233,2.1285,2.1651,2.2087,2.2506,2.275,2.3412,2.3917,2.4908,2.5839,2.5839,2.5839,2.5839,2.5893,2.5893,2.5893,2.5893,2.5893,2.5893,2.5988,2.6096,2.615,2.6351,2.6312,2.6476,2.659,2.6764,2.801,2.94,3.1011,3.1656,3.1247,3.1247,3.1411,-0.5785,-0.432,-0.4547,-0.4894,-0.5229,-0.4964,-0.5043,-0.4919,-0.2751,-0.1141,-0.0,-0.0,-0.0,-0.0,0.0472,0.202,0.3431,0.4372,0.4706,0.4694,0.4489,0.4486,0.4489,0.442,0.4622,0.4758,0.5226,0.5355,0.5415,0.555,0.5752,0.6148,0.6732,0.7246,0.7702,0.8877,0.946,0.9709,1.0231,1.0555,1.0618,1.0618,1.0618,1.0618,1.0624,1.0624,1.0681,1.0807,1.0996,1.1185,1.1442,1.156,1.1622,1.1622,1.2948,1.3717,1.3805,1.3045,1.3939,1.4533,1.5027,1.5607,1.5911,1.6286,1.6543,1.6703,1.6934,1.6739,1.7968,1.8702,1.8551,1.9297,2.004,2.0635,2.1031,2.1169,2.1233,2.1233,2.1233,2.1233,2.1233,2.1233,2.1285,2.1714,2.2125,2.2543,2.3088,2.3741,2.4452,2.5314,2.5893,2.5893,2.5893,2.5893,2.5893,2.5893,2.5893,2.5893,2.5893,2.5948,2.6096,2.6351,2.6967,2.7071,2.7019,2.6721,2.6551,2.684,2.7422,2.8517,2.9985,3.0486,3.0575,3.0751,3.1012,-0.611,-0.4584,-0.5206,-0.5422,-0.5362,-0.5226,-0.5173,-0.4846,-0.3422,-0.1677,-0.0,-0.0,-0.0,-0.0,0.074,0.1813,0.309,0.3897,0.4231,0.4225,0.3954,0.3951,0.4217,0.4353,0.442,0.4891,0.516,0.5359,0.5422,0.555,0.5617,0.5749,0.6531,0.7181,0.7181,0.8296,0.8748,0.9134,0.9582,1.0168,1.0491,1.0618,1.0618,1.0618,1.0618,1.0618,1.0744,1.087,1.1059,1.1247,1.1498,1.156,1.1622,1.1622,1.222,1.2755,1.253,1.2687,1.3862,1.3965,1.4279,1.4481,1.4735,1.499,1.5706,1.6127,1.6307,1.643,1.7046,1.7678,1.8269,1.9009,1.9896,2.0542,2.1031,2.1049,2.1187,2.1233,2.1233,2.1233,2.1233,2.1411,2.1651,2.2125,2.2543,2.2967,2.3564,2.4394,2.4865,2.5425,2.5784,2.5893,2.5893,2.5893,2.5893,2.5893,2.5893,2.5893,2.5893,2.6002,2.6258,2.6616,2.7225,2.7715,2.7815,2.7414,2.6759,2.6895,2.7524,2.8211,2.8941,2.9383,2.9858,3.0335,3.0566,-0.6449,-0.5186,-0.5672,-0.5686,-0.5428,-0.5428,-0.5302,-0.4979,-0.4095,-0.2683,-0.1208,-0.0,-0.0,0.1212,0.2153,0.2824,0.2822,0.3692,0.3828,0.3756,0.3618,0.3818,0.4151,0.4353,0.4556,0.516,0.5359,0.5425,0.5554,0.562,0.5617,0.5547,0.6203,0.6728,0.7116,0.7702,0.8285,0.9,0.932,0.9907,1.0428,1.0618,1.0618,1.0618,1.0618,1.0681,1.0807,1.0933,1.1052,1.1303,1.1373,1.1435,1.156,1.1622,1.1692,1.1956,1.1747,1.2282,1.3235,1.3614,1.345,1.345,1.3571,1.4243,1.4693,1.5245,1.573,1.6019,1.6409,1.7243,1.8072,1.8542,1.9753,2.0538,2.1169,2.1089,2.1032,2.1055,2.1187,2.1221,2.14,2.1765,2.2063,2.2592,2.3015,2.3386,2.4092,2.4921,2.5328,2.566,2.5784,2.5893,2.5893,2.5893,2.5893,2.5893,2.5893,2.5893,2.5893,2.6096,2.6418,2.6916,2.7464,2.7963,2.8496,2.8367,2.7929,2.773,2.761,2.8232,2.8759,2.887,2.9227,2.972,2.9971,-0.699,-0.6199,-0.5477,-0.5289,-0.5428,-0.5428,-0.5369,-0.5176,-0.4773,-0.4169,-0.3029,-0.1211,0.1347,0.3171,0.3576,0.3912,0.411,0.4645,0.4233,0.3892,0.3954,0.402,0.4151,0.4217,0.442,0.4688,0.5153,0.5554,0.5686,0.5686,0.5822,0.5954,0.6079,0.6079,0.6404,0.7055,0.8027,0.8678,0.9134,0.9588,1.0168,1.0428,1.0491,1.0561,1.0561,1.0688,1.0807,1.087,1.1052,1.1303,1.131,1.138,1.156,1.1622,1.1622,1.1622,1.1622,1.2104,1.2712,1.3199,1.326,1.3268,1.3459,1.3692,1.3803,1.4282,1.4765,1.542,1.5894,1.6503,1.7193,1.7913,1.912,2.0217,2.0676,2.0664,2.0687,2.0928,2.106,2.1227,2.1577,2.1951,2.2445,2.2905,2.3348,2.3657,2.4553,2.5384,2.5564,2.5839,2.5839,2.5893,2.5893,2.5893,2.5893,2.5948,2.615,2.6002,2.5893,2.6258,2.6669,2.721,2.8158,2.8511,2.9106,2.9075,2.9029,2.8685,2.8446,2.8381,2.8488,2.8676,2.8706,2.9049,2.9211,-0.631,-0.5741,-0.5257,-0.5209,-0.5428,-0.5428,-0.5096,-0.4567,-0.437,-0.3766,-0.2827,-0.0,-0.0,0.1886,0.3708,0.4317,0.4314,0.4233,0.3761,0.3422,0.3418,0.3618,0.3751,0.4154,0.4489,0.4888,0.5355,0.562,0.5822,0.5756,0.5954,0.602,0.6017,0.6083,0.6342,0.6605,0.7386,0.7972,0.8361,0.8619,0.9262,0.9779,0.9907,0.9907,1.0491,1.0681,1.0933,1.0996,1.1185,1.1373,1.1373,1.1498,1.156,1.156,1.1622,1.1622,1.1622,1.1809,1.2174,1.2658,1.2887,1.3078,1.3199,1.3268,1.3025,1.3208,1.3623,1.4341,1.5526,1.6181,1.7024,1.7286,1.7868,1.9366,2.0033,2.0056,2.0251,2.0481,2.0827,2.1023,2.1625,2.2199,2.2676,2.3213,2.3605,2.4053,2.4951,2.5729,2.5839,2.5893,2.5893,2.5893,2.5893,2.5893,2.5893,2.615,2.6351,2.615,2.5893,2.6204,2.6707,2.848,2.9289,2.9547,2.9502,2.9396,2.935,2.935,2.9137,2.8684,2.8493,2.8475,2.8493,2.8605,2.8748,-0.5575,-0.5277,-0.5111,-0.5182,-0.5411,-0.5311,-0.4857,-0.409,-0.3687,-0.2753,-0.1413,-0.0,-0.0,-0.0,0.1816,0.3706,0.3909,0.3835,0.336,0.3288,0.3353,0.3351,0.3618,0.4087,0.4824,0.516,0.5422,0.562,0.5822,0.5752,0.5951,0.6218,0.6284,0.6214,0.6284,0.635,0.6811,0.733,0.7591,0.8042,0.8812,0.9262,0.9773,0.9907,1.0428,1.0744,1.0996,1.1066,1.1247,1.1435,1.156,1.156,1.1622,1.1622,1.1622,1.1622,1.1622,1.1622,1.1802,1.2589,1.3,1.307,1.3199,1.3086,1.2781,1.272,1.339,1.3923,1.5059,1.5941,1.6797,1.6942,1.755,1.9052,1.9103,1.9183,1.9585,1.9932,2.0404,2.0771,2.15,2.2322,2.3361,2.3897,2.4315,2.4641,2.5175,2.5784,2.5839,2.5893,2.5893,2.5893,2.5893,2.5893,2.5948,2.6042,2.615,2.6096,2.5893,2.5893,2.6692,2.8432,2.938,2.9136,2.9136,2.947,2.9531,2.9441,2.9121,2.8763,2.8716,2.8811,2.8842,2.8967,2.9075,-0.4931,-0.4925,-0.4925,-0.5087,-0.5304,-0.5196,-0.4758,-0.3997,-0.3011,-0.1678,-0.0404,-0.0,-0.0,-0.0,-0.0,0.1814,0.3301,0.323,0.3025,0.309,0.3687,0.3685,0.3885,0.4356,0.5027,0.4688,0.5087,0.5554,0.5686,0.5822,0.6086,0.6284,0.6284,0.6284,0.6354,0.642,0.6811,0.733,0.7396,0.8166,0.8871,0.9262,0.9779,1.0168,1.0491,1.0814,1.1066,1.1122,1.131,1.1567,1.1622,1.1622,1.1622,1.1622,1.1622,1.1622,1.1622,1.1622,1.1747,1.3381,1.3683,1.3321,1.345,1.345,1.3147,1.3268,1.3812,1.4519,1.4638,1.5235,1.5999,1.6871,1.7785,1.8295,1.8418,1.8552,1.8977,1.9367,1.9855,2.0486,2.1421,2.2355,2.367,2.4667,2.5063,2.5412,2.5646,2.5825,2.5893,2.5893,2.5893,2.5893,2.5893,2.5893,2.5893,2.5893,2.5948,2.5893,2.6002,2.6096,2.6258,2.7312,2.8012,2.8432,2.9028,2.9576,2.9531,2.9486,2.9321,2.9183,2.9183,2.9259,2.9305,2.9335,2.935,-0.4826,-0.4908,-0.4809,-0.4884,-0.5047,-0.5016,-0.4379,-0.3327,-0.2128,-0.1077,-0.0404,-0.0135,-0.0,-0.0,-0.0,-0.0,0.1344,0.2351,0.2283,0.269,0.362,0.3685,0.3818,0.442,0.516,0.516,0.5422,0.5484,0.5481,0.5752,0.5881,0.6079,0.6284,0.6354,0.642,0.642,0.6613,0.6806,0.7199,0.7782,0.8226,0.9005,0.9716,1.0168,1.0491,1.087,1.1185,1.1178,1.1373,1.156,1.1622,1.1622,1.1622,1.1622,1.1622,1.1622,1.1622,1.1685,1.212,1.3086,1.3752,1.3692,1.3761,1.4001,1.4172,1.3692,1.435,1.5294,1.5294,1.5884,1.6446,1.7301,1.8057,1.8124,1.821,1.8199,1.8529,1.8896,1.9356,2.0118,2.097,2.2438,2.383,2.4425,2.4935,2.5481,2.5715,2.5839,2.5893,2.5893,2.5893,2.5893,2.5893,2.5893,2.5948,2.6042,2.6056,2.6056,2.6258,2.651,2.6721,2.6982,2.7815,2.8779,2.9227,2.9621,2.9621,2.9621,2.9681,2.9653,2.9547,2.9502,2.9486,2.9486,2.9531,-0.467,-0.4748,-0.4653,-0.4667,-0.4762,-0.4819,-0.4145,-0.2896,-0.1662,-0.0877,-0.0472,-0.0,-0.0,-0.0,-0.0,-0.0,-0.0,0.0873,0.1546,0.1951,0.2952,0.3017,0.3349,0.4217,0.4755,0.509,0.5359,0.5425,0.5547,0.5686,0.5881,0.6079,0.6284,0.6354,0.642,0.642,0.642,0.6679,0.7134,0.7717,0.8231,0.8935,0.9779,1.0225,1.0604,1.1052,1.124,1.1303,1.1373,1.156,1.1622,1.1622,1.1622,1.1622,1.1622,1.1622,1.1622,1.1685,1.205,1.2728,1.3338,1.3528,1.4001,1.4419,1.4834,1.4647,1.5177,1.5951,1.6306,1.6581,1.6853,1.77,1.803,1.8096,1.8096,1.8096,1.823,1.8677,1.9265,1.9949,2.0908,2.2382,2.3804,2.4116,2.4563,2.5104,2.566,2.5839,2.5948,2.5893,2.5893,2.5893,2.6002,2.6056,2.615,2.6404,2.6365,2.6204,2.6351,2.6549,2.7056,2.7312,2.824,2.8996,2.9345,2.9585,2.9694,2.971,2.9673,2.9705,2.9726,2.9681,2.9621,2.9681,2.9681,-0.4522,-0.4463,-0.4463,-0.447,-0.4494,-0.4531,-0.389,-0.2889,-0.1659,-0.0873,-0.0469,-0.0134,-0.0,-0.0,-0.0,-0.0,-0.0,-0.0,0.0874,0.1279,0.2149,0.2214,0.2815,0.3751,0.4486,0.4755,0.5024,0.5491,0.5686,0.5818,0.5947,0.6148,0.635,0.642,0.642,0.642,0.642,0.6618,0.7134,0.7652,0.8161,0.9198,0.9901,1.0351,1.0807,1.1122,1.124,1.1303,1.1435,1.1498,1.1622,1.1622,1.1622,1.1622,1.1622,1.1622,1.1622,1.1677,1.1864,1.2666,1.3033,1.3398,1.4172,1.4529,1.4834,1.5245,1.572,1.6077,1.6431,1.6828,1.7222,1.7645,1.8084,1.8084,1.8084,1.8139,1.8205,1.8651,1.9294,2.0025,2.0933,2.2252,2.3817,2.4389,2.4791,2.5257,2.5798,2.6071,2.6125,2.5893,2.5948,2.5948,2.6002,2.615,2.6404,2.6707,2.6864,2.6759,2.6176,2.6269,2.6923,2.7633,2.8436,2.9058,2.938,2.9548,2.9689,2.9669,2.9567,2.9583,2.9313,2.9717,2.9625,2.9798,2.983,-0.4574,-0.4519,-0.4463,-0.4463,-0.4373,-0.3642,-0.3084,-0.2609,-0.1594,-0.0842,-0.0508,-0.013,-0.0,-0.0,-0.0,-0.0,-0.0,0.0394,0.0731,0.1201,0.174,0.2344,0.3015,0.3751,0.4486,0.4957,0.5292,0.5557,0.5752,0.5947,0.6148,0.6354,0.6354,0.642,0.642,0.642,0.642,0.6618,0.7199,0.7587,0.8161,0.9134,0.9773,1.0225,1.0807,1.1052,1.124,1.1303,1.1428,1.156,1.1622,1.1622,1.1622,1.1622,1.1622,1.1622,1.1802,1.2042,1.2174,1.285,1.3277,1.3329,1.4001,1.4656,1.501,1.5362,1.5788,1.6192,1.6431,1.6715,1.7267,1.77,1.803,1.8084,1.8247,1.8506,1.8572,1.8875,1.9523,2.0073,2.0983,2.2234,2.3806,2.5024,2.5453,2.5716,2.595,2.6247,2.6394,2.6204,2.6096,2.615,2.6204,2.6404,2.6797,2.7159,2.7312,2.7297,2.6834,2.6437,2.6603,2.7393,2.845,2.8839,2.8721,2.9184,2.9777,2.9529,2.8822,2.8595,2.8408,2.9097,2.9599,2.9534,2.9789,-0.4739,-0.4625,-0.4574,-0.4519,-0.4311,-0.3194,-0.2705,-0.2507,-0.1544,-0.0815,-0.0496,-0.0126,-0.0,-0.0,-0.0,-0.0,-0.0,0.0318,0.0708,0.1118,0.1591,0.2262,0.3068,0.3749,0.4422,0.5024,0.5491,0.5624,0.5818,0.6152,0.642,0.642,0.642,0.642,0.642,0.642,0.6613,0.6872,0.7265,0.7461,0.8037,0.8871,0.9512,0.9901,1.0604,1.1052,1.124,1.1303,1.1428,1.156,1.1622,1.1622,1.1622,1.1622,1.1622,1.1685,1.1934,1.2351,1.272,1.2972,1.3268,1.339,1.3761,1.4359,1.501,1.5488,1.6009,1.642,1.6488,1.6658,1.7267,1.781,1.792,1.8084,1.8506,1.8881,1.9093,1.9303,1.9726,2.02,2.1183,2.2339,2.3703,2.5037,2.5934,2.6056,2.6179,2.634,2.6578,2.6669,2.6602,2.6602,2.6616,2.6721,2.7174,2.7615,2.7864,2.8012,2.8012,2.7546,2.7052,2.7349,2.857,2.8391,2.7777,2.8288,2.879,2.8336,2.7802,2.764,2.7608,2.8061,2.8498,2.866,2.9016,-0.4901,-0.4901,-0.4743,-0.4632,-0.4353,-0.3244,-0.2687,-0.2531,-0.1492,-0.0796,-0.0488,-0.0123,-0.0,-0.0,-0.0,-0.0,-0.0,0.0554,0.0876,0.1159,0.1558,0.2223,0.2979,0.3411,0.4353,0.509,0.5554,0.5686,0.5954,0.6222,0.642,0.642,0.642,0.642,0.642,0.642,0.6679,0.7265,0.7396,0.7526,0.7847,0.8608,0.95,0.9773,1.0415,1.0996,1.1185,1.131,1.1373,1.1498,1.1622,1.1622,1.1622,1.1622,1.1622,1.1747,1.1996,1.2605,1.3025,1.3338,1.3216,1.3277,1.3381,1.4172,1.5001,1.542,1.5836,1.6581,1.6761,1.7043,1.7545,1.7865,1.8084,1.8614,1.9146,1.9251,1.921,1.9577,2.013,2.0592,2.1218,2.2369,2.34,2.4696,2.5455,2.594,2.616,2.6251,2.6776,2.6968,2.7071,2.7019,2.7086,2.7203,2.7595,2.7993,2.8431,2.8622,2.8716,2.8748,2.8295,2.8465,2.8763,2.8174,2.7494,2.7267,2.7381,2.7057,2.6911,2.6847,2.6879,2.7057,2.7332,2.7591,2.7737,-0.5014,-0.4901,-0.4743,-0.4632,-0.4349,-0.3181,-0.2681,-0.2571,-0.1422,-0.0922,-0.0693,-0.0,-0.0,-0.0,-0.0,-0.0,-0.0,0.0954,0.1276,0.1621,0.1965,0.2495,0.3251,0.3685,0.4521,0.5156,0.5554,0.58,0.6086,0.6288,0.642,0.642,0.642,0.642,0.642,0.642,0.6745,0.7461,0.7526,0.7526,0.7782,0.8047,0.856,0.9221,1.0002,1.0905,1.115,1.1192,1.138,1.156,1.156,1.1622,1.1622,1.1622,1.1622,1.1685,1.2058,1.2728,1.3277,1.364,1.37,1.3692,1.3983,1.4579,1.5059,1.5186,1.571,1.6513,1.7211,1.749,1.7711,1.7986,1.8302,1.904,1.9772,1.9577,1.938,1.9913,2.055,2.1,2.1429,2.2218,2.3179,2.3993,2.4818,2.5236,2.5452,2.5814,2.6792,2.727,2.7449,2.7494,2.756,2.7725,2.8024,2.8365,2.8748,2.9075,2.9198,2.9335,2.9441,2.9408,2.9221,2.8061,2.73,2.7138,2.6766,2.6118,2.5988,2.6118,2.6183,2.6393,2.6296,2.6442,2.6377,-0.5128,-0.5069,-0.4849,-0.4684,-0.4408,-0.3516,-0.3125,-0.2901,-0.179,-0.1344,-0.129,-0.0741,-0.0285,-0.0,-0.0,-0.0,-0.0,-0.0,0.2238,0.2722,0.2521,0.2921,0.3472,0.3977,0.4541,0.5159,0.5567,0.5921,0.6175,0.6354,0.642,0.6416,0.6416,0.642,0.642,0.6486,0.6745,0.7456,0.7526,0.7717,0.7772,0.7757,0.8146,0.8935,1.0021,1.0862,1.1094,1.1129,1.1317,1.1498,1.1622,1.1622,1.1622,1.1622,1.1622,1.1747,1.2174,1.2781,1.339,1.3881,1.4359,1.4588,1.4291,1.4824,1.5001,1.5177,1.5459,1.6322,1.7468,1.7931,1.7822,1.792,1.8302,1.8893,1.9823,2.0195,2.0144,2.036,2.0762,2.1059,2.1353,2.1572,2.2391,2.2874,2.3638,2.4348,2.4597,2.556,2.6561,2.7387,2.7591,2.7815,2.7849,2.8008,2.8201,2.8573,2.9045,2.9366,2.9592,2.9681,2.9681,2.9754,2.9529,2.8482,2.764,2.7106,2.6636,2.5924,2.5632,2.581,2.5778,2.5729,2.5616,2.5616,2.5762,-0.5301,-0.5242,-0.5014,-0.4846,-0.4632,-0.3907,-0.3569,-0.3347,-0.2347,-0.1903,-0.1903,-0.1179,-0.0617,-0.0,-0.0,-0.0,0.0505,0.1526,0.2762,0.3208,0.3121,0.3423,0.3716,0.4122,0.471,0.5181,0.5564,0.5927,0.6278,0.6319,0.6416,0.6449,0.6474,0.6416,0.6482,0.6482,0.6745,0.7391,0.7782,0.8166,0.7872,0.751,0.8179,0.9192,1.0155,1.0735,1.1024,1.1192,1.131,1.1435,1.1622,1.1622,1.1685,1.1747,1.1685,1.1802,1.2297,1.2903,1.345,1.4052,1.501,1.5604,1.5069,1.4942,1.5177,1.5565,1.5843,1.6415,1.7567,1.803,1.7975,1.803,1.841,1.8999,1.9926,2.0712,2.0649,2.0649,2.0885,2.1131,2.1277,2.1353,2.1595,2.2038,2.2658,2.3362,2.4095,2.5246,2.6234,2.6944,2.7468,2.771,2.7911,2.81,2.835,2.8716,2.9137,2.9412,2.9592,2.9786,2.9918,2.9902,2.9691,2.9081,2.8288,2.7413,2.6636,2.5956,2.5762,2.5616,2.5616,2.5616,2.5616,2.5616,2.5616,-0.5242,-0.5128,-0.4956,-0.4849,-0.4577,-0.3907,-0.3624,-0.3403,-0.2516,-0.2071,-0.1905,-0.1289,-0.0785,-0.0673,-0.0,0.0168,0.0729,0.168,0.2015,0.2375,0.3525,0.387,0.403,0.4374,0.4887,0.5286,0.5544,0.577,0.6095,0.6232,0.6514,0.6885,0.6555,0.665,0.7111,0.7046,0.6902,0.7543,0.8221,0.8748,0.9332,0.9046,0.8726,0.9478,1.0226,1.0658,1.1017,1.1136,1.138,1.1498,1.1622,1.1622,1.1802,1.1988,1.2112,1.2112,1.2544,1.2972,1.3571,1.4231,1.5245,1.6144,1.5778,1.5941,1.6332,1.6944,1.7056,1.7,1.7799,1.8073,1.8127,1.8302,1.8679,1.946,2.0347,2.0599,2.0699,2.0699,2.0799,2.1033,2.1229,2.1229,2.1193,2.1712,2.2352,2.281,2.2729,2.3829,2.5135,2.6168,2.7165,2.7457,2.7719,2.8104,2.8273,2.8748,2.9137,2.9396,2.9637,2.983,2.9918,2.9918,2.9626,2.9178,2.8352,2.7413,2.6685,2.6118,2.5762,2.5616,2.5616,2.5616,2.5616,2.5616,2.5616]},{"header":{"parameterUnit":"m.s-1","parameterCategory":1,"la1":31.0,"la2":29.5877,"lo1":-88.7671,"lo2":-86.6584,"dx":0.0162,"dy":0.0185,"nx":115,"ny":88,"refTime":"2022-12-10T06:00:00:Z","depth":0,"parameterNumber":3,"parameterNumberName":"V-component_of_WINDS"},"data":[0.0,0.0,0.0,0.0,0.0,0.0,0.0,0.0,0.0,0.0,0.0,0.0,0.0,0.0,0.0,0.0,0.0,0.0,0.0,0.0,0.0,0.0,0.0,0.0,0.0,0.0,0.0,0.0,0.0,0.0,0.0,0.0,0.0,0.0,0.0,0.0,0.0,0.0,0.0,0.0,0.0,0.0,0.0,0.0,0.0,0.0,0.0,0.0,0.0,0.0,0.0,0.0,0.0,0.0,0.0,0.0,0.0,0.0,0.0,0.0,0.0,0.0,0.0,0.0,0.0,0.0,0.0,0.0,0.0,0.0,0.0,0.0,0.0,0.0,0.0,0.0,0.0,0.0,0.0,0.0,0.0,0.0,0.0,0.0,0.0,0.0,0.0,0.0,0.0,0.0,0.0,0.0,0.0,0.0,0.0,0.0,0.0,0.0,0.0,0.0,0.0,0.0,0.0,0.0,0.0,0.0,0.0,0.0,0.0,0.0,0.0,0.0,0.0,0.0,0.0,0.0,0.0,0.0,0.0,0.0,0.0,0.0,0.0,0.0,0.0,0.0,0.0,0.0,0.0,0.0,0.0,0.0,0.0,0.0,0.0,0.0,0.0,0.0,0.0,0.0,0.0,0.0,0.0,0.0,0.0,0.0,0.0,0.0,0.0,0.0,0.0,0.0,0.0,0.0,0.0,0.0,0.0,0.0,0.0,0.0,0.0,0.0,0.0,0.0,0.0,0.0,0.0,0.0,0.0,0.0,0.0,0.0,0.0,0.0,0.0,0.0,0.0,0.0,0.0,0.0,0.0,0.0,0.0,0.0,0.0,0.0,0.0,0.0,0.0,0.0,0.0,0.0,0.0,0.0,0.0,0.0,0.0,0.0,0.0,0.0,0.0,0.0,0.0,0.0,0.0,0.0,0.0,0.0,0.0,0.0,0.0,0.0,0.0,0.0,0.0,0.0,0.0,0.0,0.0,0.0,0.0,0.0,0.0,0.0,0.0,0.0,0.0,0.0,0.0,0.0,0.0,0.0,0.0,0.0,0.0,0.0,0.0,0.0,0.0,0.0,0.0,0.0,0.0,0.0,0.0,0.0,0.0,0.0,0.0,0.0,0.0,0.0,0.0,0.0,0.0,0.0,0.0,0.0,0.0,0.0,0.0,0.0,0.0,0.0,0.0,0.0,0.0,0.0,0.0,0.0,0.0,0.0,0.0,0.0,0.0,0.0,0.0,0.0,0.0,0.0,0.0,0.0,0.0,0.0,0.0,0.0,0.0,0.0,0.0,0.0,0.0,0.0,0.0,0.0,0.0,0.0,0.0,0.0,0.0,0.0,0.0,0.0,0.0,0.0,0.0,0.0,0.0,0.0,0.0,0.0,0.0,0.0,0.0,0.0,0.0,0.0,0.0,0.0,0.0,0.0,0.0,0.0,0.0,0.0,0.0,0.0,0.0,0.0,0.0,0.0,0.0,0.0,0.0,0.0,0.0,0.0,0.0,0.0,0.0,0.0,0.0,0.0,0.0,0.0,0.0,0.0,0.0,0.0,0.0,0.0,0.0,0.0,0.0,0.0,0.0,0.0,0.0,0.0,0.0,0.0,0.0,0.0,0.0,0.0,0.0,0.0,0.0,0.0,0.0,0.0,0.0,0.0,0.0,0.0,0.0,0.0,0.0,0.0,0.0,0.0,0.0,0.0,0.0,0.0,0.0,0.0,0.0,0.0,0.0,0.0,0.0,0.0,0.0,0.0,0.0,0.0,0.0,0.0,0.0,0.0,0.0,0.0,0.0,0.0,0.0,0.0,0.0,0.0,0.0,0.0,0.0,0.0,0.0,0.0,0.0,0.0,0.0,0.0,0.0,0.0,0.0,0.0,0.0,0.0,0.0,0.0,0.0,0.0,0.0,0.0,0.0,0.0,0.0,0.0,0.0,0.0,0.0,0.0,0.0,0.0,0.0,0.0,0.0,0.0,0.0,0.0,0.0,0.0,0.0,0.0,0.0,0.0,0.0,0.0,0.0,0.0,0.0,0.0,0.0,0.0,0.0,0.0,0.0,0.0,0.0,0.0,0.0,0.0,0.0,0.0,0.0,0.0,0.0,0.0,0.0,0.0,0.0,0.0,0.0,0.0,0.0,0.0,0.0,0.0,0.0,0.0,0.0,0.0,0.0,0.0,0.0,0.0,0.0,0.0,0.0,0.0,0.0,0.0,0.0,0.0,0.0,0.0,0.0,0.0,0.0,0.0,0.0,0.0,0.0,0.0,0.0,0.0,0.0,0.0,0.0,0.0,0.0,0.0,0.0,0.0,0.0,0.0,0.0,0.0,0.0,0.0,0.0,0.0,0.0,0.0,0.0,0.0,0.0,0.0,0.0,0.0,0.0,0.0,0.0,0.0,0.0,0.0,0.0,0.0,0.0,0.0,0.0,0.0,0.0,0.0,0.0,0.0,0.0,0.0,0.0,0.0,0.0,0.0,0.0,0.0,0.0,0.0,0.0,0.0,0.0,0.0,0.0,0.0,0.0,0.0,0.0,0.0,0.0,0.0,0.0,0.0,0.0,0.0,0.0,0.0,0.0,0.0,0.0,0.0,0.0,0.0,0.0,0.0,0.0,0.0,0.0,0.0,0.0,0.0,0.0,0.0,0.0,0.0,0.0,0.0,0.0,0.0,0.0,0.0,0.0,0.0,0.0,0.0,0.0,0.0,0.0,0.0,0.0,0.0,0.0,0.0,0.0,0.0,0.0,0.0,0.0,0.0,0.0,0.0,0.0,0.0,0.0,0.0,0.0,0.0,0.0,0.0,0.0,0.0,0.0,0.0,0.0,0.0,0.0,0.0,0.0,0.0,0.0,0.0,0.0,0.0,0.0,0.0,0.0,0.0,0.0,0.0,0.0,0.0,0.0,0.0,0.0,0.0,0.0,0.0,0.0,0.0,0.0,0.0,0.0,0.0,0.0,0.0,0.0,0.0,0.0,0.0,0.0,0.0,0.0,0.0,0.0,0.0,0.0,0.0,0.0,0.0,0.0,0.0,0.0,0.0,0.0,0.0,0.0,0.0,0.0,0.0,0.0,0.0,0.0,0.0,0.0,0.0,0.0,0.0,0.0,0.0,0.0,0.0,0.0,0.0,0.0,0.0,0.0,0.0,0.0,0.0,0.0,0.0,0.0,0.0,0.0,0.0,0.0,0.0,0.0,0.0,0.0,0.0,0.0,0.0,0.0,0.0,0.0,0.0,0.0,0.0,0.0,0.0,0.0,0.0,0.0,0.0,0.0,0.0,0.0,0.0,0.0,0.0,0.0,0.0,0.0,0.0,0.0,0.0,0.0,0.0,0.0,0.0,0.0,0.0,0.0,0.0,0.0,0.0,0.0,0.0,0.0,0.0,0.0,0.0,0.0,0.0,0.0,0.0,0.0,0.0,0.0,0.0,0.0,0.0,0.0,0.0,0.0,0.0,0.0,0.0,0.0,0.0,0.0,0.0,0.0,0.0,0.0,0.0,0.0,0.0,0.0,0.0,0.0,0.0,0.0,0.0,0.0,0.0,0.0,0.0,0.0,0.0,0.0,0.0,0.0,0.0,0.0,0.0,0.0,0.0,0.0,0.0,0.0,0.0,0.0,0.0,0.0,0.0,0.0,0.0,0.0,0.0,0.0,0.0,0.0,0.0,0.0,0.0,0.0,0.0,0.0,0.0,0.0,0.0,0.0,0.0,0.0,0.0,0.0,0.0,0.0,0.0,0.0,0.0,0.0,0.0,0.0,0.0,0.0,0.0,0.0,0.0,0.0,0.0,0.0,0.0,0.0,0.0,0.0,0.0,0.0,0.0,0.0,0.0,0.0,0.0,0.0,0.0,0.0,0.0,0.0,0.0,0.0,0.0,0.0,0.0,0.0,0.0,0.0,0.0,0.0,0.0,0.0,0.0,0.0,0.0,0.0,0.0,0.0,0.0,0.0,0.0,0.0,0.0,0.0,0.0,0.0,0.0,0.0,0.0,0.0,0.0,0.0,0.0,0.0,0.0,0.0,0.0,0.0,0.0,0.0,0.0,0.0,0.0,0.0,0.0,0.0,0.0,0.0,0.0,0.0,0.0,0.0,0.0,0.0,0.0,0.0,0.0,0.0,0.0,0.0,0.0,0.0,0.0,0.0,0.0,0.0,0.0,0.0,0.0,0.0,0.0,0.0,0.0,0.0,0.0,0.0,0.0,0.0,0.0,0.0,0.0,0.0,0.0,0.0,0.0,0.0,0.0,0.0,0.0,-0.4712,0.0,0.0,0.0,-0.1453,0.0,0.0,0.0,0.0,0.0,0.0,0.0,0.0,0.0,0.0,0.0,0.0,0.0,0.0,0.0,0.0,0.0,0.0,0.0,0.0,0.0,0.0,0.0,0.0,0.0,0.0,0.0,0.0,0.0,0.0,0.0,0.0,0.0,0.0,0.0,0.0,0.0,0.0,0.0,0.0,0.0,0.0,0.0,0.0,0.0,0.0,0.0,0.0,0.0,0.0,0.0,0.0,0.0,0.0,0.0,0.0,0.0,0.0,0.0,0.0,0.0,0.0,0.0,0.0,0.0,0.0,0.0,0.0,0.0,0.0,0.0,0.0,0.0,0.0,0.0,0.0,0.0,0.0,0.0,0.0,0.0,0.0,0.0,0.0,0.0,0.0,0.0,0.0,0.0,0.0,0.0,0.0,0.0,0.0,0.0,0.0,0.0,0.0,0.0,0.0,0.0,0.0,0.0,0.0,0.0,0.0,0.0,0.0,0.0,0.0,-0.4426,-0.2555,-0.4495,-0.416,-0.1164,0.0,0.0,0.0,0.0,0.0,0.0,0.0,0.0,0.0,0.0,0.0,0.0,0.0,0.0,0.0,0.0,0.0,0.0,0.0,0.0,0.0,0.0,0.0,0.0,0.0,0.0,0.0,0.0,0.0,0.0,0.0,0.0,0.0,0.0,0.0,0.0,0.0,0.0,0.0,0.0,0.0,0.0,0.0,0.0,0.0,0.0,0.0,0.0,0.0,0.0,0.0,0.0,0.0,0.0,0.0,0.0,0.0,0.0,0.0,0.0,0.0,0.0,0.0,0.0,0.0,0.0,0.0,0.0,0.0,0.0,0.0,0.0,0.0,0.0,0.0,0.0,0.0,0.0,0.0,0.0,0.0,0.0,0.0,0.0,0.0,0.0,0.0,0.0,0.0,0.0,0.0,0.0,0.0,0.0,0.0,0.0,0.0,0.0,0.0,0.0,0.0,0.0,0.0,0.0,0.0,0.0,0.0,0.0,0.0,0.0,0.0,0.0,-0.4829,-0.4733,-0.196,0.0,0.0,0.0,0.0,0.0,0.0,0.0,0.0,0.0,0.0,0.0,0.0,0.0,0.0,0.0,0.0,0.0,0.0,0.0,0.0,0.0,0.0,0.0,0.0,0.0,0.0,0.0,0.0,0.0,0.0,0.0,0.0,0.0,0.0,0.0,0.0,0.0,0.0,0.0,0.0,0.0,0.0,0.0,0.0,0.0,0.0,0.0,0.0,0.0,0.0,0.0,0.0,0.0,0.0,0.0,0.0,0.0,0.0,0.0,0.0,0.0,0.0,0.0,0.0,0.0,0.0,0.0,0.0,0.0,0.0,0.0,0.0,0.0,0.0,0.0,0.0,0.0,0.0,0.0,0.0,0.0,0.0,0.0,0.0,0.0,0.0,0.0,0.0,0.0,0.0,0.0,0.0,0.0,0.0,0.0,0.0,0.0,0.0,0.0,0.0,0.0,0.0,0.0,0.0,0.0,0.0,0.0,0.0,0.0,0.0,-0.2929,-0.4053,-0.4431,0.0,-0.4146,0.0,0.0,0.0,0.0,0.0,0.0,0.0,0.0,0.0,0.0,0.0,0.0,0.0,0.0,0.0,0.0,0.0,0.0,0.0,0.0,0.0,0.0,0.0,0.0,0.0,0.0,0.0,0.0,0.0,0.0,0.0,0.0,0.0,0.0,0.0,0.0,0.0,0.0,0.0,0.0,0.0,0.0,0.0,0.0,0.0,0.0,0.0,0.0,0.0,0.0,0.0,0.0,0.0,0.0,0.0,0.0,0.0,0.0,0.0,0.0,0.0,0.0,0.0,0.0,0.0,0.0,0.0,0.0,0.0,0.0,0.0,0.0,0.0,0.0,0.0,0.0,0.0,0.0,0.0,0.0,0.0,0.0,0.0,0.0,0.0,0.0,0.0,0.0,0.0,0.0,0.0,0.0,0.0,0.0,0.0,0.0,0.0,0.0,0.0,0.0,0.0,0.0,0.0,0.0,0.0,0.0,0.0,0.0,0.0,0.0,-0.4812,-0.4217,-0.4826,-0.4905,0.0,0.0,0.0,0.0,0.0,0.0,0.0,0.0,0.0,0.0,0.0,0.0,0.0,0.0,0.0,0.0,0.0,0.0,0.0,0.0,0.0,0.0,0.0,0.0,0.0,0.0,0.0,0.0,0.0,0.0,0.0,0.0,0.0,0.0,0.0,0.0,0.0,0.0,0.0,0.0,0.0,0.0,0.0,0.0,0.0,0.0,0.0,0.0,0.0,0.0,0.0,0.0,0.0,0.0,0.0,0.0,0.0,0.0,0.0,0.0,0.0,0.0,0.0,0.0,0.0,0.0,0.0,0.0,0.0,0.0,0.0,0.0,0.0,0.0,0.0,0.0,0.0,0.0,0.0,0.0,0.0,0.0,0.0,0.0,0.0,0.0,0.0,0.0,0.0,0.0,0.0,0.0,0.0,0.0,0.0,0.0,0.0,0.0,0.0,0.0,0.0,0.0,0.0,0.0,0.0,0.0,0.0,0.0,0.0,0.0,-0.5257,-0.5832,-0.5042,-0.5686,-0.6034,-0.5925,0.0,0.0,0.0,0.0,0.0,0.0,0.0,0.0,0.0,0.0,0.0,0.0,0.0,0.0,0.0,0.0,0.0,0.0,0.0,0.0,0.0,0.0,0.0,0.0,0.0,0.0,0.0,0.0,0.0,0.0,0.0,0.0,0.0,0.0,0.0,0.0,0.0,0.0,0.0,0.0,0.0,0.0,0.0,0.0,0.0,0.0,0.0,0.0,0.0,0.0,0.0,0.0,0.0,0.0,0.0,0.0,0.0,0.0,0.0,0.0,0.0,0.0,0.0,0.0,0.0,0.0,0.0,0.0,0.0,0.0,0.0,0.0,0.0,0.0,0.0,0.0,0.0,0.0,0.0,0.0,0.0,0.0,0.0,0.0,0.0,0.0,0.0,0.0,0.0,0.0,0.0,0.0,0.0,0.0,0.0,0.0,0.0,0.0,0.0,0.0,0.0,0.0,0.0,0.0,0.0,0.0,0.0,0.0,-0.3991,-0.4055,-0.4987,-0.6928,-0.7035,-0.7946,0.0,0.0,0.0,0.0,0.0,0.0,0.0,0.0,0.0,0.0,0.0,0.0,0.0,0.0,0.0,0.0,0.0,0.0,0.0,0.0,0.0,0.0,0.0,0.0,0.0,0.0,0.0,0.0,0.0,0.0,0.0,0.0,0.0,0.0,0.0,0.0,0.0,0.0,0.0,0.0,0.0,0.0,0.0,0.0,0.0,0.0,0.0,0.0,0.0,0.0,0.0,0.0,0.0,0.0,0.0,0.0,0.0,0.0,0.0,0.0,0.0,0.0,0.0,0.0,0.0,0.0,0.0,0.0,0.0,0.0,0.0,0.0,0.0,0.0,0.0,0.0,0.0,0.0,0.0,0.0,0.0,0.0,0.0,0.0,0.0,0.0,0.0,0.0,0.0,0.0,0.0,0.0,0.0,0.0,0.0,0.0,0.0,0.0,0.0,0.0,0.0,0.0,0.0,0.0,0.0,0.0,0.0,0.0,0.0,-0.7711,-0.7926,-0.7595,-0.7029,-0.8326,-0.9435,0.0,0.0,0.0,0.0,0.0,0.0,0.0,0.0,0.0,0.0,0.0,0.0,0.0,0.0,0.0,0.0,0.0,0.0,0.0,0.0,0.0,0.0,0.0,0.0,0.0,0.0,0.0,0.0,0.0,0.0,0.0,0.0,0.0,0.0,0.0,0.0,0.0,0.0,0.0,0.0,0.0,0.0,0.0,0.0,0.0,0.0,0.0,0.0,0.0,0.0,0.0,0.0,0.0,0.0,0.0,0.0,0.0,0.0,0.0,0.0,0.0,0.0,0.0,0.0,0.0,0.0,0.0,0.0,0.0,0.0,0.0,0.0,0.0,0.0,0.0,0.0,0.0,0.0,0.0,0.0,0.0,0.0,0.0,0.0,0.0,0.0,0.0,0.0,0.0,0.0,0.0,0.0,0.0,0.0,0.0,0.0,0.0,0.0,0.0,0.0,0.0,0.0,0.0,0.0,0.0,0.0,0.0,0.0,0.0,-0.8278,-0.8866,-0.814,-0.6443,-0.8764,-0.9121,0.0,0.0,0.0,0.0,0.0,0.0,0.0,0.0,0.0,0.0,0.0,0.0,0.0,0.0,0.0,0.0,0.0,0.0,0.0,0.0,0.0,0.0,0.0,0.0,0.0,0.0,0.0,0.0,0.0,0.0,0.0,0.0,0.0,0.0,0.0,0.0,0.0,0.0,0.0,0.0,0.0,0.0,0.0,0.0,0.0,0.0,0.0,0.0,0.0,0.0,0.0,0.0,0.0,0.0,0.0,0.0,0.0,0.0,0.0,0.0,0.0,0.0,0.0,0.0,0.0,0.0,0.0,0.0,0.0,0.0,0.0,0.0,0.0,0.0,0.0,0.0,0.0,0.0,0.0,0.0,0.0,0.0,0.0,0.0,0.0,0.0,0.0,0.0,0.0,0.0,0.0,0.0,0.0,0.0,0.0,0.0,0.0,0.0,0.0,0.0,0.0,0.0,0.0,0.0,0.0,0.0,0.0,0.0,-0.488,-0.5,-0.6241,-0.6465,-0.528,-0.808,-0.6763,0.0,0.0,0.0,0.0,0.0,0.0,0.0,0.0,0.0,0.0,0.0,0.0,0.0,0.0,0.0,0.0,0.0,0.0,0.0,0.0,0.0,0.0,0.0,0.0,0.0,0.0,0.0,0.0,0.0,0.0,0.0,0.0,0.0,0.0,0.0,0.0,0.0,0.0,0.0,0.0,0.0,0.0,0.0,0.0,0.0,0.0,0.0,0.0,0.0,0.0,0.0,0.0,0.0,0.0,0.0,0.0,0.0,0.0,0.0,0.0,0.0,0.0,0.0,0.0,0.0,0.0,0.0,0.0,0.0,0.0,0.0,0.0,0.0,0.0,0.0,0.0,0.0,0.0,0.0,0.0,0.0,0.0,0.0,0.0,0.0,0.0,0.0,0.0,0.0,0.0,0.0,0.0,0.0,0.0,0.0,0.0,0.0,0.0,0.0,0.0,0.0,0.0,0.0,0.0,0.0,0.0,0.0,0.0,0.0,-0.4742,-0.74,-0.8305,-0.714,-0.4489,-0.3236,0.0,0.0,0.0,0.0,0.0,0.0,0.0,0.0,0.0,0.0,0.0,0.0,0.0,0.0,0.0,0.0,0.0,0.0,0.0,0.0,0.0,0.0,0.0,0.0,0.0,0.0,0.0,0.0,0.0,0.0,0.0,0.0,0.0,0.0,0.0,0.0,0.0,0.0,0.0,0.0,0.0,0.0,0.0,0.0,0.0,0.0,0.0,0.0,0.0,0.0,0.0,0.0,0.0,0.0,0.0,0.0,0.0,0.0,0.0,0.0,0.0,0.0,0.0,0.0,0.0,0.0,0.0,0.0,0.0,0.0,0.0,0.0,0.0,0.0,0.0,0.0,0.0,0.0,0.0,0.0,0.0,0.0,0.0,0.0,0.0,0.0,0.0,0.0,0.0,0.0,0.0,0.0,0.0,0.0,0.0,0.0,0.0,0.0,0.0,0.0,0.0,0.0,0.0,0.0,0.0,0.0,0.0,0.0,0.0,-0.6579,-0.8922,-0.9727,-0.8681,-0.4979,-0.307,-0.3133,0.0,0.0,0.0,0.0,0.0,0.0,0.0,0.0,0.0,0.0,0.0,0.0,0.0,0.0,0.0,0.0,0.0,0.0,0.0,0.0,0.0,0.0,0.0,0.0,0.0,0.0,0.0,0.0,0.0,0.0,0.0,0.0,0.0,0.0,0.0,0.0,0.0,0.0,0.0,0.0,0.0,0.0,0.0,0.0,0.0,0.0,0.0,0.0,0.0,0.0,0.0,0.0,0.0,0.0,0.0,0.0,0.0,0.0,0.0,0.0,0.0,0.0,0.0,0.0,0.0,0.0,0.0,0.0,0.0,0.0,0.0,0.0,0.0,0.0,0.0,0.0,0.0,0.0,0.0,0.0,0.0,0.0,0.0,0.0,0.0,0.0,0.0,0.0,0.0,0.0,0.0,0.0,0.0,0.0,0.0,0.0,0.0,0.0,0.0,0.0,0.0,0.0,0.0,0.0,0.0,0.0,0.0,0.0,-0.9814,-1.0683,-1.0698,-0.9672,-0.8573,-0.5657,0.0,0.0,0.0,0.0,0.0,0.0,0.0,0.0,0.0,0.0,0.0,0.0,0.0,0.0,0.0,0.0,0.0,0.0,0.0,0.0,0.0,0.0,0.0,0.0,0.0,0.0,0.0,0.0,0.0,0.0,0.0,0.0,0.0,0.0,0.0,0.0,0.0,0.0,0.0,0.0,0.0,0.0,0.0,0.0,0.0,0.0,0.0,0.0,0.0,0.0,0.0,0.0,0.0,0.0,0.0,0.0,0.0,0.0,0.0,0.0,0.0,0.0,0.0,0.0,0.0,0.0,0.0,0.0,0.0,0.0,0.0,0.0,0.0,0.0,0.0,0.0,0.0,0.0,0.0,0.0,0.0,0.0,0.0,0.0,0.0,0.0,0.0,0.0,0.0,0.0,0.0,0.0,0.0,0.0,0.0,0.0,0.0,0.0,0.0,0.0,0.0,0.0,0.0,0.0,0.0,0.0,0.0,0.0,0.0,-1.2144,-1.3593,-1.3135,-1.0573,-0.8839,-0.6936,0.0,0.0,0.0,0.0,0.0,0.0,0.0,0.0,0.0,0.0,0.0,0.0,0.0,0.0,0.0,0.0,0.0,0.0,0.0,0.0,0.0,0.0,0.0,0.0,0.0,0.0,0.0,0.0,0.0,0.0,0.0,0.0,0.0,0.0,0.0,0.0,0.0,0.0,0.0,0.0,0.0,0.0,0.0,0.0,0.0,0.0,0.0,0.0,0.0,0.0,0.0,0.0,0.0,0.0,0.0,0.0,0.0,0.0,0.0,0.0,0.0,0.0,0.0,0.0,0.0,0.0,0.0,0.0,0.0,0.0,0.0,0.0,0.0,0.0,0.0,0.0,0.0,0.0,0.0,0.0,0.0,0.0,0.0,0.0,0.0,0.0,0.0,0.0,0.0,0.0,0.0,0.0,0.0,0.0,0.0,0.0,0.0,0.0,0.0,0.0,0.0,0.0,0.0,0.0,0.0,0.0,0.0,0.0,-1.2539,-1.36,-1.5548,-1.5588,-1.3464,-1.1333,-0.8972,0.0,0.0,0.0,0.0,0.0,0.0,0.0,0.0,0.0,0.0,0.0,0.0,0.0,0.0,0.0,0.0,0.0,0.0,0.0,0.0,0.0,0.0,0.0,0.0,0.0,0.0,0.0,0.0,0.0,0.0,0.0,0.0,0.0,0.0,0.0,0.0,0.0,0.0,0.0,0.0,0.0,0.0,0.0,0.0,0.0,0.0,0.0,0.0,0.0,0.0,0.0,0.0,0.0,0.0,0.0,0.0,0.0,0.0,0.0,0.0,0.0,0.0,0.0,0.0,0.0,0.0,0.0,0.0,0.0,0.0,0.0,0.0,0.0,0.0,0.0,0.0,0.0,0.0,0.0,0.0,0.0,0.0,0.0,0.0,0.0,0.0,0.0,0.0,0.0,0.0,0.0,0.0,0.0,0.0,0.0,0.0,0.0,0.0,0.0,0.0,0.0,0.0,0.0,0.0,0.0,0.0,0.0,0.0,-1.3882,-1.4806,-1.699,-1.7855,-1.7209,-1.4731,-1.1286,0.0,0.0,0.0,0.0,0.0,0.0,0.0,0.0,0.0,0.0,0.0,0.0,0.0,0.0,0.0,0.0,0.0,0.0,0.0,0.0,0.0,0.0,0.0,0.0,0.0,0.0,0.0,0.0,0.0,0.0,0.0,0.0,0.0,0.0,0.0,0.0,0.0,0.0,0.0,0.0,0.0,0.0,0.0,0.0,0.0,0.0,0.0,0.0,0.0,0.0,0.0,0.0,0.0,0.0,0.0,0.0,0.0,0.0,0.0,0.0,0.0,0.0,0.0,0.0,0.0,0.0,0.0,0.0,0.0,0.0,0.0,0.0,0.0,0.0,0.0,0.0,0.0,0.0,0.0,0.0,0.0,0.0,0.0,0.0,0.0,0.0,0.0,0.0,0.0,0.0,0.0,0.0,0.0,0.0,0.0,0.0,0.0,0.0,0.0,0.0,0.0,0.0,0.0,0.0,0.0,0.0,0.0,0.0,-1.5251,-1.7346,-1.8513,-1.9058,-1.8938,-1.5209,-1.2118,0.0,0.0,0.0,0.0,0.0,0.0,0.0,0.0,0.0,0.0,0.0,0.0,0.0,0.0,0.0,0.0,0.0,0.0,0.0,0.0,0.0,0.0,0.0,0.0,0.0,0.0,0.0,0.0,0.0,0.0,0.0,0.0,0.0,0.0,0.0,0.0,0.0,0.0,0.0,0.0,0.0,0.0,0.0,0.0,0.0,0.0,0.0,0.0,-0.3811,0.0,0.0,0.0,0.0,0.0,0.0,0.0,0.0,0.0,0.0,0.0,0.0,0.0,0.0,0.0,0.0,0.0,0.0,0.0,0.0,0.0,0.0,0.0,0.0,0.0,0.0,0.0,0.0,0.0,0.0,0.0,0.0,0.0,0.0,0.0,0.0,0.0,0.0,0.0,0.0,0.0,0.0,0.0,0.0,0.0,0.0,0.0,0.0,0.0,0.0,0.0,0.0,0.0,0.0,0.0,0.0,0.0,0.0,0.0,-1.5668,-1.8089,-1.8988,-1.9413,-1.932,-1.6914,-1.4294,0.0,0.0,0.0,0.0,0.0,0.0,0.0,0.0,0.0,0.0,0.0,0.0,0.0,0.0,0.0,0.0,0.0,0.0,0.0,0.0,0.0,0.0,0.0,0.0,0.0,0.0,0.0,0.0,0.0,0.0,0.0,0.0,0.0,0.0,0.0,0.0,0.0,0.0,0.0,0.0,0.0,0.0,0.0,0.0,0.0,0.0,0.0,0.0,0.0,0.0,0.0,0.0,0.0,0.0,0.0,0.0,0.0,0.0,0.0,0.0,0.0,0.0,0.0,0.0,0.0,0.0,0.0,0.0,0.0,0.0,0.0,0.0,0.0,0.0,0.0,0.0,0.0,0.0,0.0,0.0,0.0,0.0,0.0,0.0,0.0,0.0,0.0,0.0,0.0,0.0,0.0,0.0,0.0,0.0,0.0,0.0,0.0,0.0,0.0,0.0,0.0,0.0,0.0,0.0,0.0,0.0,0.0,-1.418,-1.5858,-1.818,-1.9118,-1.9488,-1.9344,-1.8716,-1.6414,-1.2315,0.0,0.0,0.0,0.0,0.0,0.0,0.0,0.0,0.0,0.0,0.0,0.0,0.0,0.0,0.0,0.0,0.0,0.0,0.0,0.0,0.0,0.0,0.0,0.0,0.0,0.0,0.0,0.0,0.0,0.0,0.0,0.0,0.0,0.0,0.0,0.0,0.0,0.0,-0.625,-0.7037,0.0,0.0,0.0,0.0,0.0,0.0,0.0,0.0,-0.7155,0.0,0.0,0.0,0.0,0.0,0.0,0.0,0.0,0.0,0.0,0.0,0.0,0.0,0.0,0.0,0.0,0.0,0.0,0.0,0.0,0.0,0.0,0.0,0.0,0.0,0.0,0.0,0.0,0.0,0.0,0.0,0.0,0.0,0.0,0.0,0.0,0.0,0.0,0.0,0.0,0.0,0.0,0.0,0.0,0.0,0.0,0.0,0.0,0.0,0.0,0.0,0.0,0.0,0.0,0.0,0.0,-1.4162,-1.5086,-1.6665,-1.9041,-1.9845,-2.0018,-1.9546,-1.8647,-1.6269,-1.2475,0.0,0.0,0.0,0.0,0.0,0.0,0.0,0.0,0.0,0.0,0.0,0.0,0.0,0.0,0.0,0.0,0.0,0.0,0.0,0.0,0.0,0.0,0.0,0.0,0.0,0.0,0.0,0.0,0.0,0.0,0.0,0.0,0.0,0.0,0.0,0.0,0.0,0.0,0.0,-1.1103,-1.1837,0.0,0.0,0.0,0.0,0.0,0.0,0.0,0.0,-0.8296,0.0,0.0,0.0,0.0,0.0,0.0,0.0,0.0,0.0,0.0,0.0,0.0,0.0,0.0,0.0,0.0,0.0,0.0,0.0,0.0,0.0,0.0,0.0,0.0,0.0,0.0,0.0,0.0,0.0,0.0,0.0,0.0,0.0,0.0,0.0,0.0,0.0,0.0,0.0,0.0,0.0,0.0,0.0,0.0,0.0,0.0,0.0,0.0,0.0,0.0,0.0,0.0,0.0,0.0,0.0,-1.3922,-1.6759,-1.8974,-2.0431,-2.0851,-2.0868,-2.057,-1.9444,-1.6891,0.0,0.0,0.0,0.0,0.0,0.0,0.0,0.0,0.0,0.0,0.0,0.0,0.0,0.0,0.0,0.0,0.0,0.0,0.0,0.0,0.0,0.0,0.0,0.0,0.0,0.0,0.0,0.0,0.0,0.0,0.0,0.0,0.0,0.0,0.0,0.0,0.0,0.0,0.0,0.0,-1.2405,-1.3315,-1.3479,0.0,0.0,0.0,0.0,0.0,0.0,-0.8433,-0.845,0.0,0.0,0.0,0.0,0.0,0.0,0.0,0.0,0.0,0.0,0.0,0.0,0.0,0.0,0.0,0.0,0.0,0.0,0.0,0.0,0.0,0.0,0.0,0.0,0.0,0.0,0.0,0.0,0.0,0.0,0.0,0.0,0.0,0.0,0.0,0.0,0.0,0.0,0.0,0.0,0.0,0.0,0.0,0.0,0.0,0.0,0.0,0.0,0.0,0.0,0.0,0.0,0.0,0.0,0.0,-1.3586,-1.7973,-2.0772,-2.157,-2.1734,-2.1734,-2.1498,-2.0139,-1.7446,0.0,0.0,0.0,0.0,0.0,0.0,0.0,0.0,0.0,0.0,0.0,0.0,0.0,0.0,0.0,0.0,0.0,0.0,0.0,0.0,0.0,0.0,0.0,0.0,0.0,0.0,0.0,0.0,0.0,0.0,0.0,0.0,0.0,0.0,0.0,0.0,0.0,0.0,0.0,0.0,0.0,-1.4556,-1.5008,-1.1241,0.0,0.0,0.0,0.0,-1.0319,-0.9721,0.0,0.0,0.0,0.0,0.0,0.0,0.0,0.0,0.0,0.0,0.0,0.0,0.0,0.0,0.0,0.0,0.0,0.0,0.0,0.0,0.0,0.0,0.0,0.0,0.0,0.0,0.0,0.0,0.0,0.0,0.0,0.0,0.0,0.0,0.0,0.0,0.0,0.0,0.0,0.0,0.0,0.0,0.0,0.0,0.0,0.0,0.0,0.0,0.0,0.0,0.0,0.0,0.0,0.0,0.0,0.0,-1.3513,-1.7388,-2.0168,-2.1623,-2.2277,-2.2236,-2.1589,-2.0011,-1.7293,0.0,0.0,0.0,0.0,0.0,0.0,0.0,0.0,0.0,0.0,0.0,0.0,0.0,0.0,0.0,0.0,0.0,0.0,0.0,0.0,0.0,0.0,0.0,0.0,0.0,0.0,0.0,0.0,0.0,0.0,0.0,0.0,0.0,0.0,0.0,0.0,0.0,0.0,0.0,0.0,0.0,-1.6927,-1.4732,-1.2507,-1.1436,0.0,0.0,-0.9893,-1.2688,-0.954,0.0,0.0,0.0,0.0,0.0,0.0,0.0,0.0,0.0,0.0,0.0,0.0,0.0,0.0,0.0,0.0,0.0,0.0,0.0,0.0,0.0,0.0,0.0,0.0,0.0,0.0,0.0,0.0,0.0,0.0,0.0,0.0,0.0,0.0,0.0,0.0,0.0,0.0,0.0,0.0,0.0,0.0,0.0,0.0,0.0,0.0,0.0,0.0,0.0,0.0,0.0,0.0,0.0,0.0,0.0,-1.3587,-1.4147,-1.9346,-2.2373,-2.2863,-2.3161,-2.3177,-2.2842,-2.0856,-1.7891,0.0,0.0,0.0,0.0,0.0,0.0,0.0,0.0,0.0,0.0,0.0,0.0,0.0,0.0,0.0,0.0,0.0,0.0,0.0,0.0,0.0,0.0,0.0,0.0,0.0,0.0,0.0,0.0,0.0,0.0,0.0,0.0,0.0,0.0,0.0,0.0,0.0,0.0,0.0,0.0,0.0,0.0,-1.5051,-1.3377,0.0,0.0,0.0,-1.1523,-1.3294,0.0,0.0,0.0,0.0,0.0,0.0,0.0,0.0,0.0,0.0,0.0,0.0,0.0,0.0,0.0,0.0,0.0,0.0,0.0,0.0,0.0,0.0,0.0,0.0,0.0,0.0,0.0,0.0,0.0,0.0,0.0,0.0,0.0,0.0,0.0,0.0,0.0,0.0,0.0,0.0,0.0,0.0,0.0,0.0,0.0,0.0,0.0,0.0,0.0,0.0,0.0,0.0,0.0,0.0,0.0,0.0,0.0,-1.4607,-2.0965,-2.4173,-2.3958,-2.3837,-2.3795,-2.3759,-2.1906,0.0,0.0,0.0,0.0,0.0,0.0,0.0,0.0,0.0,0.0,0.0,0.0,0.0,0.0,0.0,0.0,0.0,0.0,0.0,0.0,0.0,0.0,0.0,0.0,0.0,0.0,0.0,-0.3401,0.0,0.0,0.0,0.0,0.0,0.0,0.0,0.0,0.0,0.0,0.0,0.0,0.0,0.0,-1.4089,-1.5345,-1.4702,-1.4515,0.0,0.0,-1.3822,-1.4837,-1.6295,-1.6009,0.0,0.0,0.0,0.0,0.0,0.0,0.0,0.0,0.0,0.0,0.0,0.0,0.0,0.0,0.0,0.0,0.0,0.0,0.0,0.0,0.0,0.0,0.0,0.0,0.0,0.0,0.0,0.0,0.0,0.0,0.0,0.0,0.0,0.0,0.0,0.0,0.0,0.0,0.0,0.0,0.0,0.0,0.0,0.0,0.0,0.0,0.0,0.0,0.0,0.0,0.0,0.0,0.0,0.0,-1.2828,-1.4907,-2.1041,-2.4284,-2.4247,-2.3959,-2.3795,-2.3777,-2.2964,-1.9937,0.0,0.0,0.0,0.0,0.0,0.0,0.0,0.0,0.0,0.0,0.0,0.0,0.0,0.0,0.0,0.0,0.0,0.0,0.0,0.0,0.0,0.0,0.0,0.0,0.0,0.0,0.0,0.0,0.0,0.0,0.0,0.0,0.0,0.0,0.0,0.0,0.0,0.0,0.0,0.0,0.0,-1.5389,-1.5314,-1.6764,-1.7795,0.0,-1.6789,-1.6839,-1.8784,-1.8752,-1.7029,-1.2678,0.0,0.0,0.0,0.0,0.0,0.0,0.0,0.0,0.0,0.0,0.0,0.0,0.0,0.0,0.0,0.0,0.0,0.0,0.0,0.0,0.0,0.0,0.0,0.0,0.0,0.0,0.0,0.0,0.0,0.0,0.0,0.0,0.0,0.0,0.0,0.0,0.0,0.0,0.0,0.0,0.0,0.0,0.0,0.0,0.0,0.0,0.0,0.0,0.0,0.0,0.0,0.0,0.0,-1.5344,-1.4663,-2.1041,-2.4248,-2.4018,-2.3858,-2.3795,-2.3795,-2.3093,-2.0753,0.0,0.0,0.0,0.0,0.0,0.0,0.0,0.0,0.0,0.0,0.0,0.0,0.0,0.0,0.0,0.0,0.0,0.0,0.0,0.0,0.0,0.0,0.0,0.0,0.0,0.0,0.0,0.0,-0.9781,-1.1062,-1.3136,0.0,0.0,0.0,0.0,0.0,0.0,0.0,0.0,0.0,0.0,-1.6862,-1.3974,-1.6696,0.0,0.0,-1.8464,-1.8154,-2.0232,-2.0288,-1.8892,-1.5441,-1.2075,0.0,0.0,0.0,0.0,0.0,0.0,0.0,0.0,0.0,0.0,0.0,0.0,0.0,0.0,0.0,0.0,0.0,0.0,0.0,0.0,0.0,0.0,0.0,0.0,0.0,0.0,0.0,0.0,0.0,0.0,0.0,0.0,0.0,0.0,0.0,0.0,0.0,0.0,0.0,0.0,0.0,0.0,0.0,0.0,0.0,0.0,0.0,0.0,0.0,0.0,0.0,0.0,-1.6517,-1.4896,-2.1374,-2.4598,-2.4242,-2.4414,-2.452,-2.4502,-2.4016,-2.2239,0.0,0.0,0.0,0.0,0.0,0.0,0.0,0.0,0.0,0.0,0.0,0.0,0.0,0.0,0.0,0.0,0.0,0.0,0.0,0.0,0.0,0.0,0.0,0.0,0.0,0.0,0.0,0.0,-0.8596,-0.8854,-1.403,0.0,0.0,0.0,0.0,0.0,0.0,0.0,0.0,0.0,0.0,-1.813,-1.542,-1.7546,-1.9619,-2.0152,-1.8527,-1.8035,-2.0214,-2.0588,-1.9768,-1.7265,0.0,0.0,0.0,0.0,0.0,0.0,0.0,0.0,0.0,0.0,0.0,0.0,0.0,0.0,0.0,0.0,0.0,0.0,0.0,0.0,0.0,0.0,0.0,0.0,0.0,0.0,0.0,0.0,0.0,0.0,0.0,0.0,0.0,0.0,0.0,0.0,0.0,0.0,0.0,0.0,0.0,0.0,0.0,0.0,0.0,0.0,0.0,0.0,0.0,0.0,0.0,0.0,0.0,-1.544,-1.5945,-2.2259,-2.5485,-2.528,-2.5837,-2.6095,-2.6095,-2.6113,-2.4646,-2.1532,0.0,0.0,0.0,0.0,0.0,0.0,0.0,0.0,0.0,0.0,0.0,0.0,0.0,0.0,0.0,0.0,0.0,0.0,0.0,0.0,0.0,0.0,0.0,0.0,0.0,0.0,-0.5987,-0.7206,-0.8864,0.0,0.0,0.0,0.0,0.0,0.0,0.0,0.0,0.0,-1.9578,-1.9479,-1.9194,-2.035,-1.9763,-1.9082,-1.8634,-1.6831,-1.6311,-1.8745,-1.9418,-1.9124,0.0,0.0,0.0,0.0,0.0,0.0,0.0,0.0,0.0,0.0,0.0,0.0,0.0,0.0,0.0,0.0,0.0,0.0,0.0,0.0,0.0,0.0,0.0,0.0,0.0,0.0,0.0,-0.4268,0.0,0.0,0.0,0.0,0.0,0.0,0.0,0.0,0.0,0.0,0.0,0.0,-1.5526,-1.6768,0.0,0.0,0.0,0.0,0.0,0.0,0.0,0.0,0.0,0.0,0.0,0.0,-1.5897,-1.6693,-2.2922,-2.6135,-2.5914,-2.61,-2.6186,-2.6186,-2.6186,-2.5896,-2.5153,0.0,0.0,0.0,0.0,0.0,0.0,0.0,0.0,0.0,0.0,0.0,0.0,0.0,0.0,0.0,0.0,0.0,0.0,0.0,0.0,0.0,0.0,0.0,0.0,0.0,-0.6728,0.0,0.0,0.0,0.0,0.0,0.0,0.0,0.0,0.0,0.0,0.0,-1.7571,-2.2916,-2.211,-2.0991,-2.0842,-2.0782,-2.082,0.0,0.0,0.0,0.0,0.0,0.0,0.0,0.0,0.0,0.0,0.0,0.0,0.0,0.0,-1.5793,-1.3027,-1.0569,-0.9164,-0.9963,0.0,0.0,0.0,0.0,0.0,0.0,0.0,0.0,0.0,0.0,0.0,0.0,0.0,0.0,-1.0595,0.0,-0.5253,0.0,0.0,0.0,0.0,0.0,0.0,0.0,0.0,-1.7843,-1.8655,-1.9001,-2.0843,-2.1006,0.0,-1.9145,-1.6787,0.0,0.0,0.0,0.0,0.0,0.0,0.0,0.0,-1.7734,-1.8732,-2.421,-2.703,-2.6808,-2.6949,-2.7084,-2.7061,-2.7037,-2.7073,-2.7145,-2.4737,-2.2501,0.0,0.0,0.0,0.0,0.0,0.0,0.0,0.0,0.0,0.0,0.0,0.0,0.0,0.0,0.0,0.0,0.0,0.0,0.0,0.0,0.0,0.0,0.0,-0.763,0.0,0.0,0.0,0.0,0.0,0.0,0.0,0.0,0.0,-1.4259,-1.6607,-1.9704,-2.307,-2.2916,-2.2027,-2.0952,0.0,0.0,0.0,0.0,0.0,0.0,0.0,-1.5224,-1.6933,-1.8945,-1.9069,-1.5336,-1.4533,-1.5711,-1.9605,0.0,0.0,-1.8696,-1.662,-1.5121,-1.5513,-1.4979,-1.4395,-1.4092,-1.4897,-1.567,0.0,0.0,0.0,0.0,0.0,0.0,0.0,0.0,-1.5738,-1.8293,0.0,-1.5213,0.0,0.0,0.0,0.0,0.0,-1.8326,0.0,0.0,-2.5333,-2.6052,-2.6218,-2.6181,-2.6242,-2.6113,-2.3759,-2.2147,-2.0937,-1.5035,0.0,0.0,0.0,0.0,0.0,0.0,-2.0732,-2.2088,-2.6094,-2.8127,-2.7922,-2.8411,-2.8682,-2.8658,-2.8601,-2.8207,-2.7375,-2.4548,-2.3889,-2.5922,-1.2916,0.0,0.0,0.0,0.0,0.0,0.0,0.0,0.0,0.0,0.0,0.0,0.0,0.0,0.0,0.0,0.0,0.0,0.0,0.0,0.0,-1.1008,0.0,0.0,0.0,0.0,0.0,0.0,0.0,0.0,0.0,0.0,-2.4008,-2.1758,-2.0067,-2.0589,0.0,0.0,0.0,0.0,-2.0236,-1.8575,-1.6411,-1.5506,-1.667,-1.5052,-1.5383,-2.0328,0.0,0.0,-2.1179,-2.1315,-2.1206,-2.1348,-2.0874,-2.0346,-1.9849,-1.9659,-1.9904,-2.0921,-2.0962,-2.0324,-1.7977,-1.8398,-1.9483,-1.8594,0.0,0.0,0.0,0.0,-1.4576,-1.5786,-1.8156,-1.8485,-2.0323,-2.2884,-2.0621,0.0,0.0,0.0,0.0,0.0,0.0,-2.08,-2.3341,-2.4098,-2.545,-2.7294,-2.7631,-2.79,-2.8093,-2.7721,-2.7494,-2.7251,-2.4785,-1.8519,-0.8988,0.0,0.0,0.0,0.0,-2.2271,-2.3758,-2.71,-2.8753,-2.8562,-2.8688,-2.8743,-2.8694,-2.8619,-2.8478,-2.8243,-2.7375,-2.5881,-2.3764,-2.2016,0.0,0.0,0.0,0.0,0.0,0.0,0.0,0.0,0.0,0.0,0.0,0.0,0.0,0.0,0.0,0.0,0.0,0.0,0.0,-0.7863,-1.0043,-1.1745,0.0,0.0,0.0,0.0,0.0,0.0,0.0,0.0,0.0,-2.1191,-2.1316,-2.0431,0.0,0.0,-2.051,-1.8155,-1.9958,-2.1329,-2.0625,-1.9803,0.0,-2.0331,-1.8767,-1.8267,-2.0676,-2.0628,-2.0384,-2.0587,-2.1027,-2.141,-2.1423,-2.1287,-2.1111,-2.0975,-2.0935,-2.103,-2.1342,-2.141,-2.1192,-2.0446,-2.0935,-2.1518,-2.3809,-2.0332,-1.8301,-1.834,-1.9686,-1.9204,-2.0761,-2.3617,-2.309,-2.3755,-2.5166,-2.4834,-2.5109,-2.5499,-2.0638,0.0,0.0,0.0,-2.2562,-2.5244,-2.5688,-2.691,-2.8683,-2.9003,-2.922,-2.9407,-2.9026,-2.9239,-2.996,-2.835,-2.379,-1.6578,0.0,0.0,-1.7953,-2.1159,-2.3875,-2.6028,-2.8184,-2.9251,-2.9123,-2.9007,-2.8868,-2.87,-2.8743,-2.87,-2.8612,-2.8587,-2.7434,-2.4954,-2.6871,-2.3552,0.0,0.0,0.0,0.0,0.0,0.0,0.0,0.0,0.0,0.0,0.0,-1.0534,-1.3763,0.0,0.0,0.0,-0.751,-1.035,-1.3233,-1.401,0.0,0.0,0.0,0.0,0.0,0.0,0.0,-2.1159,-2.0813,-2.0369,-2.0732,-2.1821,-2.179,-1.9767,-1.9293,-1.9056,-1.8866,0.0,-2.224,-2.2072,-2.1669,-2.1458,-2.1583,-2.0644,-2.0277,-2.1569,-2.1368,-2.1074,-2.1072,-2.1615,-2.2101,-2.2142,-2.2228,-2.2128,-2.1518,-2.141,-2.141,-2.1437,-2.1781,-2.2061,-2.183,-2.2251,-2.2671,-2.8496,-2.8086,-2.3398,-2.2695,-2.4668,-2.4717,-2.6054,-2.8259,-2.8262,-2.7852,-2.7169,-2.7949,-2.6156,-2.2444,-2.0791,0.0,-2.3541,-2.4284,-2.6266,-2.9179,-2.9214,-2.9582,-3.0273,-3.0234,-3.0213,-3.0166,-2.8618,-2.8657,-2.9956,-2.7769,-2.581,-2.4214,-2.3283,-2.2672,-2.2401,-2.351,-2.5634,-2.8628,-2.9207,-2.9551,-2.9589,-2.9355,-2.9056,-2.8731,-2.8879,-2.885,-2.8612,-2.8587,-2.8448,-2.8174,-2.844,-2.8083,-2.6836,0.0,0.0,0.0,0.0,0.0,0.0,0.0,0.0,0.0,0.0,0.0,0.0,0.0,0.0,-0.826,-1.2689,0.0,-2.299,-2.0593,0.0,0.0,0.0,-1.5065,-1.7077,-1.8431,-2.0159,-2.26,0.0,0.0,-2.2311,-2.3038,-2.3686,-2.3954,-2.002,-1.8329,-2.1474,-2.2465,-2.3011,-2.3087,-2.2638,-2.2061,-2.1629,-2.1403,-2.1743,-2.283,-2.2626,-2.2249,-2.2367,-2.2967,-2.3387,-2.3363,-2.3557,-2.3312,-2.186,-2.1689,-2.1551,-2.1789,-2.2522,-2.2986,-2.2549,-2.2823,-2.3243,-3.0293,-3.0176,-2.8965,-2.8047,-2.7363,-2.738,-2.7723,-2.8281,-2.8283,-2.8186,-2.801,-2.8225,-2.8108,-2.7776,-2.7942,-2.829,-2.8793,-2.8965,-2.9418,-3.0063,-3.009,-3.017,-3.0292,-3.0279,-3.0253,-3.018,-2.9803,-2.9803,-3.0147,-2.956,-2.8725,-2.7733,-2.7439,-2.5717,-2.2745,-2.5335,-2.7374,-2.8616,-2.8777,-2.9074,-2.9589,-2.9355,-2.9144,-2.9016,-2.885,-2.8718,-2.8612,-2.8587,-2.8562,-2.8492,-2.8543,-2.8466,-2.8094,-2.1686,0.0,0.0,0.0,0.0,0.0,0.0,0.0,0.0,0.0,-1.5603,-2.1231,0.0,-1.3828,0.0,-1.2663,-1.7565,-1.8925,-1.9744,0.0,0.0,-1.6574,-1.751,-2.1956,-2.1502,-2.1375,-2.2746,-2.3319,-2.3499,-2.328,-2.3486,-2.3913,-2.4555,-2.3117,-2.1363,-1.9988,-2.215,-2.4098,-2.4413,-2.4359,-2.3985,-2.3203,-2.326,-2.3659,-2.4312,-2.3475,-2.2944,-2.3568,-2.4563,-2.5134,-2.4627,-2.4092,-2.364,-2.3431,-2.3087,-2.316,-2.3865,-2.3635,-2.3148,-2.2999,-2.3432,-2.392,-3.0918,-3.0918,-3.0918,-3.0331,-2.9449,-2.9468,-2.9464,-2.9455,-2.9474,-2.9435,-2.9413,-2.9383,-2.9659,-3.0135,-3.0537,-3.0661,-3.0613,-3.0576,-3.0501,-3.039,-3.0379,-3.0343,-3.0312,-3.0266,-3.024,-3.0204,-3.0204,-3.0204,-3.0204,-3.0204,-2.995,-2.9486,-2.9492,-2.8109,-2.5588,-2.6937,-2.7681,-2.7623,-2.8252,-2.8917,-2.957,-2.9436,-2.8569,-2.7058,-2.7842,-2.757,-2.6059,-2.7001,-2.7031,-2.6054,-2.7628,-2.8536,-2.8342,-2.3419,-1.8454,0.0,0.0,0.0,0.0,0.0,0.0,0.0,0.0,0.0,0.0,0.0,-1.9207,-1.2552,-1.7658,-2.0489,-1.8319,-2.039,-2.1688,-2.1351,-2.0406,-2.1091,-2.4257,-2.3729,-2.3301,-2.3792,-2.4185,-2.4382,-2.4246,-2.4246,-2.442,-2.4942,-2.4808,-2.3907,-2.2201,-2.3747,-2.5415,-2.5873,-2.5594,-2.5163,-2.47,-2.5319,-2.585,-2.5741,-2.4682,-2.3917,-2.441,-2.5497,-2.6002,-2.5189,-2.4627,-2.4391,-2.4696,-2.459,-2.4599,-2.4721,-2.4489,-2.3974,-2.3635,-2.4041,-2.4517,-3.0916,-3.0918,-3.0918,-3.0915,-3.0923,-3.0911,-3.0909,-3.0919,-3.0919,-3.086,-3.0799,-3.0732,-3.0735,-3.0796,-3.0661,-3.06,-3.0593,-3.0527,-3.0462,-3.0398,-3.0336,-3.0311,-3.0279,-3.0221,-3.0213,-3.0204,-3.0204,-3.0204,-3.0204,-3.0204,-3.0128,-3.0032,-3.0013,-2.9555,-2.8605,-2.7988,-2.7319,-2.6593,-2.7737,-2.8591,-2.9191,-2.8989,-2.7419,-2.4596,-2.6442,-2.6219,-2.3361,-2.5117,-2.524,-2.3301,-2.5814,-2.7259,-2.7012,-2.5968,-2.2417,0.0,-1.6998,0.0,0.0,0.0,0.0,0.0,0.0,0.0,0.0,-2.203,-2.2932,-2.1354,-2.4249,-2.4464,-2.0207,-2.2145,-2.3918,-2.4454,-2.4498,-2.4608,-2.5012,-2.5281,-2.536,-2.5195,-2.5195,-2.5227,-2.5369,-2.5369,-2.5338,-2.5148,-2.5629,-2.5898,-2.5614,-2.6009,-2.6614,-2.7241,-2.6514,-2.6022,-2.6443,-2.7312,-2.7786,-2.7225,-2.6136,-2.522,-2.5341,-2.6257,-2.6606,-2.5439,-2.5007,-2.5063,-2.5453,-2.5701,-2.5646,-2.5104,-2.4951,-2.4761,-2.4408,-2.4598,-2.4978,-3.0916,-3.0918,-3.0918,-3.0918,-3.0917,-3.0909,-3.0921,-3.0919,-3.0919,-3.086,-3.0801,-3.0796,-3.0796,-3.0799,-3.072,-3.065,-3.0593,-3.0527,-3.0432,-3.0316,-3.0304,-3.0267,-3.0221,-3.0221,-3.0213,-3.0204,-3.0204,-3.0204,-3.0204,-3.0204,-2.9841,-2.9153,-2.9153,-2.8389,-2.6995,0.0,0.0,0.0,-2.7026,-2.6867,-2.6961,-2.5973,-2.5123,-2.4442,-2.5807,0.0,-2.5606,-2.5986,-2.6023,-2.5457,-2.2465,0.0,0.0,0.0,0.0,0.0,0.0,0.0,0.0,0.0,0.0,0.0,-1.871,-1.647,-1.9918,-2.2488,-2.4397,-2.562,-2.605,-2.5839,-2.4944,-2.5309,-2.5688,-2.5818,-2.5456,-2.5277,-2.5486,-2.583,-2.6086,-2.6161,-2.6135,-2.6404,-2.702,-2.7166,-2.6609,-2.5401,-2.6088,-2.7257,-2.8158,-2.7494,-2.7446,-2.8349,-2.7658,-2.7271,-2.8355,-2.8686,-2.862,-2.8121,-2.7715,-2.7294,-2.7319,-2.7652,-2.7509,-2.5988,-2.5328,-2.4991,-2.5118,-2.5495,-2.5674,-2.5118,-2.5005,-2.4964,-2.4869,-2.4924,-2.5005,-3.0914,-3.0918,-3.0918,-3.0918,0.0,-3.0912,-3.0905,-3.0907,-3.0921,-3.088,-3.0838,-3.0747,-3.0751,-3.0799,-3.0656,-3.0593,-3.0613,-3.0546,-3.0451,-3.0348,-3.0316,-3.0279,-3.0234,-3.0221,-3.0213,-3.0204,-3.0204,-3.0204,-3.0204,-3.0204,-2.9975,-2.9555,-2.9535,-2.9115,-2.8313,-2.8714,-2.8714,-2.828,-2.7873,-2.7854,-2.8204,-2.738,-2.6148,-2.4634,-2.6041,0.0,0.0,0.0,0.0,0.0,0.0,0.0,0.0,0.0,0.0,-2.6481,-2.288,-2.0368,-1.9689,-2.0636,-2.3122,-2.7245,-2.4059,-2.2443,-2.3903,-2.4927,-2.5912,-2.6967,-2.6989,-2.6742,-2.6239,-2.6203,-2.633,-2.6648,-2.6584,-2.6534,-2.6527,-2.6614,-2.6772,-2.6972,-2.6893,-2.7004,-2.7608,-2.7498,-2.7099,-2.6246,-2.6909,-2.7952,-2.8805,-2.8252,-2.8015,-2.8948,-2.8586,-2.8363,-2.8902,-2.9091,-2.9013,-2.8653,-2.8519,-2.8483,-2.8348,-2.8558,-2.8042,-2.6028,-2.5174,-2.5005,-2.5005,-2.5286,-2.5342,-2.5061,-2.5005,-2.5005,-2.5005,-2.5005,-2.5005,-3.0911,-3.0918,-3.0918,-3.0918,-3.0918,-3.0914,-3.0911,-3.0892,0.0,0.0,0.0,-3.0711,-3.0701,-3.0794,-3.0593,-3.0552,-3.0605,-3.0528,-3.046,-3.0379,-3.0316,-3.0299,-3.0279,-3.0221,-3.0213,-3.0204,-3.0204,-3.0204,-3.0204,-3.0204,-3.0204,-3.0204,-3.0204,-3.0204,-3.0204,-3.0204,-2.9841,-2.914,-2.8681,-2.8796,-2.9436,-2.8887,-2.7287,-2.4556,-2.6279,-2.6009,-2.3487,-2.5172,-2.5276,-2.3392,-2.3937,-2.2506,-1.8734,-2.4293,-2.7771,-2.7648,-2.6553,-2.585,-2.5823,-2.6437,-2.7052,-2.7666,-2.7841,-2.7841,-2.7719,-2.7338,-2.7238,-2.7511,-2.7648,-2.739,-2.6686,-2.6358,-2.6557,-2.7437,-2.7932,-2.8029,-2.7589,-2.7408,-2.7486,-2.7743,-2.762,-2.7589,-2.7908,-2.7762,-2.7462,-2.7525,-2.7921,-2.8442,-2.8854,-2.8647,-2.8474,-2.8995,-2.8949,-2.9044,-2.9091,-2.9091,-2.9029,-2.8811,-2.892,-2.8983,-2.8889,-2.8905,-2.7898,-2.5522,-2.5005,-2.5005,-2.5005,-2.5005,-2.5005,-2.5005,-2.5005,-2.5005,-2.5018,-2.5086,-2.5141,-3.0911,-3.0918,-3.0918,-3.0918,-3.0918,-3.0915,-3.0909,-3.0882,-3.0821,-3.0821,-3.0799,-3.0794,-3.0774,-3.0796,-3.0645,-3.0586,-3.0586,-3.0452,-3.0371,-3.0316,-3.0304,-3.0267,-3.0221,-3.0207,-3.0213,-3.0204,-3.0204,-3.0204,-3.0204,-3.0204,-3.0204,-3.0204,-3.0204,-3.0204,-3.0204,-3.0204,-3.0147,-2.9975,-2.7854,-2.674,-2.6664,-2.5816,-2.5007,-2.4303,-2.5803,-2.6385,-2.5751,-2.6041,-2.6059,-2.5733,-2.624,-2.6023,-2.5041,-2.6936,-2.8055,-2.776,-2.767,-2.7547,-2.7397,-2.7473,-2.7578,-2.7719,-2.8333,-2.8438,-2.7754,-2.7642,-2.7921,-2.8699,-2.8184,-2.7906,-2.8168,-2.7108,-2.7044,-2.856,-2.9584,-2.9585,-2.8241,-2.8162,-2.8216,-2.8295,-2.8611,-2.876,-2.8775,-2.876,-2.8726,-2.8775,-2.8728,-2.9011,-2.9058,-2.9042,-2.9011,-2.9059,-2.9091,-2.9091,-2.9091,-2.9091,-2.8982,-2.8622,-2.8729,-2.8808,-2.8763,-2.8652,-2.768,-2.5425,-2.5005,-2.5005,-2.5005,-2.5005,-2.5005,-2.5005,-2.5005,-2.5018,-2.5059,-2.5412,-2.5575,-3.0916,-3.0918,-3.0918,-3.0917,-3.0912,-3.0913,-3.0909,-3.0899,-3.088,-3.0821,-3.0799,-3.0765,-3.0768,-3.0794,-3.0613,-3.0571,-3.0605,-3.0451,-3.0398,-3.0367,-3.0367,-3.0304,-3.0254,-3.0254,-3.0241,-3.0253,-3.0226,-3.0213,-3.0213,-3.0218,-3.0204,-3.0204,-3.0204,-3.0204,-3.0204,-3.0204,-3.0204,-3.0166,-2.8955,-2.8303,-2.8318,-2.7657,-2.7193,-2.6989,-2.7603,-2.773,-2.7526,-2.7526,-2.7526,-2.7483,-2.7725,-2.7761,-2.7538,-2.8018,-2.8264,-2.8183,-2.8146,-2.7979,-2.7713,-2.87,-2.9071,-2.8644,-2.9233,-2.9849,-3.0229,-2.8667,-2.8088,-2.9006,-2.9104,-2.9051,-2.8761,-2.859,-2.8754,-2.9201,-3.0013,-3.0162,-2.9403,-2.9087,-2.8974,-2.9006,-2.9053,-2.9091,-2.9091,-2.9091,-2.9091,-2.9091,-2.9091,-2.9091,-2.9091,-2.9091,-2.9091,-2.9091,-2.9091,-2.9091,-2.9091,-2.9091,-2.8998,-2.87,-2.846,-2.8442,-2.8556,-2.8444,-2.7444,-2.5536,-2.5005,-2.5005,-2.5005,-2.5005,-2.5005,-2.5005,-2.5005,-2.5086,-2.5412,-2.5805,-2.5914,-3.0918,-3.0918,-3.0918,-3.0915,-3.0919,-3.0909,-3.0907,-3.0899,-3.088,-3.0841,-3.0799,-3.0755,-3.0739,-3.0774,-3.0607,-3.0571,-3.0591,-3.0451,-3.0398,-3.0398,-3.0398,-3.0367,-3.0304,-3.0304,-3.0311,-3.0292,-3.0253,-3.0221,-3.0226,-3.0218,-3.0218,-3.0204,-3.0204,-3.0204,-3.0204,-3.0204,-3.0204,-3.0204,-3.0003,-2.9988,-3.0113,-2.975,-2.9495,-2.9319,-2.9089,-2.8892,-2.8612,-2.8587,-2.8587,-2.8587,-2.8587,-2.8587,-2.8587,-2.8448,-2.844,-2.8562,-2.8362,-2.8225,-2.8311,-2.981,-3.0505,-2.9828,-3.0225,-3.1091,-3.2001,-3.0194,-2.894,-2.9532,-3.0101,-3.0085,-2.946,-2.9869,-3.0278,-2.9764,-3.0145,-3.0393,-3.0172,-2.9842,-2.9621,-2.9531,-2.9259,-2.9091,-2.9091,-2.9091,-2.9091,-2.9091,-2.9091,-2.9091,-2.9091,-2.9091,-2.9091,-2.9091,-2.9091,-2.9091,-2.9091,-2.9045,-2.8842,-2.8621,-2.8301,-2.822,-2.8186,-2.7925,-2.7086,-2.5328,-2.5005,-2.5005,-2.5005,-2.5005,-2.5005,-2.5005,-2.5005,-2.5208,-2.5792,-2.6158,-2.6375,-3.0918,-3.0918,-3.0918,-3.0915,-3.0921,-3.0921,-3.0919,-3.0899,-3.0841,-3.0801,-3.0799,-3.0799,-3.0796,-3.0777,-3.0648,-3.0594,-3.0605,-3.0451,-3.0398,-3.0398,-3.0398,-3.0348,-3.0316,-3.0304,-3.0311,-3.0312,-3.0279,-3.0253,-3.0213,-3.0213,-3.0213,-3.0204,-3.0204,-3.0204,-3.0204,-3.0204,-3.0204,-3.0185,-3.0003,-2.9905,-2.9924,-2.9823,-2.957,-2.9129,-2.9034,-2.8881,-2.8612,-2.8587,-2.8587,-2.8587,-2.8587,-2.8587,-2.8587,-2.8587,-2.8587,-2.8587,-2.8432,-2.8658,-2.9661,-3.0765,-3.1303,-3.1071,-3.1239,-3.1688,-3.2317,-3.2107,-3.162,-3.104,-3.0664,-3.0394,-3.0328,-3.0444,-3.0418,-3.0361,-3.0385,-3.0426,-3.0231,-3.0103,-2.9902,-2.9531,-2.9259,-2.9091,-2.9091,-2.9091,-2.9091,-2.9091,-2.9091,-2.9091,-2.9091,-2.9091,-2.9091,-2.9091,-2.9091,-2.9091,-2.9091,-2.892,-2.851,-2.7929,-2.8268,-2.822,-2.766,-2.6496,-2.5174,-2.5272,-2.5005,-2.5005,-2.5005,-2.5005,-2.5005,-2.5046,-2.5113,-2.5303,-2.5968,-2.6538,-2.6904,-3.0918,-3.0918,-3.0918,-3.0918,-3.0914,-3.0925,-3.0919,-3.088,-3.086,-3.0841,-3.0801,-3.0801,-3.0801,-3.0799,-3.0645,-3.0604,-3.0605,-3.0471,-3.0398,-3.0398,-3.0398,-3.0398,-3.0348,-3.0348,-3.0367,-3.0343,-3.033,-3.0267,-3.0241,-3.0215,-3.0213,-3.0204,-3.0204,-3.0204,-3.0204,-3.0204,-3.0204,-3.0185,-3.0003,-2.9907,-2.9891,-2.9753,-2.9513,-2.9129,-2.906,-2.8915,-2.8619,-2.8587,-2.8587,-2.8587,-2.8587,-2.8587,-2.8587,-2.8587,-2.8587,-2.8659,-2.9755,-3.0549,-3.1,-3.2011,-3.2535,-3.2335,-3.2317,-3.2403,-3.2488,-3.2457,-3.2144,-3.162,-3.0925,-3.0468,-3.051,-3.0468,-3.0468,-3.0468,-3.0468,-3.0401,-3.0248,-3.006,-2.9826,-2.9515,-2.9259,-2.9091,-2.9091,-2.9091,-2.9091,-2.9091,-2.9091,-2.9091,-2.9091,-2.9091,-2.9091,-2.9091,-2.9091,-2.9091,-2.9045,-2.8574,-2.8125,-2.7815,-2.7715,-2.7565,-2.7004,-2.596,-2.5005,-2.5005,-2.5086,-2.5086,-2.5005,-2.5005,-2.5018,-2.5127,-2.5751,-2.6145,-2.6185,-2.7094,-2.78,-3.0918,-3.0918,-3.0918,-3.0918,-3.0917,-3.0911,-3.0882,-3.088,-3.088,-3.086,-3.0801,-3.0801,-3.0801,-3.0782,-3.0665,-3.0607,-3.0586,-3.0451,-3.0398,-3.0398,-3.0398,-3.0398,-3.0398,-3.0398,-3.0398,-3.0379,-3.0348,-3.0323,-3.0311,-3.0234,-3.0213,-3.0218,-3.0204,-3.0204,-3.0204,-3.0204,-3.0204,-3.019,-3.0003,-2.9872,-2.9805,-2.9626,-2.9378,-2.9148,-2.9056,-2.8892,-2.8637,-2.8594,-2.8587,-2.8587,-2.8587,-2.8587,-2.8587,-2.8587,-2.8587,-2.875,-3.0459,-3.1791,-3.2198,-3.2958,-3.3334,-3.3196,-3.3042,-3.2834,-3.2639,-3.2473,-3.2249,-3.1894,-3.1372,-3.0998,-3.0634,-3.0568,-3.0468,-3.0468,-3.0468,-3.0384,-3.013,-2.9897,-2.9633,-2.9425,-2.9213,-2.9091,-2.9091,-2.9091,-2.9091,-2.9091,-2.9091,-2.9091,-2.9091,-2.9091,-2.9091,-2.9091,-2.9091,-2.9075,-2.8967,-2.8319,-2.7849,-2.755,-2.7297,-2.6872,-2.6414,-2.5425,-2.5005,-2.5032,-2.5236,-2.5371,-2.5331,-2.5263,-2.5322,-2.5652,-2.6335,-2.6998,-2.6726,-2.7672,-2.822,-3.0918,-3.0918,-3.0898,-3.0918,-3.0914,-3.0913,-3.087,-3.0821,-3.0821,-3.0801,-3.0801,-3.0801,-3.0801,-3.0782,-3.0665,-3.0607,-3.0586,-3.0462,-3.039,-3.041,-3.0398,-3.0398,-3.0398,-3.0398,-3.0398,-3.0398,-3.0398,-3.0355,-3.0292,-3.0226,-3.0204,-3.0204,-3.0204,-3.0204,-3.0204,-3.0204,-3.0204,-3.019,-2.9988,-2.9803,-2.9644,-2.9438,-2.9279,-2.9188,-2.8952,-2.8804,-2.8712,-2.8637,-2.8587,-2.8587,-2.8587,-2.8587,-2.8587,-2.8587,-2.8587,-2.875,-3.0133,-3.1727,-3.3031,-3.3357,-3.3393,-3.3364,-3.3147,-3.2961,-3.2687,-3.2507,-3.2267,-3.193,-3.2108,-3.1856,-3.1173,-3.0716,-3.051,-3.0468,-3.0468,-3.03,-2.9897,-2.9738,-2.9486,-2.9213,-2.9121,-2.9091,-2.9091,-2.9091,-2.9091,-2.9091,-2.9091,-2.9091,-2.9091,-2.9091,-2.9091,-2.9091,-2.9091,-2.9075,-2.8858,-2.811,-2.7464,-2.7056,-2.673,-2.6361,-2.5632,-2.5005,-2.5032,-2.529,-2.5955,-2.6158,-2.5846,-2.5799,-2.5944,-2.6387,-2.7368,-2.7762,-2.7428,-2.7523,-2.7976,-3.0915,-3.0898,-3.0859,-3.0859,-3.0898,-3.0911,-3.0884,-3.086,-3.086,-3.088,-3.086,-3.086,-3.0841,-3.0801,-3.0704,-3.0646,-3.0574,-3.0509,-3.0451,-3.039,-3.0398,-3.0398,-3.0398,-3.0398,-3.0398,-3.0398,-3.0398,-3.0374,-3.0292,-3.024,-3.0199,-3.0204,-3.0204,-3.0204,-3.0204,-3.0204,-3.0204,-3.0157,-2.9869,-2.9753,-2.9734,-2.9336,-2.9144,-2.9251,-2.8989,-2.8815,-2.8694,-2.8669,-2.8637,-2.8612,-2.8587,-2.8587,-2.8587,-2.8587,-2.8587,-2.8732,-3.0115,-3.1691,-3.3121,-3.3393,-3.3393,-3.3364,-3.3196,-3.3104,-3.3042,-3.2707,-3.2405,-3.2404,-3.2371,-3.2196,-3.1856,-3.1061,-3.0468,-3.0468,-3.0485,-3.0401,-3.0087,-2.987,-2.9633,-2.938,-2.9213,-2.9091,-2.9091,-2.9091,-2.9091,-2.9091,-2.9091,-2.9091,-2.9091,-2.9091,-2.9091,-2.9045,-2.8873,-2.8764,-2.8905,-2.7963,-2.7078,-2.6573,-2.6094,-2.5687,-2.5061,-2.5263,-2.5344,-2.6158,-2.6837,-2.6891,-2.6552,-2.6538,-2.6708,-2.7448,-2.84,-2.8277,-2.8157,-2.8121,-2.8248,-3.0872,-3.0866,-3.0818,-3.084,-3.0918,-3.0913,-3.0907,-3.0925,-3.0925,-3.0923,-3.0921,-3.0899,-3.086,-3.0821,-3.0762,-3.0685,-3.06,-3.054,-3.0463,-3.039,-3.0398,-3.0398,-3.0398,-3.0398,-3.0398,-3.0398,-3.0386,-3.033,-3.0292,-3.024,-3.0213,-3.0204,-3.0204,-3.0204,-3.0204,-3.0204,-3.0204,-3.0128,-2.9803,-2.9717,-2.9822,-2.9379,-2.9151,-2.9251,-2.9112,-2.8923,-2.8737,-2.8712,-2.8669,-2.8612,-2.8587,-2.8587,-2.8587,-2.8587,-2.8587,-2.875,-3.0097,-3.1691,-3.3121,-3.3393,-3.3393,-3.3393,-3.3256,-3.3226,-3.3334,-3.2979,-3.2755,-3.2639,-3.2073,-3.1893,-3.2054,-3.1257,-3.0551,-3.0593,-3.0568,-3.0443,-3.0231,-2.9957,-2.9694,-2.938,-2.9213,-2.9121,-2.9091,-2.9091,-2.9091,-2.9091,-2.9091,-2.9091,-2.9091,-2.9091,-2.9029,-2.892,-2.8669,-2.8511,-2.8367,-2.755,-2.6834,-2.6308,-2.5728,-2.5216,-2.5263,-2.552,-2.6185,-2.7013,-2.7366,-2.7393,-2.7393,-2.7379,-2.7786,-2.8424,-2.8488,-2.8375,-2.8434,-2.8505,-2.856,-3.0781,-3.0793,-3.0801,-3.082,-3.0898,-3.0898,-3.0917,-3.0914,-3.0914,-3.0913,-3.0911,-3.0923,-3.086,-3.0821,-3.0801,-3.0728,-3.0626,-3.0529,-3.0463,-3.039,-3.0398,-3.0398,-3.0398,-3.0398,-3.0398,-3.0398,-3.0337,-3.0312,-3.0292,-3.0245,-3.0204,-3.0204,-3.0204,-3.0204,-3.0204,-3.0204,-3.0204,-3.0128,-2.982,-2.9716,-2.9836,-2.9494,-2.9287,-2.9293,-2.9245,-2.9099,-2.881,-2.8737,-2.8669,-2.8612,-2.8587,-2.8587,-2.8587,-2.8587,-2.8587,-2.883,-3.0097,-3.1709,-3.314,-3.3393,-3.3393,-3.3393,-3.3393,-3.3364,-3.3364,-3.3334,-3.3104,-3.2537,-3.1528,-3.1038,-3.1893,-3.1295,-3.0716,-3.0895,-3.0716,-3.0443,-3.0231,-2.9957,-2.9633,-2.9259,-2.9137,-2.9091,-2.9091,-2.9091,-2.9091,-2.9091,-2.9091,-2.9091,-2.9091,-2.9091,-2.892,-2.8622,-2.8431,-2.8271,-2.7715,-2.7144,-2.6573,-2.6054,-2.5481,-2.5059,-2.5602,-2.6009,-2.7216,-2.8071,-2.8044,-2.8058,-2.8044,-2.8044,-2.8139,-2.8573,-2.8505,-2.8465,-2.8532,-2.8587,-2.8587,-3.0675,-3.0722,-3.0735,-3.0769,-3.084,-3.0879,-3.0918,-3.0918,-3.0918,-3.0918,-3.0916,-3.0907,-3.088,-3.088,-3.086,-3.0791,-3.0685,-3.0574,-3.0501,-3.0414,-3.041,-3.0398,-3.0398,-3.0398,-3.0398,-3.0398,-3.0318,-3.0312,-3.0279,-3.0226,-3.0204,-3.0204,-3.0204,-3.0204,-3.0204,-3.0204,-3.0204,-3.019,-2.9937,-2.9839,-2.9853,-2.9511,-2.9307,-2.9275,-2.9171,-2.9007,-2.8863,-2.881,-2.8737,-2.8669,-2.8637,-2.8587,-2.8587,-2.8587,-2.8587,-2.875,-3.0097,-3.1709,-3.3103,-3.3393,-3.3393,-3.3393,-3.3393,-3.3393,-3.3393,-3.3393,-3.3073,-3.2317,-3.1223,-3.0838,-3.1278,-3.1372,-3.1157,-3.1061,-3.074,-3.0485,-3.0359,-3.0027,-2.9633,-2.9213,-2.9091,-2.9091,-2.9091,-2.9091,-2.9091,-2.9091,-2.9091,-2.9091,-2.9091,-2.9045,-2.8826,-2.8463,-2.8222,-2.783,-2.7276,-2.6692,-2.6176,-2.5756,-2.5272,-2.5005,-2.5588,-2.6267,-2.761,-2.8438,-2.8451,-2.856,-2.8573,-2.8587,-2.8587,-2.8587,-2.856,-2.856,-2.8587,-2.8522,-2.8457,-3.0617,-3.0674,-3.0664,-3.0712,-3.0801,-3.084,-3.0879,-3.0918,-3.0918,-3.0918,-3.0918,-3.0914,-3.0909,-3.0903,-3.0875,-3.0816,-3.0701,-3.0652,-3.0567,-3.0439,-3.0402,-3.041,-3.0398,-3.0398,-3.0379,-3.0348,-3.0318,-3.0279,-3.0266,-3.0232,-3.0204,-3.0204,-3.0204,-3.0204,-3.0204,-3.0204,-3.0204,-3.0171,-3.0003,-2.9907,-2.9805,-2.957,-2.9373,-2.9291,-2.9189,-2.9072,-2.8947,-2.8881,-2.8767,-2.8694,-2.8637,-2.8587,-2.8587,-2.8587,-2.8587,-2.892,-3.0115,-3.1709,-3.3121,-3.3393,-3.3393,-3.3393,-3.3393,-3.3393,-3.3364,-3.3304,-3.2816,-3.1986,-3.1067,-3.0675,-3.1044,-3.1061,-3.114,-3.1257,-3.0797,-3.0468,-3.0258,-2.9941,-2.956,-2.9213,-2.9091,-2.9091,-2.9091,-2.9091,-2.9091,-2.9091,-2.9091,-2.9091,-2.9091,-2.9014,-2.8637,-2.8207,-2.7815,-2.7378,-2.6774,-2.6258,-2.5784,-2.5397,-2.5061,-2.5005,-2.5263,-2.5778,-2.6769,-2.7556,-2.7827,-2.8315,-2.841,-2.8546,-2.8587,-2.8587,-2.8587,-2.8587,-2.8587,-2.8327,-2.8183,-3.0598,-3.0617,-3.0617,-3.0678,-3.0781,-3.0801,-3.084,-3.0898,-3.0918,-3.0918,-3.0918,-3.0918,-3.0917,-3.0892,-3.0833,-3.0785,-3.0693,-3.0697,-3.0614,-3.0511,-3.0439,-3.0402,-3.039,-3.0398,-3.0398,-3.0336,-3.0305,-3.0266,-3.0194,-3.0199,-3.0204,-3.0176,-3.0176,-3.0204,-3.019,-3.0204,-3.0157,-3.0128,-2.9988,-2.9836,-2.977,-2.9636,-2.9455,-2.927,-2.9263,-2.9163,-2.9012,-2.8905,-2.8815,-2.8718,-2.8637,-2.8587,-2.8587,-2.8587,-2.8587,-2.8685,-3.0079,-3.1636,-3.294,-3.323,-3.3284,-3.3393,-3.3393,-3.3393,-3.3364,-3.3055,-3.257,-3.1877,-3.1004,-3.0675,-3.0885,-3.0781,-3.0838,-3.1196,-3.0699,-3.0241,-2.9853,-2.9633,-2.9425,-2.9183,-2.9091,-2.9091,-2.9091,-2.9091,-2.9091,-2.9091,-2.9091,-2.9091,-2.8889,-2.8637,-2.835,-2.7879,-2.7378,-2.6967,-2.6418,-2.6204,-2.5674,-2.5286,-2.5005,-2.5005,-2.5222,-2.5751,-2.6185,-2.6891,-2.7569,-2.8017,-2.8343,-2.8505,-2.8587,-2.8587,-2.8587,-2.8587,-2.8457,-2.8183,-2.7987,-3.0559,-3.0617,-3.0617,-3.0651,-3.0724,-3.0784,-3.084,-3.0898,-3.0918,-3.0918,-3.0918,-3.0918,-3.0918,-3.0917,-3.0864,-3.0808,-3.0723,-3.0698,-3.0625,-3.051,-3.0472,-3.0439,-3.0402,-3.0398,-3.0398,-3.0367,-3.0318,-3.0207,-3.0071,-3.0157,-3.0109,-2.9988,-3.0003,-3.0068,-3.0157,-3.0049,-2.9988,-2.9969,-2.9921,-2.9716,-2.9456,-2.9418,-2.9293,-2.9108,-2.9076,-2.9053,-2.8975,-2.89,-2.881,-2.8694,-2.8637,-2.8587,-2.8587,-2.8587,-2.8587,-2.8768,-2.959,-3.1093,-3.2723,-3.285,-3.2795,-3.3321,-3.3345,-3.3393,-3.3345,-3.2816,-3.2317,-3.1823,-3.1218,-3.0692,-3.0675,-3.0551,-3.0568,-3.0401,-3.0156,-2.9941,-2.981,-2.9633,-2.9396,-2.9167,-2.9137,-2.9091,-2.9091,-2.9091,-2.9091,-2.9091,-2.9091,-2.8716,-2.8271,-2.814,-2.7745,-2.7306,-2.6855,-2.6525,-2.6218,-2.6002,-2.5674,-2.5174,-2.5005,-2.5005,-2.5466,-2.6117,-2.6511,-2.6999,-2.7691,-2.8207,-2.8397,-2.856,-2.8573,-2.8587,-2.8457,-2.8444,-2.8379,-2.8183,-2.7842,-3.0559,-3.0617,-3.0617,-3.0636,-3.0673,-3.0724,-3.0776,-3.0859,-3.0879,-3.0918,-3.0918,-3.0918,-3.0918,-3.0918,-3.0875,-3.0806,-3.0742,-3.0711,-3.0629,-3.0567,-3.0491,-3.0428,-3.039,-3.0398,-3.0379,-3.0348,-3.0337,-3.0221,-3.0104,-3.0094,-3.0068,-3.0003,-2.9836,-2.9921,-3.0171,-2.9905,-2.9805,-2.982,-2.9805,-2.957,-2.9209,-2.9262,-2.9198,-2.9048,-2.8975,-2.8975,-2.8975,-2.8876,-2.8785,-2.8737,-2.8662,-2.8587,-2.8587,-2.8587,-2.8587,-2.8641,-2.9355,-3.0622,-3.1926,-3.2216,-3.2509,-3.2967,-3.3117,-3.3068,-3.2912,-3.2504,-3.2179,-3.1714,-3.1218,-3.0838,-3.0526,-3.0401,-3.0231,-3.0,-2.9694,-2.956,-2.9649,-2.9486,-2.9305,-2.9137,-2.9091,-2.9091,-2.9091,-2.9091,-2.9091,-2.9091,-2.9091,-2.811,-2.7078,-2.7108,-2.7086,-2.663,-2.6379,-2.6111,-2.577,-2.5564,-2.5508,-2.5061,-2.5005,-2.5005,-2.5412,-2.6185,-2.6877,-2.7298,-2.7881,-2.8234,-2.8261,-2.8383,-2.8587,-2.8522,-2.8379,-2.8235,-2.817,-2.7776,-2.751,-3.0598,-3.0617,-3.0617,-3.0617,-3.0606,-3.0685,-3.0749,-3.0801,-3.0859,-3.0898,-3.0898,-3.0918,-3.0918,-3.0879,-3.0859,-3.0801,-3.0782,-3.0726,-3.0664,-3.0569,-3.0479,-3.039,-3.039,-3.0398,-3.0379,-3.0316,-3.0318,-3.0247,-3.0147,-3.0015,-3.0034,-3.0,-2.9769,-2.982,-3.0003,-2.9769,-2.9662,-2.9681,-2.9626,-2.9395,-2.9115,-2.9144,-2.9123,-2.9026,-2.8975,-2.8994,-2.897,-2.8858,-2.8804,-2.8785,-2.8662,-2.8612,-2.8587,-2.8587,-2.8587,-2.8659,-2.9228,-3.0016,-3.0956,-3.1748,-3.2224,-3.2588,-3.2734,-3.2651,-3.2419,-3.2248,-3.2003,-3.1511,-3.1184,-3.0821,-3.0468,-3.0248,-2.9973,-2.9738,-2.9335,-2.9305,-2.935,-2.9275,-2.9091,-2.9091,-2.9091,-2.9091,-2.9091,-2.9075,-2.9075,-2.8873,-2.8858,-2.8271,-2.6975,-2.6375,-2.6283,-2.5974,-2.5825,-2.5674,-2.5397,-2.5118,-2.5118,-2.5005,-2.5005,-2.5032,-2.5154,-2.5887,-2.6959,-2.761,-2.7623,-2.7678,-2.7773,-2.799,-2.8315,-2.8379,-2.817,-2.8039,-2.7762,-2.7175,-2.6769,-3.054,-3.0617,-3.0617,-3.0617,-3.0607,-3.0613,-3.0691,-3.0801,-3.082,-3.084,-3.0898,-3.0918,-3.0918,-3.0879,-3.0879,-3.0838,-3.0724,-3.0739,-3.0704,-3.0577,-3.0477,-3.041,-3.0398,-3.0398,-3.0379,-3.0348,-3.0323,-3.0209,-3.0095,-3.0085,-3.0071,-2.9946,-2.975,-2.9716,-2.9872,-2.957,-2.9375,-2.9415,-2.9375,-2.9249,-2.9067,-2.9044,-2.9048,-2.8975,-2.8975,-2.897,-2.8905,-2.8834,-2.8785,-2.8712,-2.8637,-2.8587,-2.8587,-2.8587,-2.8587,-2.8623,-2.8768,-2.9503,-3.0737,-3.1212,-3.1639,-3.219,-3.235,-3.2385,-3.2317,-3.2074,-3.1806,-3.1414,-3.11,-3.0692,-3.029,-3.0205,-2.9886,-2.947,-2.9335,-2.9305,-2.9213,-2.9137,-2.9137,-2.9091,-2.9091,-2.9091,-2.9091,-2.9013,-2.8889,-2.8716,-2.8558,-2.8383,-2.7348,-2.6014,-2.5756,-2.566,-2.5508,-2.5453,-2.5342,-2.5118,-2.5005,-2.5005,-2.5005,-2.5018,-2.5141,-2.5263,-2.6199,-2.6742,-2.7026,-2.7149,-2.7393,-2.7556,-2.7868,-2.7937,-2.8039,-2.7894,-2.7564,-2.6769,-2.6151,-3.055,-3.0617,-3.0617,-3.0617,-3.0617,-3.0636,-3.0688,-3.0763,-3.0817,-3.0859,-3.0898,-3.0918,-3.0918,-3.0918,-3.0898,-3.0843,-3.0753,-3.0711,-3.0664,-3.055,-3.0455,-3.041,-3.0398,-3.0398,-3.0398,-3.0398,-3.0336,-3.0235,-3.0182,-3.008,-3.0037,-2.9996,-2.9662,-2.9644,-2.9787,-2.9415,-2.9249,-2.9272,-2.9206,-2.9112,-2.8998,-2.8975,-2.8975,-2.8975,-2.8975,-2.897,-2.8887,-2.8834,-2.8761,-2.8712,-2.8637,-2.8587,-2.8587,-2.8587,-2.8587,-2.8587,-2.8458,-2.8945,-2.9953,-3.0499,-3.0838,-3.1463,-3.1795,-3.1897,-3.1841,-3.162,-3.1487,-3.1218,-3.0878,-3.0485,-3.0162,-3.0017,-2.9694,-2.9289,-2.9213,-2.9259,-2.9137,-2.9091,-2.9091,-2.9091,-2.9091,-2.9091,-2.9091,-2.8967,-2.8748,-2.8589,-2.87,-2.8462,-2.7449,-2.6269,-2.5851,-2.566,-2.5397,-2.5244,-2.523,-2.5118,-2.5005,-2.5005,-2.5005,-2.5005,-2.5059,-2.5127,-2.529,-2.5792,-2.6335,-2.6932,-2.7189,-2.7325,-2.7542,-2.8029,-2.817,-2.7894,-2.743,-2.6688,-2.6151,-3.052,-3.0617,-3.0617,-3.0598,-3.0588,-3.0656,-3.0692,-3.0727,-3.0827,-3.0859,-3.0898,-3.0918,-3.0918,-3.0918,-3.0918,-3.0859,-3.0755,-3.066,-3.0588,-3.0509,-3.0444,-3.041,-3.0398,-3.0398,-3.0398,-3.0398,-3.0348,-3.0304,-3.0235,-3.0095,-3.0085,-3.0075,-2.9644,-2.957,-2.9662,-2.9332,-2.9089,-2.9185,-2.9093,-2.9021,-2.8975,-2.8975,-2.8975,-2.8975,-2.8975,-2.897,-2.8905,-2.8834,-2.8761,-2.8694,-2.8637,-2.8612,-2.8587,-2.8587,-2.8587,-2.8587,-2.8317,-2.8592,-2.9184,-2.9593,-2.99,-3.0454,-3.1055,-3.1387,-3.1278,-3.1252,-3.119,-3.0992,-3.0708,-3.0459,-3.0205,-2.9957,-2.9633,-2.9289,-2.9137,-2.9091,-2.9091,-2.9091,-2.9091,-2.9091,-2.9091,-2.9091,-2.9075,-2.8967,-2.87,-2.8493,-2.8604,-2.8381,-2.7363,-2.6414,-2.5851,-2.5646,-2.5397,-2.5188,-2.5118,-2.5118,-2.5005,-2.5005,-2.5005,-2.5005,-2.5005,-2.5059,-2.5141,-2.5249,-2.5751,-2.6294,-2.6552,-2.6457,-2.6911,-2.7853,-2.8039,-2.7497,-2.7027,-2.662,-2.6139,-3.0428,-3.0617,-3.0617,-3.0559,-3.054,-3.0588,-3.0637,-3.0695,-3.072,-3.0801,-3.0898,-3.0918,-3.0918,-3.0918,-3.0918,-3.0829,-3.073,-3.0632,-3.0548,-3.0488,-3.0433,-3.0398,-3.0398,-3.0398,-3.0398,-3.0398,-3.0379,-3.0348,-3.0297,-3.0235,-3.0188,-3.0118,-2.975,-2.9626,-2.9532,-2.9246,-2.8998,-2.9071,-2.904,-2.8998,-2.8975,-2.8975,-2.8975,-2.8975,-2.8975,-2.8952,-2.8905,-2.8834,-2.8761,-2.8712,-2.8637,-2.8612,-2.8587,-2.8587,-2.8569,-2.8438,-2.8192,-2.8262,-2.8675,-2.8643,-2.9158,-2.9881,-3.0343,-3.0679,-3.0959,-3.1173,-3.1128,-3.0912,-3.0692,-3.0485,-3.0443,-3.007,-2.9722,-2.947,-2.9213,-2.9091,-2.9091,-2.9091,-2.9091,-2.9091,-2.9091,-2.9091,-2.9029,-2.8873,-2.8605,-2.8332,-2.8284,-2.8122,-2.7414,-2.6414,-2.5481,-2.5439,-2.5439,-2.523,-2.5005,-2.5005,-2.5005,-2.5005,-2.5005,-2.5005,-2.5005,-2.5005,-2.5073,-2.5168,-2.5181,-2.5426,-2.5561,-2.5683,-2.6316,-2.7327,-2.7261,-2.7015,-2.6688,-2.6346,-2.6082,-3.0375,-3.0598,-3.0559,-3.054,-3.0519,-3.0577,-3.0645,-3.0704,-3.0696,-3.0774,-3.0879,-3.0918,-3.0918,-3.0918,-3.0907,-3.0833,-3.0709,-3.0634,-3.0567,-3.0507,-3.0425,-3.0398,-3.039,-3.039,-3.0398,-3.0398,-3.0398,-3.0359,-3.0302,-3.0299,-3.0247,-3.0104,-2.9784,-2.9608,-2.9513,-2.9225,-2.9021,-2.8998,-2.9017,-2.8975,-2.8975,-2.8975,-2.8975,-2.8975,-2.8975,-2.897,-2.8905,-2.8834,-2.8761,-2.8694,-2.8637,-2.8612,-2.8587,-2.8569,-2.8453,-2.8188,-2.7976,-2.7848,-2.8014,-2.7912,-2.8351,-2.8789,-2.9262,-2.9651,-3.0159,-3.0615,-3.0937,-3.0707,-3.0651,-3.0468,-3.0468,-3.0054,-2.9677,-2.9335,-2.9167,-2.9137,-2.9091,-2.9091,-2.9091,-2.9091,-2.9091,-2.9091,-2.9045,-2.8842,-2.851,-2.8268,-2.8073,-2.7695,-2.7312,-2.6322,-2.5216,-2.5216,-2.5272,-2.5174,-2.5005,-2.5005,-2.5005,-2.5005,-2.5005,-2.5005,-2.4948,-2.4892,-2.4948,-2.5046,-2.5018,-2.4835,-2.5344,-2.5693,-2.6281,-2.662,-2.6316,-2.614,-2.6239,-2.6139,-2.5763,-3.0302,-3.052,-3.0511,-3.05,-3.0507,-3.0554,-3.0625,-3.0681,-3.0696,-3.0779,-3.0898,-3.0918,-3.0918,-3.0918,-3.0895,-3.0821,-3.0714,-3.0627,-3.0557,-3.0499,-3.0439,-3.0425,-3.0406,-3.0406,-3.0436,-3.0436,-3.039,-3.0359,-3.0321,-3.0311,-3.0247,-3.0133,-2.9853,-2.9662,-2.9607,-2.9332,-2.9138,-2.9044,-2.9017,-2.8975,-2.8975,-2.8975,-2.8975,-2.8975,-2.8975,-2.897,-2.8929,-2.8858,-2.8785,-2.8737,-2.8662,-2.8587,-2.8587,-2.8587,-2.8314,-2.7835,-2.7763,-2.7578,-2.739,-2.7482,-2.7759,-2.8078,-2.845,-2.8772,-2.9265,-2.9901,-3.0325,-2.9879,-3.0361,-3.0212,-2.9931,-2.9891,-2.9645,-2.935,-2.9183,-2.9091,-2.9091,-2.9091,-2.9091,-2.9091,-2.9091,-2.9091,-2.9029,-2.8732,-2.8398,-2.8042,-2.7845,-2.7291,-2.6797,-2.5906,-2.5061,-2.5061,-2.5061,-2.5061,-2.5005,-2.5005,-2.5005,-2.5005,-2.5005,-2.5005,-2.4878,-2.4765,-2.4708,-2.4465,-2.4536,-2.4474,-2.5123,-2.5621,-2.5892,-2.5897,-2.545,-2.518,-2.5191,-2.5191,-2.4986,-3.0113,-3.026,-3.0424,-3.0469,-3.0433,-3.0477,-3.0543,-3.0623,-3.0678,-3.076,-3.0879,-3.0898,-3.0898,-3.0918,-3.0895,-3.0813,-3.0707,-3.0627,-3.0577,-3.05,-3.0492,-3.0472,-3.0492,-3.0482,-3.0472,-3.0471,-3.0414,-3.0371,-3.0321,-3.0316,-3.0299,-3.0221,-3.0056,-2.9896,-2.9782,-2.9494,-2.9332,-2.923,-2.9093,-2.8998,-2.8975,-2.8975,-2.8975,-2.8975,-2.8994,-2.8994,-2.8952,-2.8905,-2.8834,-2.8761,-2.8681,-2.8612,-2.8587,-2.8587,-2.8248,-2.797,-2.784,-2.7816,-2.7357,-2.7333,-2.7533,-2.7726,-2.798,-2.8351,-2.8653,-2.8786,-2.8605,-2.6919,-2.8754,-2.993,-2.9402,-2.9433,-2.9572,-2.947,-2.9213,-2.9137,-2.9091,-2.9091,-2.9091,-2.9091,-2.9091,-2.9091,-2.9029,-2.8685,-2.8319,-2.7963,-2.7515,-2.6953,-2.6336,-2.5536,-2.5005,-2.5005,-2.5005,-2.5005,-2.5005,-2.5005,-2.5005,-2.5005,-2.5005,-2.4948,-2.4765,-2.4465,-2.3754,-2.3636,-2.3695,-2.406,-2.4651,-2.5029,-2.5349,-2.5009,-2.439,-2.4141,-2.3996,-2.4025,-2.423,-3.0029,-3.0221,-3.0298,-3.0359,-3.041,-3.0414,-3.0502,-3.0595,-3.063,-3.0716,-3.082,-3.084,-3.0859,-3.0879,-3.0831,-3.0747,-3.0685,-3.0632,-3.0588,-3.0549,-3.0546,-3.0527,-3.0491,-3.0492,-3.0482,-3.0449,-3.0425,-3.039,-3.0359,-3.0316,-3.0304,-3.0279,-3.008,-2.9912,-2.9912,-2.9662,-2.9532,-2.9415,-2.9272,-2.9115,-2.9021,-2.8975,-2.8975,-2.8975,-2.8975,-2.8975,-2.8929,-2.8881,-2.881,-2.8737,-2.8637,-2.8612,-2.8587,-2.8587,-2.8443,-2.8314,-2.8308,-2.8002,-2.7352,-2.7409,-2.7577,-2.767,-2.7713,-2.7753,-2.776,-2.7653,-2.741,-2.6421,-2.728,-2.829,-2.9095,-2.9271,-2.9221,-2.9201,-2.9213,-2.9104,-2.9028,-2.9091,-2.9091,-2.9091,-2.9091,-2.8936,-2.8732,-2.8319,-2.7963,-2.7615,-2.7108,-2.639,-2.5974,-2.5425,-2.5118,-2.5005,-2.5005,-2.5005,-2.5005,-2.5005,-2.5005,-2.5005,-2.5005,-2.4892,-2.4593,-2.4176,-2.3458,-2.2847,-2.2725,-2.3207,-2.3989,-2.4217,-2.4245,-2.3777,-2.3228,-2.3268,-2.3328,-2.3701,-2.3881,-3.0018,-3.0183,-3.0234,-3.0311,-3.0398,-3.0398,-3.046,-3.0574,-3.0586,-3.0664,-3.0757,-3.082,-3.0859,-3.0855,-3.0784,-3.073,-3.071,-3.0618,-3.0621,-3.0591,-3.0568,-3.0543,-3.05,-3.0492,-3.0482,-3.0425,-3.039,-3.0379,-3.0336,-3.0323,-3.0304,-3.0297,-3.015,-3.0037,-2.9927,-2.9782,-2.9625,-2.9436,-2.9336,-2.9185,-2.9044,-2.8975,-2.8975,-2.8975,-2.8975,-2.8952,-2.8905,-2.8858,-2.8791,-2.8694,-2.8687,-2.8662,-2.8612,-2.8587,-2.858,-2.8513,-2.8536,-2.8246,-2.7747,-2.7607,-2.773,-2.773,-2.7672,-2.7508,-2.7203,-2.6808,-2.6572,-2.6399,-2.6388,-2.7595,-2.8642,-2.869,-2.9011,-2.9061,-2.9137,-2.9027,-2.8948,-2.8979,-2.9028,-2.9075,-2.892,-2.8622,-2.8367,-2.7898,-2.755,-2.7261,-2.664,-2.592,-2.555,-2.5216,-2.5118,-2.5005,-2.5005,-2.5005,-2.5005,-2.5005,-2.5005,-2.5005,-2.5005,-2.4765,-2.4421,-2.3813,-2.3148,-2.2543,-2.1865,-2.2063,-2.2616,-2.2859,-2.3065,-2.2862,-2.2672,-2.2657,-2.2835,-2.322,-2.3311,-2.9977,-3.0131,-3.029,-3.0383,-3.0398,-3.0398,-3.0448,-3.0521,-3.0567,-3.0635,-3.075,-3.0816,-3.0849,-3.0814,-3.0789,-3.0748,-3.0703,-3.0626,-3.0607,-3.0593,-3.0546,-3.0537,-3.05,-3.0491,-3.0482,-3.0462,-3.0386,-3.0336,-3.0311,-3.0311,-3.0305,-3.0279,-3.0215,-3.0215,-3.0128,-2.9962,-2.9696,-2.9533,-2.9415,-2.9291,-2.9115,-2.9044,-2.9021,-2.9017,-2.9017,-2.897,-2.8905,-2.8881,-2.8791,-2.8694,-2.8712,-2.8705,-2.8612,-2.8587,-2.8587,-2.8587,-2.8587,-2.8344,-2.8055,-2.7829,-2.78,-2.7818,-2.7748,-2.7612,-2.7535,-2.7289,-2.7053,-2.6708,-2.6452,-2.6283,-2.7118,-2.7584,-2.8214,-2.8475,-2.8458,-2.8442,-2.8474,-2.8805,-2.8854,-2.895,-2.8764,-2.8479,-2.7966,-2.754,-2.7217,-2.6975,-2.6215,-2.5495,-2.5342,-2.5061,-2.5061,-2.5005,-2.5005,-2.5005,-2.5005,-2.4948,-2.4708,-2.4892,-2.5005,-2.4593,-2.4118,-2.3446,-2.2298,-2.1877,-2.1146,-2.1221,-2.1285,-2.1714,-2.2025,-2.2173,-2.2258,-2.2303,-2.2327,-2.2492,-2.2313,-2.9688,-3.0241,-2.9813,-2.9921,-3.0398,-3.0398,-3.0455,-3.0559,-3.0608,-3.0668,-3.0769,-3.084,-3.0879,-3.0841,-3.0754,-3.0714,-3.0694,-3.0607,-3.0629,-3.063,-3.0591,-3.0568,-3.0552,-3.0519,-3.0492,-3.043,-3.0371,-3.0323,-3.0305,-3.0318,-3.0279,-3.0266,-3.0247,-3.0234,-3.0161,-3.0104,-2.9902,-2.9751,-2.9644,-2.957,-2.9375,-2.9228,-2.9185,-2.9185,-2.9021,-2.8952,-2.8858,-2.8834,-2.8761,-2.8687,-2.8687,-2.8637,-2.8612,-2.8612,-2.8587,-2.8587,-2.8587,-2.851,-2.8335,-2.8101,-2.7954,-2.7886,-2.7829,-2.7818,-2.7933,-2.7847,-2.7624,-2.7258,-2.6624,-2.6277,-2.6089,-2.6618,-2.7124,-2.7402,-2.7573,-2.7604,-2.7873,-2.8189,-2.8275,-2.8153,-2.831,-2.8286,-2.7754,-2.7179,-2.6916,-2.6596,-2.5837,-2.5174,-2.5061,-2.5005,-2.5005,-2.5005,-2.5005,-2.5005,-2.5005,-2.4708,-2.4465,-2.4708,-2.5005,-2.465,-2.4047,-2.1854,-2.0892,-2.0593,-2.0658,-2.0775,-2.0839,-2.0839,-2.1169,-2.1812,-2.2061,-2.2147,-2.2061,-2.1851,-2.1663,-2.902,-2.9552,-2.8986,-2.939,-3.0302,-3.0121,-3.0237,-3.0548,-3.0579,-3.0697,-3.0827,-3.0879,-3.0879,-3.084,-3.0786,-3.0734,-3.0729,-3.0679,-3.0676,-3.0644,-3.0618,-3.0598,-3.0568,-3.0528,-3.046,-3.0425,-3.0359,-3.0323,-3.0305,-3.0299,-3.026,-3.0226,-3.0213,-3.0207,-3.0213,-3.0199,-3.0098,-2.9956,-2.9891,-2.9753,-2.9513,-2.9375,-2.9209,-2.9185,-2.9044,-2.8929,-2.8834,-2.8828,-2.8737,-2.8662,-2.8612,-2.8612,-2.8587,-2.8587,-2.8587,-2.8587,-2.8587,-2.8587,-2.8492,-2.811,-2.788,-2.7869,-2.7829,-2.7904,-2.8045,-2.8073,-2.776,-2.7474,-2.6891,-2.64,-2.5864,-2.6213,-2.6515,-2.6834,-2.6414,-2.6404,-2.6957,-2.7308,-2.7324,-2.7316,-2.7519,-2.7689,-2.7232,-2.6657,-2.6304,-2.6079,-2.5618,-2.5118,-2.5061,-2.5005,-2.5005,-2.5005,-2.5005,-2.5005,-2.4948,-2.4821,-2.4708,-2.4765,-2.5005,-2.5005,-2.4034,-2.1916,-2.0764,-2.1071,-2.1071,-2.0635,-2.0582,-2.0711,-2.1158,-2.1675,-2.1737,-2.1612,-2.1537,-2.1336,-2.1221,-2.7967,-2.7928,-2.7928,-2.8852,-3.0083,-2.9467,-2.962,-3.0363,-3.0575,-3.0735,-3.0896,-3.0898,-3.0859,-3.084,-3.0781,-3.0767,-3.0761,-3.0729,-3.0711,-3.0685,-3.0579,-3.056,-3.0535,-3.0511,-3.0447,-3.0462,-3.0398,-3.0336,-3.0311,-3.0305,-3.0253,-3.0213,-3.0213,-3.0213,-3.0218,-3.0204,-3.0098,-2.9956,-2.994,-2.9698,-2.9475,-2.9375,-2.9228,-2.9115,-2.9021,-2.8923,-2.8828,-2.8785,-2.8712,-2.863,-2.8587,-2.8587,-2.8587,-2.8587,-2.8587,-2.8587,-2.8587,-2.8587,-2.8536,-2.7742,-2.7595,-2.7771,-2.773,-2.773,-2.7876,-2.7818,-2.7552,-2.7164,-2.71,-2.6791,-2.6365,-2.5979,-2.6121,-2.6007,-2.5584,-2.5535,-2.6119,-2.6656,-2.671,-2.6698,-2.681,-2.6879,-2.652,-2.6108,-2.5728,-2.5412,-2.5203,-2.5048,-2.5005,-2.5005,-2.5005,-2.5005,-2.5005,-2.5005,-2.5005,-2.5005,-2.4948,-2.5005,-2.4892,-2.4765,-2.4593,-2.3327,-2.2482,-2.1916,-2.1187,-2.0518,-2.0582,-2.0646,-2.0914,-2.1106,-2.1106,-2.0967,-2.0903,-2.0828,-2.0839,-2.7371,-2.7832,-2.7274,-2.7698,-2.8621,-2.8448,-2.8869,-2.9776,-3.0433,-3.0841,-3.0896,-3.0918,-3.0898,-3.0859,-3.082,-3.0801,-3.0791,-3.073,-3.0716,-3.0742,-3.0587,-3.056,-3.0543,-3.0482,-3.0425,-3.0425,-3.0359,-3.0328,-3.0309,-3.0299,-3.0254,-3.0215,-3.0213,-3.0218,-3.0204,-3.0204,-3.0142,-3.0079,-2.9988,-2.9822,-2.9662,-2.9455,-2.9249,-2.9115,-2.9021,-2.8881,-2.8761,-2.8743,-2.8687,-2.8612,-2.8587,-2.8587,-2.8587,-2.8587,-2.8587,-2.8587,-2.8587,-2.8562,-2.838,-2.7904,-2.7582,-2.7612,-2.76,-2.7478,-2.7369,-2.7612,-2.7276,-2.6758,-2.6758,-2.6435,-2.6066,-2.553,-2.5433,-2.5409,-2.5179,-2.5163,-2.5503,-2.6009,-2.6277,-2.6218,-2.6245,-2.6504,-2.635,-2.6308,-2.5934,-2.537,-2.516,-2.5061,-2.5005,-2.5005,-2.5005,-2.5005,-2.5005,-2.5005,-2.4948,-2.4821,-2.4835,-2.4835,-2.4593,-2.4292,-2.406,-2.3767,-2.2725,-2.1491,-2.0944,-2.0453,-2.0453,-2.0453,-2.0399,-2.0475,-2.0593,-2.0658,-2.0646,-2.0646,-2.0582,-2.6486,-2.6928,-2.639,-2.6467,-2.7005,-2.7332,-2.8153,-2.9408,-3.0443,-3.0905,-3.0914,-3.0918,-3.0918,-3.0898,-3.0859,-3.084,-3.082,-3.0788,-3.0781,-3.0798,-3.0659,-3.0633,-3.0579,-3.0491,-3.0451,-3.0417,-3.039,-3.0379,-3.0297,-3.0311,-3.0254,-3.0215,-3.0213,-3.0218,-3.0204,-3.0204,-3.0204,-3.0128,-3.0003,-2.9839,-2.9681,-2.9456,-2.9228,-2.9075,-2.8938,-2.8791,-2.8718,-2.8694,-2.8687,-2.8612,-2.8587,-2.8587,-2.8587,-2.8587,-2.8587,-2.8587,-2.8587,-2.8562,-2.8388,-2.8091,-2.7806,-2.7736,-2.7478,-2.7261,-2.7038,-2.7117,-2.6825,-2.6417,-2.6222,-2.6026,-2.5828,-2.5278,-2.5045,-2.5021,-2.5021,-2.5021,-2.5092,-2.5589,-2.5566,-2.5533,-2.5819,-2.609,-2.6321,-2.6433,-2.634,-2.577,-2.5216,-2.5061,-2.4948,-2.5005,-2.5005,-2.5005,-2.4892,-2.4835,-2.4708,-2.4408,-2.4478,-2.465,-2.4465,-2.4221,-2.3623,-2.3327,-2.2163,-2.1164,-2.0643,-2.0333,-2.0313,-2.0324,-2.0204,-2.0226,-2.0335,-2.0399,-2.0453,-2.0399,-2.0399,-2.5322,-2.5313,-2.5313,-2.5351,-2.5486,-2.6371,-2.7677,-2.9331,-3.0384,-3.0788,-3.0719,-3.0683,-3.0605,-3.0684,-3.0703,-3.0664,-3.0703,-3.0723,-3.0808,-3.0833,-3.0726,-3.0701,-3.0633,-3.0552,-3.0472,-3.0451,-3.0428,-3.0367,-3.0311,-3.0286,-3.0241,-3.0221,-3.0199,-3.0204,-3.0204,-3.0204,-3.0204,-3.0161,-3.0003,-2.9855,-2.968,-2.9395,-2.9166,-2.903,-2.8905,-2.8785,-2.8718,-2.8694,-2.8662,-2.8637,-2.8587,-2.8587,-2.8587,-2.8587,-2.8587,-2.8587,-2.8587,-2.8543,-2.8466,-2.8119,-2.795,-2.7777,-2.7369,-2.7181,-2.7038,-2.6808,-2.6555,-2.6364,-2.6168,-2.5914,-2.5654,-2.5317,-2.5005,-2.5005,-2.5005,-2.4966,-2.4942,-2.4977,-2.4806,-2.495,-2.5394,-2.5712,-2.5992,-2.6154,-2.6125,-2.5702,-2.5131,-2.4848,-2.4791,-2.5005,-2.4948,-2.4948,-2.4892,-2.4708,-2.4408,-2.4047,-2.3872,-2.3989,-2.4624,-2.4496,-2.3715,-2.2577,-2.1331,-2.0441,-2.0287,-2.0213,-2.0215,-2.0106,-1.9943,-1.9954,-1.9865,-2.0139,-2.0171,-2.0194,-2.0216,-2.5293,-2.5303,-2.5313,-2.5313,-2.5447,-2.6331,-2.7071,-2.7729,-2.9195,-2.9695,-2.9097,-2.9726,-2.9707,-2.9082,-2.9043,-2.9473,-2.9785,-3.0075,-3.044,-3.0562,-3.0634,-3.0633,-3.0614,-3.0552,-3.0472,-3.0439,-3.0402,-3.0355,-3.0299,-3.0241,-3.0221,-3.0218,-3.0218,-3.0204,-3.0204,-3.0204,-3.0204,-3.0161,-2.9988,-2.9872,-2.968,-2.9415,-2.9209,-2.9075,-2.8905,-2.8791,-2.8718,-2.8694,-2.8644,-2.8612,-2.8587,-2.8587,-2.8587,-2.8587,-2.8587,-2.8587,-2.8492,-2.837,-2.8335,-2.8035,-2.7836,-2.7789,-2.7478,-2.7135,-2.694,-2.6742,-2.6537,-2.6293,-2.6168,-2.5987,-2.56,-2.5278,-2.5045,-2.5005,-2.4886,-2.467,-2.4645,-2.4488,-2.4326,-2.4458,-2.4896,-2.5131,-2.5417,-2.5576,-2.5453,-2.5271,-2.5059,-2.4691,-2.4505,-2.465,-2.4765,-2.4708,-2.465,-2.4408,-2.3917,-2.3505,-2.3327,-2.3314,-2.3846,-2.3909,-2.2923,-2.1692,-2.0387,-1.9728,-1.9555,-1.9777,-2.0085,-1.9824,-1.9441,-1.9288,-1.9251,-1.9626,-1.9965,-1.9921,-1.9998,-2.5262,-2.5264,-2.5293,-2.5303,-2.5418,-2.6016,-2.6287,-2.664,-2.8278,-2.8738,-2.8414,-2.8867,-2.8789,-2.8437,-2.8418,-2.8652,-2.9062,-2.9139,-2.9503,-3.0135,-3.0349,-3.0443,-3.0471,-3.0532,-3.0501,-3.0428,-3.0367,-3.0343,-3.0286,-3.024,-3.0204,-3.0204,-3.0204,-3.0204,-3.0204,-3.0204,-3.0142,-3.0064,-2.9972,-2.9924,-2.9734,-2.9475,-2.9275,-2.9166,-2.8938,-2.8791,-2.8718,-2.8694,-2.8644,-2.8612,-2.8587,-2.8587,-2.8587,-2.8587,-2.8587,-2.8562,-2.8458,-2.8237,-2.8073,-2.7979,-2.7818,-2.776,-2.76,-2.7293,-2.694,-2.6691,-2.6382,-2.6151,-2.6132,-2.6023,-2.56,-2.5201,-2.5123,-2.5005,-2.467,-2.4385,-2.4219,-2.4051,-2.4036,-2.4073,-2.4261,-2.4485,-2.4653,-2.4819,-2.4935,-2.4835,-2.4734,-2.4563,-2.4247,-2.4118,-2.4163,-2.4163,-2.4176,-2.406,-2.3518,-2.2967,-2.2665,-2.2482,-2.2482,-2.2406,-2.1712,-2.0986,-1.9912,-1.9241,-1.8824,-1.908,-1.9419,-1.9113,-1.8753,-1.8643,-1.8622,-1.8927,-1.9222,-1.9331,-1.9572,-2.5212,-2.5212,-2.5282,-2.5302,-2.5332,-2.5498,-2.5562,-2.5696,-2.7323,-2.8055,-2.7984,-2.8144,-2.8086,-2.7734,-2.7715,-2.791,-2.8125,-2.8217,-2.8658,-2.9489,-2.9725,-2.9917,-3.0244,-3.0533,-3.0492,-3.0417,-3.0336,-3.0311,-3.0279,-3.0245,-3.0204,-3.0204,-3.0204,-3.0204,-3.0204,-3.0204,-3.0128,-2.9972,-2.994,-2.9907,-2.9805,-2.9533,-2.9237,-2.9209,-2.9007,-2.8834,-2.8761,-2.8712,-2.8687,-2.8637,-2.8587,-2.8587,-2.8587,-2.8587,-2.8587,-2.8536,-2.8432,-2.8146,-2.7933,-2.7806,-2.7864,-2.7836,-2.7742,-2.7369,-2.6923,-2.6708,-2.6486,-2.6026,-2.5934,-2.5749,-2.541,-2.5162,-2.5005,-2.4589,-2.4177,-2.4094,-2.4151,-2.3855,-2.357,-2.348,-2.3155,-2.3469,-2.4021,-2.4163,-2.405,-2.419,-2.4182,-2.4055,-2.3794,-2.3546,-2.3636,-2.3695,-2.3649,-2.3543,-2.3053,-2.2567,-2.2013,-2.1765,-2.1639,-2.1467,-2.1225,-2.0398,-1.9493,-1.9004,-1.8545,-1.8392,-1.8469,-1.825,-1.8152,-1.8108,-1.813,-1.825,-1.8436,-1.8611,-1.8709,-2.5209,-2.5212,-2.5282,-2.5302,-2.5313,-2.5446,-2.5504,-2.5535,-2.6055,-2.641,-2.6456,-2.6934,-2.6973,-2.6582,-2.6543,-2.6777,-2.7246,-2.7327,-2.7822,-2.8548,-2.9015,-2.9249,-2.9686,-3.0009,-3.025,-3.0406,-3.0336,-3.019,-3.0253,-3.0232,-3.0204,-3.0204,-3.0204,-3.0204,-3.0204,-3.0204,-3.0113,-2.9924,-2.9907,-2.9907,-2.9822,-2.9771,-2.9608,-2.947,-2.9255,-2.8973,-2.8858,-2.8779,-2.8705,-2.8612,-2.8612,-2.8587,-2.8587,-2.8587,-2.8587,-2.8562,-2.8406,-2.8091,-2.7836,-2.7659,-2.763,-2.7612,-2.7444,-2.7132,-2.6891,-2.6842,-2.6538,-2.6046,-2.5637,-2.5448,-2.5294,-2.51,-2.4846,-2.4261,-2.3668,-2.3855,-2.404,-2.3626,-2.3126,-2.2718,-2.2287,-2.2609,-2.328,-2.3373,-2.3245,-2.3226,-2.3221,-2.3141,-2.2883,-2.268,-2.3135,-2.3173,-2.3125,-2.2957,-2.2592,-2.2161,-2.1663,-2.1221,-2.1019,-2.0828,-2.0711,-2.0211,-1.9617,-1.8927,-1.8414,-1.8305,-1.8054,-1.7617,-1.7529,-1.7617,-1.766,-1.7802,-1.7737,-1.7835,-1.7791,-2.5206,-2.5198,-2.5241,-2.5273,-2.5322,-2.5422,-2.5453,-2.546,-2.5601,-2.5648,-2.569,-2.6122,-2.6131,-2.5723,-2.5703,-2.5859,-2.6426,-2.6387,-2.6938,-2.764,-2.811,-2.8385,-2.8795,-2.9223,-2.9081,-2.9256,-2.9678,-2.9768,-3.0016,-3.0218,-3.0204,-3.0185,-3.0185,-3.0204,-3.0204,-3.019,-3.0113,-2.9905,-2.9907,-2.9839,-2.9784,-2.9727,-2.9623,-2.9456,-2.9311,-2.9051,-2.8901,-2.8804,-2.873,-2.8637,-2.8587,-2.8587,-2.8587,-2.8587,-2.8587,-2.8536,-2.8335,-2.8045,-2.776,-2.7539,-2.7293,-2.7149,-2.7307,-2.7021,-2.6923,-2.6825,-2.6641,-2.612,-2.5416,-2.5139,-2.5217,-2.5123,-2.4846,-2.44,-2.3625,-2.3334,-2.3378,-2.3216,-2.2857,-2.2583,-2.2306,-2.2339,-2.2686,-2.2283,-2.2333,-2.2804,-2.2737,-2.2515,-2.2189,-2.1981,-2.2443,-2.2725,-2.2652,-2.258,-2.2432,-2.1925,-2.1296,-2.085,-2.0529,-2.0399,-2.0399,-2.0259,-1.9824,-1.9211,-1.8643,-1.8283,-1.7966,-1.7486,-1.7289,-1.7409,-1.7387,-1.7355,-1.7278,-1.7278,-1.7376,-2.521,-2.5203,-2.5209,-2.5222,-2.5302,-2.5385,-2.5395,-2.5425,-2.5537,-2.5613,-2.5613,-2.5715,-2.5696,-2.5703,-2.5703,-2.5703,-2.5737,-2.5873,-2.6281,-2.6604,-2.687,-2.7384,-2.776,-2.7999,-2.8144,-2.8299,-2.8624,-2.913,-2.9535,-2.9726,-2.9865,-3.0018,-3.0133,-3.0185,-3.0171,-3.0171,-3.0113,-2.9921,-2.9822,-2.9698,-2.9636,-2.9569,-2.9492,-2.9377,-2.9285,-2.9099,-2.8907,-2.8779,-2.8712,-2.8662,-2.8587,-2.8587,-2.8562,-2.8536,-2.8562,-2.8492,-2.8282,-2.7989,-2.773,-2.743,-2.694,-2.6623,-2.6908,-2.6956,-2.6825,-2.6556,-2.6368,-2.6016,-2.5323,-2.5045,-2.5084,-2.5045,-2.4766,-2.4317,-2.3538,-2.2902,-2.2933,-2.2933,-2.2692,-2.2463,-2.2324,-2.2306,-2.2072,-2.1657,-2.1691,-2.217,-2.2273,-2.2043,-2.1818,-2.1722,-2.1849,-2.214,-2.2201,-2.2152,-2.2149,-2.1737,-2.1169,-2.0786,-2.0529,-2.0281,-2.0085,-2.0074,-1.9933,-1.9615,-1.908,-1.849,-1.7966,-1.7508,-1.7376,-1.7278,-1.7278,-1.7278,-1.7278,-1.7278,-1.7278,-2.5203,-2.5206,-2.5201,-2.5241,-2.5312,-2.5385,-2.5387,-2.5418,-2.554,-2.56,-2.5632,-2.5671,-2.5691,-2.5694,-2.5703,-2.5703,-2.5693,-2.5629,-2.5604,-2.5848,-2.6328,-2.6693,-2.6966,-2.7229,-2.7717,-2.7842,-2.7872,-2.8045,-2.8676,-2.9006,-2.9084,-2.8958,-2.9875,-2.9994,-2.9908,-2.9924,-2.9897,-2.9702,-2.9643,-2.9532,-2.9373,-2.936,-2.9457,-2.9388,-2.9281,-2.9085,-2.8888,-2.8822,-2.8705,-2.8637,-2.8587,-2.8587,-2.8492,-2.8414,-2.8362,-2.8362,-2.8174,-2.7979,-2.7672,-2.7338,-2.6808,-2.6345,-2.6521,-2.64,-2.6137,-2.5721,-2.5647,-2.5684,-2.5185,-2.4989,-2.495,-2.4846,-2.4564,-2.3925,-2.3201,-2.2978,-2.2888,-2.2888,-2.2797,-2.2555,-2.237,-2.237,-2.2431,-2.1902,-2.1304,-2.1645,-2.1758,-2.155,-2.1184,-2.119,-2.1223,-2.1452,-2.1656,-2.1957,-2.2089,-2.1663,-2.1169,-2.0775,-2.0464,-2.0216,-2.0085,-2.0085,-1.9889,-1.9681,-1.9124,-1.849,-1.7999,-1.7617,-1.7376,-1.7278,-1.7278,-1.7278,-1.7278,-1.7278,-1.7278]}]]